<?xml version="1.0" encoding="UTF-8" standalone="no" ?>
<gpx xmlns="http://www.topografix.com/GPX/1/1" xmlns:xsi="http://www.w3.org/2001/XMLSchema-instance" xsi:schemaLocation="http://www.topografix.com/GPX/1/1 http://www.topografix.com/GPX/1/1/gpx.xsd" version="1.1" creator="VisuGPX - https://www.visugpx.com">
  <metadata>
    <name>Orsay Confinement 10km</name>
  </metadata>
  <trk>
    <name><![CDATA[22-MAI-21 12:49:27 PM]]></name>
    <extensions>
      <line xmlns="http://www.topografix.com/GPX/gpx_style/0/2">
        <color>0000FF</color>
        <width>4</width>
      </line>
    </extensions>
    <trkseg>
      <trkpt lat="48.68807" lon="2.18317">
        <ele>131.6</ele>
        <time>2021-05-22T06:42:27Z</time>
      </trkpt>
      <trkpt lat="48.6881" lon="2.18311">
        <ele>131.1</ele>
        <time>2021-05-22T06:42:28Z</time>
      </trkpt>
      <trkpt lat="48.68818" lon="2.18285">
        <ele>128.95</ele>
        <time>2021-05-22T06:42:39Z</time>
      </trkpt>
      <trkpt lat="48.68827" lon="2.18257">
        <ele>127.99</ele>
        <time>2021-05-22T06:42:49Z</time>
      </trkpt>
      <trkpt lat="48.68828" lon="2.18255">
        <ele>127.99</ele>
        <time>2021-05-22T06:42:50Z</time>
      </trkpt>
      <trkpt lat="48.68831" lon="2.18252">
        <ele>127.99</ele>
        <time>2021-05-22T06:42:53Z</time>
      </trkpt>
      <trkpt lat="48.68832" lon="2.18247">
        <ele>127.03</ele>
        <time>2021-05-22T06:42:56Z</time>
      </trkpt>
      <trkpt lat="48.68833" lon="2.18245">
        <ele>127.51</ele>
        <time>2021-05-22T06:42:57Z</time>
      </trkpt>
      <trkpt lat="48.68842" lon="2.18221">
        <ele>126.07</ele>
        <time>2021-05-22T06:43:08Z</time>
      </trkpt>
      <trkpt lat="48.68844" lon="2.18217">
        <ele>126.07</ele>
        <time>2021-05-22T06:43:10Z</time>
      </trkpt>
      <trkpt lat="48.68846" lon="2.18214">
        <ele>125.59</ele>
        <time>2021-05-22T06:43:11Z</time>
      </trkpt>
      <trkpt lat="48.68847" lon="2.18211">
        <ele>125.59</ele>
        <time>2021-05-22T06:43:12Z</time>
      </trkpt>
      <trkpt lat="48.68855" lon="2.18195">
        <ele>125.11</ele>
        <time>2021-05-22T06:43:18Z</time>
      </trkpt>
      <trkpt lat="48.68859" lon="2.18191">
        <ele>124.15</ele>
        <time>2021-05-22T06:43:23Z</time>
      </trkpt>
      <trkpt lat="48.68871" lon="2.18171">
        <ele>123.67</ele>
        <time>2021-05-22T06:43:34Z</time>
      </trkpt>
      <trkpt lat="48.68873" lon="2.18171">
        <ele>122.71</ele>
        <time>2021-05-22T06:43:37Z</time>
      </trkpt>
      <trkpt lat="48.68874" lon="2.1817">
        <ele>123.19</ele>
        <time>2021-05-22T06:43:38Z</time>
      </trkpt>
      <trkpt lat="48.68875" lon="2.18169">
        <ele>122.71</ele>
        <time>2021-05-22T06:43:39Z</time>
      </trkpt>
      <trkpt lat="48.68878" lon="2.18166">
        <ele>122.71</ele>
        <time>2021-05-22T06:43:40Z</time>
      </trkpt>
      <trkpt lat="48.68881" lon="2.18163">
        <ele>122.71</ele>
        <time>2021-05-22T06:43:41Z</time>
      </trkpt>
      <trkpt lat="48.68883" lon="2.18161">
        <ele>122.71</ele>
        <time>2021-05-22T06:43:42Z</time>
      </trkpt>
      <trkpt lat="48.68897" lon="2.18159">
        <ele>121.74</ele>
        <time>2021-05-22T06:43:52Z</time>
      </trkpt>
      <trkpt lat="48.68908" lon="2.1816">
        <ele>120.78</ele>
        <time>2021-05-22T06:43:58Z</time>
      </trkpt>
      <trkpt lat="48.68909" lon="2.18159">
        <ele>120.78</ele>
        <time>2021-05-22T06:43:59Z</time>
      </trkpt>
      <trkpt lat="48.68914" lon="2.18157">
        <ele>120.78</ele>
        <time>2021-05-22T06:44:02Z</time>
      </trkpt>
      <trkpt lat="48.68916" lon="2.18157">
        <ele>120.3</ele>
        <time>2021-05-22T06:44:03Z</time>
      </trkpt>
      <trkpt lat="48.68918" lon="2.18157">
        <ele>120.3</ele>
        <time>2021-05-22T06:44:04Z</time>
      </trkpt>
      <trkpt lat="48.6892" lon="2.18158">
        <ele>120.78</ele>
        <time>2021-05-22T06:44:05Z</time>
      </trkpt>
      <trkpt lat="48.68923" lon="2.18157">
        <ele>119.34</ele>
        <time>2021-05-22T06:44:06Z</time>
      </trkpt>
      <trkpt lat="48.68944" lon="2.1815">
        <ele>118.86</ele>
        <time>2021-05-22T06:44:18Z</time>
      </trkpt>
      <trkpt lat="48.68968" lon="2.18142">
        <ele>116.94</ele>
        <time>2021-05-22T06:44:32Z</time>
      </trkpt>
      <trkpt lat="48.68979" lon="2.1814">
        <ele>116.94</ele>
        <time>2021-05-22T06:44:39Z</time>
      </trkpt>
      <trkpt lat="48.68981" lon="2.18141">
        <ele>117.42</ele>
        <time>2021-05-22T06:44:40Z</time>
      </trkpt>
      <trkpt lat="48.68983" lon="2.1814">
        <ele>116.94</ele>
        <time>2021-05-22T06:44:41Z</time>
      </trkpt>
      <trkpt lat="48.68984" lon="2.18137">
        <ele>116.94</ele>
        <time>2021-05-22T06:44:42Z</time>
      </trkpt>
      <trkpt lat="48.68985" lon="2.18132">
        <ele>116.94</ele>
        <time>2021-05-22T06:44:43Z</time>
      </trkpt>
      <trkpt lat="48.68984" lon="2.18128">
        <ele>117.9</ele>
        <time>2021-05-22T06:44:44Z</time>
      </trkpt>
      <trkpt lat="48.68983" lon="2.18125">
        <ele>117.42</ele>
        <time>2021-05-22T06:44:45Z</time>
      </trkpt>
      <trkpt lat="48.68982" lon="2.18122">
        <ele>117.9</ele>
        <time>2021-05-22T06:44:46Z</time>
      </trkpt>
      <trkpt lat="48.68977" lon="2.18106">
        <ele>119.34</ele>
        <time>2021-05-22T06:44:57Z</time>
      </trkpt>
      <trkpt lat="48.68963" lon="2.18087">
        <ele>120.78</ele>
        <time>2021-05-22T06:45:09Z</time>
      </trkpt>
      <trkpt lat="48.68953" lon="2.18074">
        <ele>123.67</ele>
        <time>2021-05-22T06:45:20Z</time>
      </trkpt>
      <trkpt lat="48.68942" lon="2.18056">
        <ele>126.55</ele>
        <time>2021-05-22T06:45:30Z</time>
      </trkpt>
      <trkpt lat="48.68943" lon="2.18055">
        <ele>129.43</ele>
        <time>2021-05-22T06:45:40Z</time>
      </trkpt>
      <trkpt lat="48.68939" lon="2.18047">
        <ele>129.43</ele>
        <time>2021-05-22T06:45:43Z</time>
      </trkpt>
      <trkpt lat="48.68937" lon="2.18045">
        <ele>129.43</ele>
        <time>2021-05-22T06:45:44Z</time>
      </trkpt>
      <trkpt lat="48.68935" lon="2.18044">
        <ele>129.43</ele>
        <time>2021-05-22T06:45:45Z</time>
      </trkpt>
      <trkpt lat="48.68928" lon="2.18037">
        <ele>130.4</ele>
        <time>2021-05-22T06:45:48Z</time>
      </trkpt>
      <trkpt lat="48.68931" lon="2.18038">
        <ele>132.32</ele>
        <time>2021-05-22T06:45:54Z</time>
      </trkpt>
      <trkpt lat="48.6893" lon="2.18036">
        <ele>133.28</ele>
        <time>2021-05-22T06:45:57Z</time>
      </trkpt>
      <trkpt lat="48.68929" lon="2.18035">
        <ele>133.76</ele>
        <time>2021-05-22T06:45:58Z</time>
      </trkpt>
      <trkpt lat="48.68923" lon="2.18027">
        <ele>135.68</ele>
        <time>2021-05-22T06:46:05Z</time>
      </trkpt>
      <trkpt lat="48.6892" lon="2.18019">
        <ele>139.05</ele>
        <time>2021-05-22T06:46:16Z</time>
      </trkpt>
      <trkpt lat="48.68917" lon="2.18014">
        <ele>139.53</ele>
        <time>2021-05-22T06:46:18Z</time>
      </trkpt>
      <trkpt lat="48.68917" lon="2.18012">
        <ele>140.01</ele>
        <time>2021-05-22T06:46:19Z</time>
      </trkpt>
      <trkpt lat="48.68914" lon="2.18004">
        <ele>142.89</ele>
        <time>2021-05-22T06:46:31Z</time>
      </trkpt>
      <trkpt lat="48.68912" lon="2.18002">
        <ele>143.37</ele>
        <time>2021-05-22T06:46:33Z</time>
      </trkpt>
      <trkpt lat="48.68911" lon="2.18">
        <ele>143.85</ele>
        <time>2021-05-22T06:46:34Z</time>
      </trkpt>
      <trkpt lat="48.68909" lon="2.17999">
        <ele>144.34</ele>
        <time>2021-05-22T06:46:35Z</time>
      </trkpt>
      <trkpt lat="48.68907" lon="2.17998">
        <ele>144.82</ele>
        <time>2021-05-22T06:46:36Z</time>
      </trkpt>
      <trkpt lat="48.68907" lon="2.17996">
        <ele>145.3</ele>
        <time>2021-05-22T06:46:37Z</time>
      </trkpt>
      <trkpt lat="48.68905" lon="2.17994">
        <ele>144.82</ele>
        <time>2021-05-22T06:46:38Z</time>
      </trkpt>
      <trkpt lat="48.68904" lon="2.17993">
        <ele>145.3</ele>
        <time>2021-05-22T06:46:39Z</time>
      </trkpt>
      <trkpt lat="48.68906" lon="2.17993">
        <ele>148.18</ele>
        <time>2021-05-22T06:46:47Z</time>
      </trkpt>
      <trkpt lat="48.68905" lon="2.17988">
        <ele>149.62</ele>
        <time>2021-05-22T06:46:53Z</time>
      </trkpt>
      <trkpt lat="48.68891" lon="2.17964">
        <ele>150.1</ele>
        <time>2021-05-22T06:47:05Z</time>
      </trkpt>
      <trkpt lat="48.68883" lon="2.17953">
        <ele>150.58</ele>
        <time>2021-05-22T06:47:12Z</time>
      </trkpt>
      <trkpt lat="48.68881" lon="2.17948">
        <ele>150.58</ele>
        <time>2021-05-22T06:47:14Z</time>
      </trkpt>
      <trkpt lat="48.6888" lon="2.17946">
        <ele>151.06</ele>
        <time>2021-05-22T06:47:15Z</time>
      </trkpt>
      <trkpt lat="48.68873" lon="2.1794">
        <ele>151.54</ele>
        <time>2021-05-22T06:47:19Z</time>
      </trkpt>
      <trkpt lat="48.68872" lon="2.17937">
        <ele>151.54</ele>
        <time>2021-05-22T06:47:20Z</time>
      </trkpt>
      <trkpt lat="48.68872" lon="2.17934">
        <ele>152.03</ele>
        <time>2021-05-22T06:47:21Z</time>
      </trkpt>
      <trkpt lat="48.68873" lon="2.17931">
        <ele>152.03</ele>
        <time>2021-05-22T06:47:22Z</time>
      </trkpt>
      <trkpt lat="48.68874" lon="2.17929">
        <ele>152.51</ele>
        <time>2021-05-22T06:47:23Z</time>
      </trkpt>
      <trkpt lat="48.68876" lon="2.17927">
        <ele>152.51</ele>
        <time>2021-05-22T06:47:24Z</time>
      </trkpt>
      <trkpt lat="48.68889" lon="2.17916">
        <ele>153.95</ele>
        <time>2021-05-22T06:47:38Z</time>
      </trkpt>
      <trkpt lat="48.68911" lon="2.17902">
        <ele>153.95</ele>
        <time>2021-05-22T06:47:50Z</time>
      </trkpt>
      <trkpt lat="48.68926" lon="2.17893">
        <ele>154.43</ele>
        <time>2021-05-22T06:48:02Z</time>
      </trkpt>
      <trkpt lat="48.68944" lon="2.17875">
        <ele>154.43</ele>
        <time>2021-05-22T06:48:13Z</time>
      </trkpt>
      <trkpt lat="48.68955" lon="2.17865">
        <ele>153.95</ele>
        <time>2021-05-22T06:48:23Z</time>
      </trkpt>
      <trkpt lat="48.68971" lon="2.17842">
        <ele>152.51</ele>
        <time>2021-05-22T06:48:34Z</time>
      </trkpt>
      <trkpt lat="48.69002" lon="2.17809">
        <ele>150.58</ele>
        <time>2021-05-22T06:48:48Z</time>
      </trkpt>
      <trkpt lat="48.69025" lon="2.17827">
        <ele>147.22</ele>
        <time>2021-05-22T06:48:56Z</time>
      </trkpt>
      <trkpt lat="48.69028" lon="2.17829">
        <ele>147.22</ele>
        <time>2021-05-22T06:48:57Z</time>
      </trkpt>
      <trkpt lat="48.69045" lon="2.17837">
        <ele>143.85</ele>
        <time>2021-05-22T06:49:02Z</time>
      </trkpt>
      <trkpt lat="48.69053" lon="2.17839">
        <ele>142.89</ele>
        <time>2021-05-22T06:49:05Z</time>
      </trkpt>
      <trkpt lat="48.69061" lon="2.17843">
        <ele>141.45</ele>
        <time>2021-05-22T06:49:08Z</time>
      </trkpt>
      <trkpt lat="48.6907" lon="2.17861">
        <ele>138.09</ele>
        <time>2021-05-22T06:49:14Z</time>
      </trkpt>
      <trkpt lat="48.69073" lon="2.17879">
        <ele>136.16</ele>
        <time>2021-05-22T06:49:18Z</time>
      </trkpt>
      <trkpt lat="48.69077" lon="2.179">
        <ele>132.8</ele>
        <time>2021-05-22T06:49:23Z</time>
      </trkpt>
      <trkpt lat="48.69081" lon="2.17919">
        <ele>130.4</ele>
        <time>2021-05-22T06:49:28Z</time>
      </trkpt>
      <trkpt lat="48.69083" lon="2.17928">
        <ele>128.95</ele>
        <time>2021-05-22T06:49:30Z</time>
      </trkpt>
      <trkpt lat="48.6909" lon="2.17952">
        <ele>126.07</ele>
        <time>2021-05-22T06:49:36Z</time>
      </trkpt>
      <trkpt lat="48.69091" lon="2.17957">
        <ele>125.59</ele>
        <time>2021-05-22T06:49:37Z</time>
      </trkpt>
      <trkpt lat="48.69093" lon="2.17963">
        <ele>124.63</ele>
        <time>2021-05-22T06:49:39Z</time>
      </trkpt>
      <trkpt lat="48.69097" lon="2.17968">
        <ele>123.19</ele>
        <time>2021-05-22T06:49:41Z</time>
      </trkpt>
      <trkpt lat="48.69099" lon="2.1797">
        <ele>122.71</ele>
        <time>2021-05-22T06:49:42Z</time>
      </trkpt>
      <trkpt lat="48.69102" lon="2.17971">
        <ele>122.71</ele>
        <time>2021-05-22T06:49:43Z</time>
      </trkpt>
      <trkpt lat="48.69105" lon="2.17972">
        <ele>122.71</ele>
        <time>2021-05-22T06:49:44Z</time>
      </trkpt>
      <trkpt lat="48.69108" lon="2.17972">
        <ele>121.74</ele>
        <time>2021-05-22T06:49:45Z</time>
      </trkpt>
      <trkpt lat="48.69132" lon="2.1798">
        <ele>118.38</ele>
        <time>2021-05-22T06:49:54Z</time>
      </trkpt>
      <trkpt lat="48.69152" lon="2.17988">
        <ele>115.01</ele>
        <time>2021-05-22T06:50:03Z</time>
      </trkpt>
      <trkpt lat="48.69155" lon="2.1799">
        <ele>115.01</ele>
        <time>2021-05-22T06:50:04Z</time>
      </trkpt>
      <trkpt lat="48.69162" lon="2.17996">
        <ele>113.57</ele>
        <time>2021-05-22T06:50:07Z</time>
      </trkpt>
      <trkpt lat="48.69172" lon="2.18014">
        <ele>111.65</ele>
        <time>2021-05-22T06:50:12Z</time>
      </trkpt>
      <trkpt lat="48.69178" lon="2.18054">
        <ele>108.29</ele>
        <time>2021-05-22T06:50:21Z</time>
      </trkpt>
      <trkpt lat="48.69181" lon="2.18095">
        <ele>106.36</ele>
        <time>2021-05-22T06:50:31Z</time>
      </trkpt>
      <trkpt lat="48.69199" lon="2.1813">
        <ele>104.44</ele>
        <time>2021-05-22T06:50:42Z</time>
      </trkpt>
      <trkpt lat="48.69202" lon="2.18137">
        <ele>103.96</ele>
        <time>2021-05-22T06:50:44Z</time>
      </trkpt>
      <trkpt lat="48.69203" lon="2.18141">
        <ele>103</ele>
        <time>2021-05-22T06:50:45Z</time>
      </trkpt>
      <trkpt lat="48.69207" lon="2.18162">
        <ele>100.6</ele>
        <time>2021-05-22T06:50:51Z</time>
      </trkpt>
      <trkpt lat="48.69207" lon="2.1817">
        <ele>100.11</ele>
        <time>2021-05-22T06:50:53Z</time>
      </trkpt>
      <trkpt lat="48.69206" lon="2.18173">
        <ele>99.63</ele>
        <time>2021-05-22T06:50:54Z</time>
      </trkpt>
      <trkpt lat="48.69205" lon="2.18177">
        <ele>100.11</ele>
        <time>2021-05-22T06:50:55Z</time>
      </trkpt>
      <trkpt lat="48.69199" lon="2.18196">
        <ele>100.6</ele>
        <time>2021-05-22T06:51:04Z</time>
      </trkpt>
      <trkpt lat="48.69198" lon="2.18198">
        <ele>100.6</ele>
        <time>2021-05-22T06:51:05Z</time>
      </trkpt>
      <trkpt lat="48.69183" lon="2.18224">
        <ele>102.52</ele>
        <time>2021-05-22T06:51:20Z</time>
      </trkpt>
      <trkpt lat="48.69181" lon="2.18229">
        <ele>102.04</ele>
        <time>2021-05-22T06:51:23Z</time>
      </trkpt>
      <trkpt lat="48.69181" lon="2.1825">
        <ele>103.48</ele>
        <time>2021-05-22T06:51:34Z</time>
      </trkpt>
      <trkpt lat="48.69181" lon="2.18252">
        <ele>103.96</ele>
        <time>2021-05-22T06:51:35Z</time>
      </trkpt>
      <trkpt lat="48.6918" lon="2.18253">
        <ele>103.48</ele>
        <time>2021-05-22T06:51:36Z</time>
      </trkpt>
      <trkpt lat="48.69179" lon="2.18254">
        <ele>103.48</ele>
        <time>2021-05-22T06:51:37Z</time>
      </trkpt>
      <trkpt lat="48.6917" lon="2.18255">
        <ele>105.88</ele>
        <time>2021-05-22T06:51:49Z</time>
      </trkpt>
      <trkpt lat="48.69164" lon="2.18256">
        <ele>108.77</ele>
        <time>2021-05-22T06:51:59Z</time>
      </trkpt>
      <trkpt lat="48.69158" lon="2.18254">
        <ele>109.25</ele>
        <time>2021-05-22T06:52:04Z</time>
      </trkpt>
      <trkpt lat="48.69142" lon="2.18256">
        <ele>111.65</ele>
        <time>2021-05-22T06:52:16Z</time>
      </trkpt>
      <trkpt lat="48.69138" lon="2.18265">
        <ele>115.5</ele>
        <time>2021-05-22T06:52:27Z</time>
      </trkpt>
      <trkpt lat="48.69142" lon="2.18271">
        <ele>116.94</ele>
        <time>2021-05-22T06:52:30Z</time>
      </trkpt>
      <trkpt lat="48.69146" lon="2.18285">
        <ele>120.3</ele>
        <time>2021-05-22T06:52:44Z</time>
      </trkpt>
      <trkpt lat="48.69149" lon="2.18303">
        <ele>123.19</ele>
        <time>2021-05-22T06:52:56Z</time>
      </trkpt>
      <trkpt lat="48.69149" lon="2.1832">
        <ele>125.59</ele>
        <time>2021-05-22T06:53:09Z</time>
      </trkpt>
      <trkpt lat="48.69146" lon="2.1834">
        <ele>128.95</ele>
        <time>2021-05-22T06:53:24Z</time>
      </trkpt>
      <trkpt lat="48.69144" lon="2.18348">
        <ele>131.84</ele>
        <time>2021-05-22T06:53:35Z</time>
      </trkpt>
      <trkpt lat="48.69143" lon="2.18347">
        <ele>132.32</ele>
        <time>2021-05-22T06:53:36Z</time>
      </trkpt>
      <trkpt lat="48.6914" lon="2.18341">
        <ele>133.76</ele>
        <time>2021-05-22T06:53:41Z</time>
      </trkpt>
      <trkpt lat="48.69128" lon="2.18339">
        <ele>136.64</ele>
        <time>2021-05-22T06:53:57Z</time>
      </trkpt>
      <trkpt lat="48.69116" lon="2.18349">
        <ele>139.05</ele>
        <time>2021-05-22T06:54:13Z</time>
      </trkpt>
      <trkpt lat="48.69116" lon="2.18354">
        <ele>140.49</ele>
        <time>2021-05-22T06:54:18Z</time>
      </trkpt>
      <trkpt lat="48.69116" lon="2.18358">
        <ele>142.41</ele>
        <time>2021-05-22T06:54:21Z</time>
      </trkpt>
      <trkpt lat="48.69115" lon="2.18378">
        <ele>145.78</ele>
        <time>2021-05-22T06:54:33Z</time>
      </trkpt>
      <trkpt lat="48.69117" lon="2.1839">
        <ele>145.78</ele>
        <time>2021-05-22T06:54:47Z</time>
      </trkpt>
      <trkpt lat="48.69114" lon="2.18391">
        <ele>146.26</ele>
        <time>2021-05-22T06:55:08Z</time>
      </trkpt>
      <trkpt lat="48.69115" lon="2.18409">
        <ele>147.7</ele>
        <time>2021-05-22T06:55:19Z</time>
      </trkpt>
      <trkpt lat="48.69112" lon="2.18418">
        <ele>148.18</ele>
        <time>2021-05-22T06:55:23Z</time>
      </trkpt>
      <trkpt lat="48.69112" lon="2.18438">
        <ele>150.58</ele>
        <time>2021-05-22T06:55:35Z</time>
      </trkpt>
      <trkpt lat="48.6911" lon="2.18444">
        <ele>150.1</ele>
        <time>2021-05-22T06:55:38Z</time>
      </trkpt>
      <trkpt lat="48.69108" lon="2.18448">
        <ele>151.54</ele>
        <time>2021-05-22T06:55:40Z</time>
      </trkpt>
      <trkpt lat="48.69104" lon="2.1847">
        <ele>151.06</ele>
        <time>2021-05-22T06:55:54Z</time>
      </trkpt>
      <trkpt lat="48.69105" lon="2.18469">
        <ele>151.06</ele>
        <time>2021-05-22T06:55:58Z</time>
      </trkpt>
      <trkpt lat="48.69106" lon="2.18468">
        <ele>150.58</ele>
        <time>2021-05-22T06:56:01Z</time>
      </trkpt>
      <trkpt lat="48.69108" lon="2.18465">
        <ele>149.62</ele>
        <time>2021-05-22T06:56:03Z</time>
      </trkpt>
      <trkpt lat="48.69112" lon="2.18463">
        <ele>148.66</ele>
        <time>2021-05-22T06:56:07Z</time>
      </trkpt>
      <trkpt lat="48.69117" lon="2.18459">
        <ele>146.26</ele>
        <time>2021-05-22T06:56:11Z</time>
      </trkpt>
      <trkpt lat="48.6912" lon="2.18459">
        <ele>144.82</ele>
        <time>2021-05-22T06:56:13Z</time>
      </trkpt>
      <trkpt lat="48.6913" lon="2.18458">
        <ele>141.45</ele>
        <time>2021-05-22T06:56:19Z</time>
      </trkpt>
      <trkpt lat="48.69139" lon="2.18456">
        <ele>138.57</ele>
        <time>2021-05-22T06:56:23Z</time>
      </trkpt>
      <trkpt lat="48.69149" lon="2.18452">
        <ele>135.2</ele>
        <time>2021-05-22T06:56:27Z</time>
      </trkpt>
      <trkpt lat="48.69157" lon="2.1845">
        <ele>133.76</ele>
        <time>2021-05-22T06:56:30Z</time>
      </trkpt>
      <trkpt lat="48.69168" lon="2.18447">
        <ele>130.4</ele>
        <time>2021-05-22T06:56:34Z</time>
      </trkpt>
      <trkpt lat="48.69183" lon="2.18445">
        <ele>127.51</ele>
        <time>2021-05-22T06:56:39Z</time>
      </trkpt>
      <trkpt lat="48.69209" lon="2.18445">
        <ele>124.63</ele>
        <time>2021-05-22T06:56:48Z</time>
      </trkpt>
      <trkpt lat="48.69255" lon="2.18437">
        <ele>121.74</ele>
        <time>2021-05-22T06:57:05Z</time>
      </trkpt>
      <trkpt lat="48.69261" lon="2.18434">
        <ele>120.78</ele>
        <time>2021-05-22T06:57:07Z</time>
      </trkpt>
      <trkpt lat="48.69276" lon="2.18427">
        <ele>118.38</ele>
        <time>2021-05-22T06:57:13Z</time>
      </trkpt>
      <trkpt lat="48.69298" lon="2.1843">
        <ele>115.01</ele>
        <time>2021-05-22T06:57:21Z</time>
      </trkpt>
      <trkpt lat="48.69311" lon="2.18457">
        <ele>111.65</ele>
        <time>2021-05-22T06:57:28Z</time>
      </trkpt>
      <trkpt lat="48.69315" lon="2.18476">
        <ele>112.13</ele>
        <time>2021-05-22T06:57:35Z</time>
      </trkpt>
      <trkpt lat="48.6931" lon="2.18491">
        <ele>111.65</ele>
        <time>2021-05-22T06:57:44Z</time>
      </trkpt>
      <trkpt lat="48.69309" lon="2.18493">
        <ele>111.65</ele>
        <time>2021-05-22T06:57:45Z</time>
      </trkpt>
      <trkpt lat="48.69309" lon="2.18502">
        <ele>112.13</ele>
        <time>2021-05-22T06:57:50Z</time>
      </trkpt>
      <trkpt lat="48.69307" lon="2.18508">
        <ele>112.61</ele>
        <time>2021-05-22T06:57:53Z</time>
      </trkpt>
      <trkpt lat="48.69299" lon="2.18527">
        <ele>112.61</ele>
        <time>2021-05-22T06:58:03Z</time>
      </trkpt>
      <trkpt lat="48.69299" lon="2.18529">
        <ele>112.61</ele>
        <time>2021-05-22T06:58:04Z</time>
      </trkpt>
      <trkpt lat="48.69299" lon="2.18532">
        <ele>112.61</ele>
        <time>2021-05-22T06:58:05Z</time>
      </trkpt>
      <trkpt lat="48.69301" lon="2.18551">
        <ele>111.17</ele>
        <time>2021-05-22T06:58:14Z</time>
      </trkpt>
      <trkpt lat="48.69301" lon="2.18553">
        <ele>111.17</ele>
        <time>2021-05-22T06:58:15Z</time>
      </trkpt>
      <trkpt lat="48.69301" lon="2.18556">
        <ele>112.13</ele>
        <time>2021-05-22T06:58:16Z</time>
      </trkpt>
      <trkpt lat="48.69305" lon="2.18584">
        <ele>111.17</ele>
        <time>2021-05-22T06:58:27Z</time>
      </trkpt>
      <trkpt lat="48.69305" lon="2.18588">
        <ele>111.17</ele>
        <time>2021-05-22T06:58:29Z</time>
      </trkpt>
      <trkpt lat="48.69307" lon="2.18601">
        <ele>111.17</ele>
        <time>2021-05-22T06:58:36Z</time>
      </trkpt>
      <trkpt lat="48.69307" lon="2.18605">
        <ele>110.69</ele>
        <time>2021-05-22T06:58:38Z</time>
      </trkpt>
      <trkpt lat="48.69306" lon="2.18608">
        <ele>111.17</ele>
        <time>2021-05-22T06:58:39Z</time>
      </trkpt>
      <trkpt lat="48.69306" lon="2.1861">
        <ele>111.17</ele>
        <time>2021-05-22T06:58:40Z</time>
      </trkpt>
      <trkpt lat="48.69312" lon="2.18641">
        <ele>110.69</ele>
        <time>2021-05-22T06:58:55Z</time>
      </trkpt>
      <trkpt lat="48.69324" lon="2.18671">
        <ele>110.69</ele>
        <time>2021-05-22T06:59:08Z</time>
      </trkpt>
      <trkpt lat="48.69328" lon="2.18685">
        <ele>110.69</ele>
        <time>2021-05-22T06:59:16Z</time>
      </trkpt>
      <trkpt lat="48.69328" lon="2.18688">
        <ele>111.17</ele>
        <time>2021-05-22T06:59:17Z</time>
      </trkpt>
      <trkpt lat="48.69328" lon="2.1869">
        <ele>110.69</ele>
        <time>2021-05-22T06:59:18Z</time>
      </trkpt>
      <trkpt lat="48.69327" lon="2.18716">
        <ele>111.17</ele>
        <time>2021-05-22T06:59:30Z</time>
      </trkpt>
      <trkpt lat="48.69326" lon="2.18725">
        <ele>111.17</ele>
        <time>2021-05-22T06:59:34Z</time>
      </trkpt>
      <trkpt lat="48.69322" lon="2.18748">
        <ele>111.17</ele>
        <time>2021-05-22T06:59:45Z</time>
      </trkpt>
      <trkpt lat="48.69323" lon="2.1878">
        <ele>112.13</ele>
        <time>2021-05-22T07:00:00Z</time>
      </trkpt>
      <trkpt lat="48.69332" lon="2.18813">
        <ele>112.13</ele>
        <time>2021-05-22T07:00:13Z</time>
      </trkpt>
      <trkpt lat="48.69347" lon="2.18851">
        <ele>112.61</ele>
        <time>2021-05-22T07:00:29Z</time>
      </trkpt>
      <trkpt lat="48.69361" lon="2.18873">
        <ele>113.09</ele>
        <time>2021-05-22T07:00:40Z</time>
      </trkpt>
      <trkpt lat="48.69375" lon="2.18894">
        <ele>112.13</ele>
        <time>2021-05-22T07:00:54Z</time>
      </trkpt>
      <trkpt lat="48.69377" lon="2.1891">
        <ele>110.69</ele>
        <time>2021-05-22T07:01:02Z</time>
      </trkpt>
      <trkpt lat="48.69372" lon="2.18939">
        <ele>111.17</ele>
        <time>2021-05-22T07:01:14Z</time>
      </trkpt>
      <trkpt lat="48.69371" lon="2.18965">
        <ele>109.25</ele>
        <time>2021-05-22T07:01:28Z</time>
      </trkpt>
      <trkpt lat="48.69377" lon="2.18984">
        <ele>109.25</ele>
        <time>2021-05-22T07:01:37Z</time>
      </trkpt>
      <trkpt lat="48.69377" lon="2.1899">
        <ele>108.29</ele>
        <time>2021-05-22T07:01:39Z</time>
      </trkpt>
      <trkpt lat="48.6938" lon="2.19009">
        <ele>107.32</ele>
        <time>2021-05-22T07:01:46Z</time>
      </trkpt>
      <trkpt lat="48.69389" lon="2.19025">
        <ele>105.88</ele>
        <time>2021-05-22T07:01:54Z</time>
      </trkpt>
      <trkpt lat="48.69396" lon="2.19038">
        <ele>104.92</ele>
        <time>2021-05-22T07:01:58Z</time>
      </trkpt>
      <trkpt lat="48.694" lon="2.19048">
        <ele>104.44</ele>
        <time>2021-05-22T07:02:05Z</time>
      </trkpt>
      <trkpt lat="48.69402" lon="2.19055">
        <ele>103.96</ele>
        <time>2021-05-22T07:02:09Z</time>
      </trkpt>
      <trkpt lat="48.69407" lon="2.19073">
        <ele>103</ele>
        <time>2021-05-22T07:02:19Z</time>
      </trkpt>
      <trkpt lat="48.69395" lon="2.191">
        <ele>104.44</ele>
        <time>2021-05-22T07:02:32Z</time>
      </trkpt>
      <trkpt lat="48.69397" lon="2.191">
        <ele>103.96</ele>
        <time>2021-05-22T07:02:34Z</time>
      </trkpt>
      <trkpt lat="48.69401" lon="2.19099">
        <ele>103.48</ele>
        <time>2021-05-22T07:02:38Z</time>
      </trkpt>
      <trkpt lat="48.6941" lon="2.191">
        <ele>102.04</ele>
        <time>2021-05-22T07:02:44Z</time>
      </trkpt>
      <trkpt lat="48.69442" lon="2.19112">
        <ele>99.63</ele>
        <time>2021-05-22T07:02:59Z</time>
      </trkpt>
      <trkpt lat="48.69461" lon="2.19133">
        <ele>97.71</ele>
        <time>2021-05-22T07:03:10Z</time>
      </trkpt>
      <trkpt lat="48.69482" lon="2.19165">
        <ele>96.75</ele>
        <time>2021-05-22T07:03:22Z</time>
      </trkpt>
      <trkpt lat="48.69519" lon="2.19204">
        <ele>93.39</ele>
        <time>2021-05-22T07:03:37Z</time>
      </trkpt>
      <trkpt lat="48.6955" lon="2.1921">
        <ele>90.02</ele>
        <time>2021-05-22T07:03:48Z</time>
      </trkpt>
      <trkpt lat="48.69598" lon="2.192">
        <ele>88.58</ele>
        <time>2021-05-22T07:04:05Z</time>
      </trkpt>
      <trkpt lat="48.69626" lon="2.19206">
        <ele>88.58</ele>
        <time>2021-05-22T07:04:15Z</time>
      </trkpt>
      <trkpt lat="48.69626" lon="2.19267">
        <ele>88.58</ele>
        <time>2021-05-22T07:04:32Z</time>
      </trkpt>
      <trkpt lat="48.69624" lon="2.19268">
        <ele>88.1</ele>
        <time>2021-05-22T07:04:35Z</time>
      </trkpt>
      <trkpt lat="48.69624" lon="2.19269">
        <ele>88.1</ele>
        <time>2021-05-22T07:04:36Z</time>
      </trkpt>
      <trkpt lat="48.69624" lon="2.19271">
        <ele>88.1</ele>
        <time>2021-05-22T07:04:37Z</time>
      </trkpt>
      <trkpt lat="48.69622" lon="2.19274">
        <ele>88.1</ele>
        <time>2021-05-22T07:04:39Z</time>
      </trkpt>
      <trkpt lat="48.6962" lon="2.19275">
        <ele>88.1</ele>
        <time>2021-05-22T07:04:40Z</time>
      </trkpt>
      <trkpt lat="48.69601" lon="2.19272">
        <ele>88.1</ele>
        <time>2021-05-22T07:04:54Z</time>
      </trkpt>
      <trkpt lat="48.69579" lon="2.1928">
        <ele>88.58</ele>
        <time>2021-05-22T07:05:08Z</time>
      </trkpt>
      <trkpt lat="48.69568" lon="2.19284">
        <ele>89.06</ele>
        <time>2021-05-22T07:05:16Z</time>
      </trkpt>
      <trkpt lat="48.6956" lon="2.19283">
        <ele>89.54</ele>
        <time>2021-05-22T07:05:23Z</time>
      </trkpt>
      <trkpt lat="48.69558" lon="2.19283">
        <ele>89.54</ele>
        <time>2021-05-22T07:05:24Z</time>
      </trkpt>
      <trkpt lat="48.69556" lon="2.19283">
        <ele>89.54</ele>
        <time>2021-05-22T07:05:25Z</time>
      </trkpt>
      <trkpt lat="48.69553" lon="2.19283">
        <ele>89.54</ele>
        <time>2021-05-22T07:05:26Z</time>
      </trkpt>
      <trkpt lat="48.69551" lon="2.19284">
        <ele>90.02</ele>
        <time>2021-05-22T07:05:27Z</time>
      </trkpt>
      <trkpt lat="48.69549" lon="2.19284">
        <ele>90.02</ele>
        <time>2021-05-22T07:05:28Z</time>
      </trkpt>
      <trkpt lat="48.69547" lon="2.19285">
        <ele>90.02</ele>
        <time>2021-05-22T07:05:29Z</time>
      </trkpt>
      <trkpt lat="48.69545" lon="2.19285">
        <ele>89.54</ele>
        <time>2021-05-22T07:05:30Z</time>
      </trkpt>
      <trkpt lat="48.69522" lon="2.19288">
        <ele>90.5</ele>
        <time>2021-05-22T07:05:44Z</time>
      </trkpt>
      <trkpt lat="48.695" lon="2.19292">
        <ele>92.9</ele>
        <time>2021-05-22T07:06:00Z</time>
      </trkpt>
      <trkpt lat="48.69482" lon="2.193">
        <ele>94.35</ele>
        <time>2021-05-22T07:06:15Z</time>
      </trkpt>
      <trkpt lat="48.69481" lon="2.19301">
        <ele>94.35</ele>
        <time>2021-05-22T07:06:16Z</time>
      </trkpt>
      <trkpt lat="48.69479" lon="2.19308">
        <ele>94.83</ele>
        <time>2021-05-22T07:06:19Z</time>
      </trkpt>
      <trkpt lat="48.69479" lon="2.19315">
        <ele>94.83</ele>
        <time>2021-05-22T07:06:22Z</time>
      </trkpt>
      <trkpt lat="48.69479" lon="2.19341">
        <ele>94.35</ele>
        <time>2021-05-22T07:06:35Z</time>
      </trkpt>
      <trkpt lat="48.69478" lon="2.19346">
        <ele>94.35</ele>
        <time>2021-05-22T07:06:36Z</time>
      </trkpt>
      <trkpt lat="48.69481" lon="2.19359">
        <ele>93.87</ele>
        <time>2021-05-22T07:06:41Z</time>
      </trkpt>
      <trkpt lat="48.69484" lon="2.19372">
        <ele>93.87</ele>
        <time>2021-05-22T07:06:48Z</time>
      </trkpt>
      <trkpt lat="48.69484" lon="2.19383">
        <ele>93.39</ele>
        <time>2021-05-22T07:06:52Z</time>
      </trkpt>
      <trkpt lat="48.69483" lon="2.19386">
        <ele>93.39</ele>
        <time>2021-05-22T07:06:53Z</time>
      </trkpt>
      <trkpt lat="48.69481" lon="2.19388">
        <ele>92.9</ele>
        <time>2021-05-22T07:06:54Z</time>
      </trkpt>
      <trkpt lat="48.69481" lon="2.1939">
        <ele>93.39</ele>
        <time>2021-05-22T07:06:55Z</time>
      </trkpt>
      <trkpt lat="48.69481" lon="2.19392">
        <ele>93.39</ele>
        <time>2021-05-22T07:06:56Z</time>
      </trkpt>
      <trkpt lat="48.69479" lon="2.19408">
        <ele>94.35</ele>
        <time>2021-05-22T07:07:06Z</time>
      </trkpt>
      <trkpt lat="48.69478" lon="2.1941">
        <ele>93.87</ele>
        <time>2021-05-22T07:07:07Z</time>
      </trkpt>
      <trkpt lat="48.69476" lon="2.19411">
        <ele>93.87</ele>
        <time>2021-05-22T07:07:08Z</time>
      </trkpt>
      <trkpt lat="48.69462" lon="2.19436">
        <ele>96.27</ele>
        <time>2021-05-22T07:07:23Z</time>
      </trkpt>
      <trkpt lat="48.69462" lon="2.19439">
        <ele>96.75</ele>
        <time>2021-05-22T07:07:24Z</time>
      </trkpt>
      <trkpt lat="48.69463" lon="2.19467">
        <ele>98.19</ele>
        <time>2021-05-22T07:07:38Z</time>
      </trkpt>
      <trkpt lat="48.69463" lon="2.19469">
        <ele>98.19</ele>
        <time>2021-05-22T07:07:39Z</time>
      </trkpt>
      <trkpt lat="48.69458" lon="2.19488">
        <ele>101.08</ele>
        <time>2021-05-22T07:07:49Z</time>
      </trkpt>
      <trkpt lat="48.69457" lon="2.19505">
        <ele>104.44</ele>
        <time>2021-05-22T07:08:00Z</time>
      </trkpt>
      <trkpt lat="48.69456" lon="2.19515">
        <ele>106.36</ele>
        <time>2021-05-22T07:08:06Z</time>
      </trkpt>
      <trkpt lat="48.69456" lon="2.19517">
        <ele>105.88</ele>
        <time>2021-05-22T07:08:07Z</time>
      </trkpt>
      <trkpt lat="48.69456" lon="2.1952">
        <ele>106.84</ele>
        <time>2021-05-22T07:08:08Z</time>
      </trkpt>
      <trkpt lat="48.69452" lon="2.19542">
        <ele>109.25</ele>
        <time>2021-05-22T07:08:21Z</time>
      </trkpt>
      <trkpt lat="48.69436" lon="2.1956">
        <ele>108.29</ele>
        <time>2021-05-22T07:08:37Z</time>
      </trkpt>
      <trkpt lat="48.69424" lon="2.1956">
        <ele>108.77</ele>
        <time>2021-05-22T07:08:42Z</time>
      </trkpt>
      <trkpt lat="48.69407" lon="2.19557">
        <ele>109.25</ele>
        <time>2021-05-22T07:08:55Z</time>
      </trkpt>
      <trkpt lat="48.69405" lon="2.19557">
        <ele>108.77</ele>
        <time>2021-05-22T07:08:56Z</time>
      </trkpt>
      <trkpt lat="48.69391" lon="2.19557">
        <ele>105.88</ele>
        <time>2021-05-22T07:09:07Z</time>
      </trkpt>
      <trkpt lat="48.69382" lon="2.19555">
        <ele>106.84</ele>
        <time>2021-05-22T07:09:14Z</time>
      </trkpt>
      <trkpt lat="48.69381" lon="2.19554">
        <ele>107.32</ele>
        <time>2021-05-22T07:09:15Z</time>
      </trkpt>
      <trkpt lat="48.69379" lon="2.19552">
        <ele>107.32</ele>
        <time>2021-05-22T07:09:16Z</time>
      </trkpt>
      <trkpt lat="48.69373" lon="2.19549">
        <ele>108.77</ele>
        <time>2021-05-22T07:09:21Z</time>
      </trkpt>
      <trkpt lat="48.6935" lon="2.19553">
        <ele>109.73</ele>
        <time>2021-05-22T07:09:35Z</time>
      </trkpt>
      <trkpt lat="48.69347" lon="2.19554">
        <ele>111.17</ele>
        <time>2021-05-22T07:09:50Z</time>
      </trkpt>
      <trkpt lat="48.69349" lon="2.19552">
        <ele>110.69</ele>
        <time>2021-05-22T07:10:19Z</time>
      </trkpt>
      <trkpt lat="48.69346" lon="2.19547">
        <ele>111.17</ele>
        <time>2021-05-22T07:10:55Z</time>
      </trkpt>
      <trkpt lat="48.69343" lon="2.19556">
        <ele>112.13</ele>
        <time>2021-05-22T07:11:19Z</time>
      </trkpt>
      <trkpt lat="48.69335" lon="2.19554">
        <ele>112.61</ele>
        <time>2021-05-22T07:11:26Z</time>
      </trkpt>
      <trkpt lat="48.69326" lon="2.19538">
        <ele>115.98</ele>
        <time>2021-05-22T07:11:37Z</time>
      </trkpt>
      <trkpt lat="48.69319" lon="2.19519">
        <ele>118.38</ele>
        <time>2021-05-22T07:11:51Z</time>
      </trkpt>
      <trkpt lat="48.69307" lon="2.19496">
        <ele>120.3</ele>
        <time>2021-05-22T07:12:05Z</time>
      </trkpt>
      <trkpt lat="48.69303" lon="2.19484">
        <ele>121.74</ele>
        <time>2021-05-22T07:12:13Z</time>
      </trkpt>
      <trkpt lat="48.69293" lon="2.19453">
        <ele>124.63</ele>
        <time>2021-05-22T07:12:28Z</time>
      </trkpt>
      <trkpt lat="48.69292" lon="2.19443">
        <ele>126.55</ele>
        <time>2021-05-22T07:12:35Z</time>
      </trkpt>
      <trkpt lat="48.6929" lon="2.19423">
        <ele>128.47</ele>
        <time>2021-05-22T07:12:49Z</time>
      </trkpt>
      <trkpt lat="48.69288" lon="2.19414">
        <ele>128.95</ele>
        <time>2021-05-22T07:12:53Z</time>
      </trkpt>
      <trkpt lat="48.69279" lon="2.19392">
        <ele>131.36</ele>
        <time>2021-05-22T07:13:04Z</time>
      </trkpt>
      <trkpt lat="48.69275" lon="2.19375">
        <ele>134.24</ele>
        <time>2021-05-22T07:13:17Z</time>
      </trkpt>
      <trkpt lat="48.69276" lon="2.19363">
        <ele>137.13</ele>
        <time>2021-05-22T07:13:27Z</time>
      </trkpt>
      <trkpt lat="48.6927" lon="2.19344">
        <ele>139.53</ele>
        <time>2021-05-22T07:13:35Z</time>
      </trkpt>
      <trkpt lat="48.69261" lon="2.19352">
        <ele>141.93</ele>
        <time>2021-05-22T07:13:47Z</time>
      </trkpt>
      <trkpt lat="48.69261" lon="2.19353">
        <ele>142.41</ele>
        <time>2021-05-22T07:13:48Z</time>
      </trkpt>
      <trkpt lat="48.6926" lon="2.19356">
        <ele>143.85</ele>
        <time>2021-05-22T07:13:52Z</time>
      </trkpt>
      <trkpt lat="48.69258" lon="2.19357">
        <ele>144.34</ele>
        <time>2021-05-22T07:13:54Z</time>
      </trkpt>
      <trkpt lat="48.69246" lon="2.19353">
        <ele>147.22</ele>
        <time>2021-05-22T07:14:07Z</time>
      </trkpt>
      <trkpt lat="48.6924" lon="2.19357">
        <ele>150.1</ele>
        <time>2021-05-22T07:14:14Z</time>
      </trkpt>
      <trkpt lat="48.69239" lon="2.1936">
        <ele>150.58</ele>
        <time>2021-05-22T07:14:17Z</time>
      </trkpt>
      <trkpt lat="48.69238" lon="2.19368">
        <ele>152.51</ele>
        <time>2021-05-22T07:14:21Z</time>
      </trkpt>
      <trkpt lat="48.6924" lon="2.19378">
        <ele>152.51</ele>
        <time>2021-05-22T07:14:25Z</time>
      </trkpt>
      <trkpt lat="48.6924" lon="2.19381">
        <ele>152.51</ele>
        <time>2021-05-22T07:14:26Z</time>
      </trkpt>
      <trkpt lat="48.69241" lon="2.19383">
        <ele>152.99</ele>
        <time>2021-05-22T07:14:27Z</time>
      </trkpt>
      <trkpt lat="48.69243" lon="2.19403">
        <ele>153.47</ele>
        <time>2021-05-22T07:14:37Z</time>
      </trkpt>
      <trkpt lat="48.69241" lon="2.19408">
        <ele>153.95</ele>
        <time>2021-05-22T07:14:40Z</time>
      </trkpt>
      <trkpt lat="48.69239" lon="2.19428">
        <ele>154.91</ele>
        <time>2021-05-22T07:14:52Z</time>
      </trkpt>
      <trkpt lat="48.69239" lon="2.19433">
        <ele>154.91</ele>
        <time>2021-05-22T07:14:54Z</time>
      </trkpt>
      <trkpt lat="48.69239" lon="2.19435">
        <ele>154.91</ele>
        <time>2021-05-22T07:14:55Z</time>
      </trkpt>
      <trkpt lat="48.6924" lon="2.19451">
        <ele>154.91</ele>
        <time>2021-05-22T07:15:01Z</time>
      </trkpt>
      <trkpt lat="48.69242" lon="2.19454">
        <ele>155.39</ele>
        <time>2021-05-22T07:15:02Z</time>
      </trkpt>
      <trkpt lat="48.69244" lon="2.19456">
        <ele>155.39</ele>
        <time>2021-05-22T07:15:03Z</time>
      </trkpt>
      <trkpt lat="48.69245" lon="2.19478">
        <ele>154.43</ele>
        <time>2021-05-22T07:15:12Z</time>
      </trkpt>
      <trkpt lat="48.69245" lon="2.19499">
        <ele>154.91</ele>
        <time>2021-05-22T07:15:21Z</time>
      </trkpt>
      <trkpt lat="48.69246" lon="2.19513">
        <ele>151.54</ele>
        <time>2021-05-22T07:15:27Z</time>
      </trkpt>
      <trkpt lat="48.69246" lon="2.19515">
        <ele>156.35</ele>
        <time>2021-05-22T07:15:28Z</time>
      </trkpt>
      <trkpt lat="48.69247" lon="2.19521">
        <ele>153.47</ele>
        <time>2021-05-22T07:15:31Z</time>
      </trkpt>
      <trkpt lat="48.69254" lon="2.19552">
        <ele>154.43</ele>
        <time>2021-05-22T07:15:42Z</time>
      </trkpt>
      <trkpt lat="48.69255" lon="2.19554">
        <ele>154.43</ele>
        <time>2021-05-22T07:15:43Z</time>
      </trkpt>
      <trkpt lat="48.69259" lon="2.19582">
        <ele>155.39</ele>
        <time>2021-05-22T07:15:56Z</time>
      </trkpt>
      <trkpt lat="48.69267" lon="2.19607">
        <ele>154.43</ele>
        <time>2021-05-22T07:16:08Z</time>
      </trkpt>
      <trkpt lat="48.69268" lon="2.1961">
        <ele>154.43</ele>
        <time>2021-05-22T07:16:10Z</time>
      </trkpt>
      <trkpt lat="48.69272" lon="2.19637">
        <ele>152.99</ele>
        <time>2021-05-22T07:16:22Z</time>
      </trkpt>
      <trkpt lat="48.69273" lon="2.1964">
        <ele>152.51</ele>
        <time>2021-05-22T07:16:23Z</time>
      </trkpt>
      <trkpt lat="48.69273" lon="2.19642">
        <ele>152.51</ele>
        <time>2021-05-22T07:16:24Z</time>
      </trkpt>
      <trkpt lat="48.69279" lon="2.19676">
        <ele>151.54</ele>
        <time>2021-05-22T07:16:36Z</time>
      </trkpt>
      <trkpt lat="48.69289" lon="2.19708">
        <ele>149.62</ele>
        <time>2021-05-22T07:16:48Z</time>
      </trkpt>
      <trkpt lat="48.69296" lon="2.19737">
        <ele>148.66</ele>
        <time>2021-05-22T07:17:02Z</time>
      </trkpt>
      <trkpt lat="48.69305" lon="2.19769">
        <ele>148.18</ele>
        <time>2021-05-22T07:17:16Z</time>
      </trkpt>
      <trkpt lat="48.69305" lon="2.19796">
        <ele>149.14</ele>
        <time>2021-05-22T07:17:28Z</time>
      </trkpt>
      <trkpt lat="48.69305" lon="2.19799">
        <ele>149.14</ele>
        <time>2021-05-22T07:17:29Z</time>
      </trkpt>
      <trkpt lat="48.69304" lon="2.19801">
        <ele>148.18</ele>
        <time>2021-05-22T07:17:30Z</time>
      </trkpt>
      <trkpt lat="48.69304" lon="2.19804">
        <ele>148.18</ele>
        <time>2021-05-22T07:17:31Z</time>
      </trkpt>
      <trkpt lat="48.69304" lon="2.19806">
        <ele>148.66</ele>
        <time>2021-05-22T07:17:32Z</time>
      </trkpt>
      <trkpt lat="48.69303" lon="2.19834">
        <ele>149.14</ele>
        <time>2021-05-22T07:17:44Z</time>
      </trkpt>
      <trkpt lat="48.69302" lon="2.19836">
        <ele>148.66</ele>
        <time>2021-05-22T07:17:45Z</time>
      </trkpt>
      <trkpt lat="48.69301" lon="2.1984">
        <ele>149.14</ele>
        <time>2021-05-22T07:17:46Z</time>
      </trkpt>
      <trkpt lat="48.69301" lon="2.19843">
        <ele>149.14</ele>
        <time>2021-05-22T07:17:47Z</time>
      </trkpt>
      <trkpt lat="48.69301" lon="2.19846">
        <ele>149.14</ele>
        <time>2021-05-22T07:17:48Z</time>
      </trkpt>
      <trkpt lat="48.693" lon="2.19849">
        <ele>149.14</ele>
        <time>2021-05-22T07:17:49Z</time>
      </trkpt>
      <trkpt lat="48.69299" lon="2.19852">
        <ele>149.62</ele>
        <time>2021-05-22T07:17:50Z</time>
      </trkpt>
      <trkpt lat="48.69299" lon="2.19854">
        <ele>149.14</ele>
        <time>2021-05-22T07:17:51Z</time>
      </trkpt>
      <trkpt lat="48.69296" lon="2.19881">
        <ele>149.14</ele>
        <time>2021-05-22T07:18:02Z</time>
      </trkpt>
      <trkpt lat="48.69296" lon="2.19884">
        <ele>149.14</ele>
        <time>2021-05-22T07:18:03Z</time>
      </trkpt>
      <trkpt lat="48.69294" lon="2.19908">
        <ele>148.66</ele>
        <time>2021-05-22T07:18:14Z</time>
      </trkpt>
      <trkpt lat="48.69291" lon="2.19937">
        <ele>148.66</ele>
        <time>2021-05-22T07:18:25Z</time>
      </trkpt>
      <trkpt lat="48.69286" lon="2.1996">
        <ele>148.66</ele>
        <time>2021-05-22T07:18:35Z</time>
      </trkpt>
      <trkpt lat="48.69285" lon="2.19964">
        <ele>148.18</ele>
        <time>2021-05-22T07:18:37Z</time>
      </trkpt>
      <trkpt lat="48.69295" lon="2.19998">
        <ele>147.7</ele>
        <time>2021-05-22T07:18:49Z</time>
      </trkpt>
      <trkpt lat="48.69295" lon="2.2">
        <ele>147.7</ele>
        <time>2021-05-22T07:18:50Z</time>
      </trkpt>
      <trkpt lat="48.69295" lon="2.20003">
        <ele>147.7</ele>
        <time>2021-05-22T07:18:51Z</time>
      </trkpt>
      <trkpt lat="48.69295" lon="2.20005">
        <ele>147.7</ele>
        <time>2021-05-22T07:18:52Z</time>
      </trkpt>
      <trkpt lat="48.69295" lon="2.20007">
        <ele>147.22</ele>
        <time>2021-05-22T07:18:53Z</time>
      </trkpt>
      <trkpt lat="48.69295" lon="2.20009">
        <ele>147.22</ele>
        <time>2021-05-22T07:18:54Z</time>
      </trkpt>
      <trkpt lat="48.69296" lon="2.20039">
        <ele>147.22</ele>
        <time>2021-05-22T07:19:07Z</time>
      </trkpt>
      <trkpt lat="48.69295" lon="2.20041">
        <ele>147.7</ele>
        <time>2021-05-22T07:19:08Z</time>
      </trkpt>
      <trkpt lat="48.69295" lon="2.20054">
        <ele>147.7</ele>
        <time>2021-05-22T07:19:15Z</time>
      </trkpt>
      <trkpt lat="48.69294" lon="2.20058">
        <ele>148.18</ele>
        <time>2021-05-22T07:19:17Z</time>
      </trkpt>
      <trkpt lat="48.69293" lon="2.2006">
        <ele>148.18</ele>
        <time>2021-05-22T07:19:18Z</time>
      </trkpt>
      <trkpt lat="48.69292" lon="2.20063">
        <ele>147.7</ele>
        <time>2021-05-22T07:19:19Z</time>
      </trkpt>
      <trkpt lat="48.69292" lon="2.20066">
        <ele>148.18</ele>
        <time>2021-05-22T07:19:20Z</time>
      </trkpt>
      <trkpt lat="48.69293" lon="2.20069">
        <ele>147.7</ele>
        <time>2021-05-22T07:19:21Z</time>
      </trkpt>
      <trkpt lat="48.69295" lon="2.20072">
        <ele>147.7</ele>
        <time>2021-05-22T07:19:22Z</time>
      </trkpt>
      <trkpt lat="48.69296" lon="2.20075">
        <ele>147.7</ele>
        <time>2021-05-22T07:19:23Z</time>
      </trkpt>
      <trkpt lat="48.69297" lon="2.20077">
        <ele>147.7</ele>
        <time>2021-05-22T07:19:24Z</time>
      </trkpt>
      <trkpt lat="48.69298" lon="2.20079">
        <ele>147.7</ele>
        <time>2021-05-22T07:19:25Z</time>
      </trkpt>
      <trkpt lat="48.69299" lon="2.20085">
        <ele>148.18</ele>
        <time>2021-05-22T07:19:28Z</time>
      </trkpt>
      <trkpt lat="48.69299" lon="2.20088">
        <ele>148.18</ele>
        <time>2021-05-22T07:19:29Z</time>
      </trkpt>
      <trkpt lat="48.693" lon="2.20091">
        <ele>148.18</ele>
        <time>2021-05-22T07:19:30Z</time>
      </trkpt>
      <trkpt lat="48.693" lon="2.20093">
        <ele>147.7</ele>
        <time>2021-05-22T07:19:31Z</time>
      </trkpt>
      <trkpt lat="48.693" lon="2.20096">
        <ele>147.7</ele>
        <time>2021-05-22T07:19:32Z</time>
      </trkpt>
      <trkpt lat="48.693" lon="2.20099">
        <ele>147.7</ele>
        <time>2021-05-22T07:19:33Z</time>
      </trkpt>
      <trkpt lat="48.69301" lon="2.20101">
        <ele>147.7</ele>
        <time>2021-05-22T07:19:34Z</time>
      </trkpt>
      <trkpt lat="48.69302" lon="2.20104">
        <ele>147.7</ele>
        <time>2021-05-22T07:19:35Z</time>
      </trkpt>
      <trkpt lat="48.69305" lon="2.20116">
        <ele>147.22</ele>
        <time>2021-05-22T07:19:41Z</time>
      </trkpt>
      <trkpt lat="48.69309" lon="2.20146">
        <ele>147.22</ele>
        <time>2021-05-22T07:19:53Z</time>
      </trkpt>
      <trkpt lat="48.69313" lon="2.20169">
        <ele>147.7</ele>
        <time>2021-05-22T07:20:03Z</time>
      </trkpt>
      <trkpt lat="48.69313" lon="2.20171">
        <ele>147.7</ele>
        <time>2021-05-22T07:20:04Z</time>
      </trkpt>
      <trkpt lat="48.69313" lon="2.20174">
        <ele>147.22</ele>
        <time>2021-05-22T07:20:05Z</time>
      </trkpt>
      <trkpt lat="48.69313" lon="2.20177">
        <ele>147.7</ele>
        <time>2021-05-22T07:20:06Z</time>
      </trkpt>
      <trkpt lat="48.69313" lon="2.2018">
        <ele>147.22</ele>
        <time>2021-05-22T07:20:07Z</time>
      </trkpt>
      <trkpt lat="48.69312" lon="2.20189">
        <ele>147.22</ele>
        <time>2021-05-22T07:20:10Z</time>
      </trkpt>
      <trkpt lat="48.69312" lon="2.20192">
        <ele>147.22</ele>
        <time>2021-05-22T07:20:11Z</time>
      </trkpt>
      <trkpt lat="48.69313" lon="2.20194">
        <ele>147.22</ele>
        <time>2021-05-22T07:20:12Z</time>
      </trkpt>
      <trkpt lat="48.69311" lon="2.20201">
        <ele>147.22</ele>
        <time>2021-05-22T07:20:16Z</time>
      </trkpt>
      <trkpt lat="48.69309" lon="2.20204">
        <ele>146.74</ele>
        <time>2021-05-22T07:20:17Z</time>
      </trkpt>
      <trkpt lat="48.69308" lon="2.20206">
        <ele>146.74</ele>
        <time>2021-05-22T07:20:18Z</time>
      </trkpt>
      <trkpt lat="48.69305" lon="2.20233">
        <ele>146.74</ele>
        <time>2021-05-22T07:20:29Z</time>
      </trkpt>
      <trkpt lat="48.69304" lon="2.20252">
        <ele>147.22</ele>
        <time>2021-05-22T07:20:35Z</time>
      </trkpt>
      <trkpt lat="48.69304" lon="2.20255">
        <ele>146.74</ele>
        <time>2021-05-22T07:20:36Z</time>
      </trkpt>
      <trkpt lat="48.69304" lon="2.20279">
        <ele>146.74</ele>
        <time>2021-05-22T07:20:48Z</time>
      </trkpt>
      <trkpt lat="48.69301" lon="2.20294">
        <ele>146.74</ele>
        <time>2021-05-22T07:20:54Z</time>
      </trkpt>
      <trkpt lat="48.69301" lon="2.20297">
        <ele>146.26</ele>
        <time>2021-05-22T07:20:55Z</time>
      </trkpt>
      <trkpt lat="48.69304" lon="2.203">
        <ele>146.74</ele>
        <time>2021-05-22T07:20:57Z</time>
      </trkpt>
      <trkpt lat="48.69318" lon="2.20302">
        <ele>146.26</ele>
        <time>2021-05-22T07:21:09Z</time>
      </trkpt>
      <trkpt lat="48.69325" lon="2.203">
        <ele>144.82</ele>
        <time>2021-05-22T07:21:16Z</time>
      </trkpt>
      <trkpt lat="48.69326" lon="2.20311">
        <ele>142.89</ele>
        <time>2021-05-22T07:21:19Z</time>
      </trkpt>
      <trkpt lat="48.69328" lon="2.20316">
        <ele>141.93</ele>
        <time>2021-05-22T07:21:21Z</time>
      </trkpt>
      <trkpt lat="48.69334" lon="2.20319">
        <ele>137.13</ele>
        <time>2021-05-22T07:21:25Z</time>
      </trkpt>
      <trkpt lat="48.69336" lon="2.20317">
        <ele>135.68</ele>
        <time>2021-05-22T07:21:26Z</time>
      </trkpt>
      <trkpt lat="48.69343" lon="2.20319">
        <ele>133.76</ele>
        <time>2021-05-22T07:21:30Z</time>
      </trkpt>
      <trkpt lat="48.69343" lon="2.20331">
        <ele>131.84</ele>
        <time>2021-05-22T07:21:34Z</time>
      </trkpt>
      <trkpt lat="48.69344" lon="2.20362">
        <ele>127.99</ele>
        <time>2021-05-22T07:21:46Z</time>
      </trkpt>
      <trkpt lat="48.69349" lon="2.20368">
        <ele>127.03</ele>
        <time>2021-05-22T07:21:48Z</time>
      </trkpt>
      <trkpt lat="48.69359" lon="2.20388">
        <ele>124.15</ele>
        <time>2021-05-22T07:21:56Z</time>
      </trkpt>
      <trkpt lat="48.69361" lon="2.20395">
        <ele>122.22</ele>
        <time>2021-05-22T07:21:59Z</time>
      </trkpt>
      <trkpt lat="48.69373" lon="2.20422">
        <ele>121.74</ele>
        <time>2021-05-22T07:22:13Z</time>
      </trkpt>
      <trkpt lat="48.69373" lon="2.20425">
        <ele>121.74</ele>
        <time>2021-05-22T07:22:15Z</time>
      </trkpt>
      <trkpt lat="48.69377" lon="2.20441">
        <ele>118.38</ele>
        <time>2021-05-22T07:22:24Z</time>
      </trkpt>
      <trkpt lat="48.69382" lon="2.20443">
        <ele>114.53</ele>
        <time>2021-05-22T07:22:31Z</time>
      </trkpt>
      <trkpt lat="48.69384" lon="2.20438">
        <ele>111.17</ele>
        <time>2021-05-22T07:22:35Z</time>
      </trkpt>
      <trkpt lat="48.69386" lon="2.20435">
        <ele>110.21</ele>
        <time>2021-05-22T07:22:36Z</time>
      </trkpt>
      <trkpt lat="48.69389" lon="2.20428">
        <ele>109.25</ele>
        <time>2021-05-22T07:22:38Z</time>
      </trkpt>
      <trkpt lat="48.69403" lon="2.20425">
        <ele>107.81</ele>
        <time>2021-05-22T07:22:49Z</time>
      </trkpt>
      <trkpt lat="48.69415" lon="2.20425">
        <ele>108.29</ele>
        <time>2021-05-22T07:23:00Z</time>
      </trkpt>
      <trkpt lat="48.69429" lon="2.20408">
        <ele>109.73</ele>
        <time>2021-05-22T07:23:13Z</time>
      </trkpt>
      <trkpt lat="48.69431" lon="2.20402">
        <ele>108.29</ele>
        <time>2021-05-22T07:23:16Z</time>
      </trkpt>
      <trkpt lat="48.69433" lon="2.2039">
        <ele>105.88</ele>
        <time>2021-05-22T07:23:24Z</time>
      </trkpt>
      <trkpt lat="48.6944" lon="2.20376">
        <ele>104.92</ele>
        <time>2021-05-22T07:23:30Z</time>
      </trkpt>
      <trkpt lat="48.69449" lon="2.20356">
        <ele>101.56</ele>
        <time>2021-05-22T07:23:40Z</time>
      </trkpt>
      <trkpt lat="48.69455" lon="2.20334">
        <ele>99.15</ele>
        <time>2021-05-22T07:23:48Z</time>
      </trkpt>
      <trkpt lat="48.69458" lon="2.20332">
        <ele>98.67</ele>
        <time>2021-05-22T07:23:51Z</time>
      </trkpt>
      <trkpt lat="48.69463" lon="2.20333">
        <ele>98.67</ele>
        <time>2021-05-22T07:23:54Z</time>
      </trkpt>
      <trkpt lat="48.69478" lon="2.20348">
        <ele>99.63</ele>
        <time>2021-05-22T07:24:09Z</time>
      </trkpt>
      <trkpt lat="48.6948" lon="2.20349">
        <ele>100.6</ele>
        <time>2021-05-22T07:24:13Z</time>
      </trkpt>
      <trkpt lat="48.69482" lon="2.20352">
        <ele>101.08</ele>
        <time>2021-05-22T07:24:15Z</time>
      </trkpt>
      <trkpt lat="48.69485" lon="2.20367">
        <ele>104.44</ele>
        <time>2021-05-22T07:24:27Z</time>
      </trkpt>
      <trkpt lat="48.69484" lon="2.20385">
        <ele>106.84</ele>
        <time>2021-05-22T07:24:39Z</time>
      </trkpt>
      <trkpt lat="48.69489" lon="2.20406">
        <ele>106.84</ele>
        <time>2021-05-22T07:24:49Z</time>
      </trkpt>
      <trkpt lat="48.6949" lon="2.20409">
        <ele>107.32</ele>
        <time>2021-05-22T07:24:50Z</time>
      </trkpt>
      <trkpt lat="48.6949" lon="2.20412">
        <ele>107.32</ele>
        <time>2021-05-22T07:24:51Z</time>
      </trkpt>
      <trkpt lat="48.69491" lon="2.20414">
        <ele>106.84</ele>
        <time>2021-05-22T07:24:52Z</time>
      </trkpt>
      <trkpt lat="48.69491" lon="2.20417">
        <ele>107.32</ele>
        <time>2021-05-22T07:24:53Z</time>
      </trkpt>
      <trkpt lat="48.69491" lon="2.20419">
        <ele>107.81</ele>
        <time>2021-05-22T07:24:54Z</time>
      </trkpt>
      <trkpt lat="48.69506" lon="2.20434">
        <ele>107.81</ele>
        <time>2021-05-22T07:25:05Z</time>
      </trkpt>
      <trkpt lat="48.69504" lon="2.2044">
        <ele>110.21</ele>
        <time>2021-05-22T07:25:12Z</time>
      </trkpt>
      <trkpt lat="48.69494" lon="2.20452">
        <ele>113.57</ele>
        <time>2021-05-22T07:25:24Z</time>
      </trkpt>
      <trkpt lat="48.69488" lon="2.20471">
        <ele>116.94</ele>
        <time>2021-05-22T07:25:37Z</time>
      </trkpt>
      <trkpt lat="48.69486" lon="2.20473">
        <ele>117.42</ele>
        <time>2021-05-22T07:25:39Z</time>
      </trkpt>
      <trkpt lat="48.69482" lon="2.20476">
        <ele>119.82</ele>
        <time>2021-05-22T07:25:47Z</time>
      </trkpt>
      <trkpt lat="48.69481" lon="2.20479">
        <ele>119.82</ele>
        <time>2021-05-22T07:25:50Z</time>
      </trkpt>
      <trkpt lat="48.69479" lon="2.2048">
        <ele>121.26</ele>
        <time>2021-05-22T07:25:53Z</time>
      </trkpt>
      <trkpt lat="48.69476" lon="2.20487">
        <ele>122.22</ele>
        <time>2021-05-22T07:26:01Z</time>
      </trkpt>
      <trkpt lat="48.69453" lon="2.20499">
        <ele>123.67</ele>
        <time>2021-05-22T07:26:19Z</time>
      </trkpt>
      <trkpt lat="48.69456" lon="2.20519">
        <ele>126.55</ele>
        <time>2021-05-22T07:26:33Z</time>
      </trkpt>
      <trkpt lat="48.69456" lon="2.2052">
        <ele>126.55</ele>
        <time>2021-05-22T07:26:34Z</time>
      </trkpt>
      <trkpt lat="48.69455" lon="2.20533">
        <ele>128.47</ele>
        <time>2021-05-22T07:26:40Z</time>
      </trkpt>
      <trkpt lat="48.6944" lon="2.20548">
        <ele>130.4</ele>
        <time>2021-05-22T07:26:49Z</time>
      </trkpt>
      <trkpt lat="48.69432" lon="2.20551">
        <ele>130.88</ele>
        <time>2021-05-22T07:26:53Z</time>
      </trkpt>
      <trkpt lat="48.69427" lon="2.2056">
        <ele>130.88</ele>
        <time>2021-05-22T07:26:59Z</time>
      </trkpt>
      <trkpt lat="48.69424" lon="2.20575">
        <ele>132.32</ele>
        <time>2021-05-22T07:27:08Z</time>
      </trkpt>
      <trkpt lat="48.69421" lon="2.20582">
        <ele>132.8</ele>
        <time>2021-05-22T07:27:12Z</time>
      </trkpt>
      <trkpt lat="48.69421" lon="2.2059">
        <ele>132.8</ele>
        <time>2021-05-22T07:27:16Z</time>
      </trkpt>
      <trkpt lat="48.69429" lon="2.20603">
        <ele>134.24</ele>
        <time>2021-05-22T07:27:23Z</time>
      </trkpt>
      <trkpt lat="48.69412" lon="2.2062">
        <ele>136.16</ele>
        <time>2021-05-22T07:27:37Z</time>
      </trkpt>
      <trkpt lat="48.69409" lon="2.20624">
        <ele>136.64</ele>
        <time>2021-05-22T07:27:40Z</time>
      </trkpt>
      <trkpt lat="48.69401" lon="2.20643">
        <ele>140.01</ele>
        <time>2021-05-22T07:27:52Z</time>
      </trkpt>
      <trkpt lat="48.69389" lon="2.2066">
        <ele>141.45</ele>
        <time>2021-05-22T07:28:07Z</time>
      </trkpt>
      <trkpt lat="48.69388" lon="2.20673">
        <ele>142.41</ele>
        <time>2021-05-22T07:28:15Z</time>
      </trkpt>
      <trkpt lat="48.69387" lon="2.20676">
        <ele>142.89</ele>
        <time>2021-05-22T07:28:17Z</time>
      </trkpt>
      <trkpt lat="48.69382" lon="2.20683">
        <ele>142.89</ele>
        <time>2021-05-22T07:28:27Z</time>
      </trkpt>
      <trkpt lat="48.6938" lon="2.20683">
        <ele>142.89</ele>
        <time>2021-05-22T07:28:29Z</time>
      </trkpt>
      <trkpt lat="48.69374" lon="2.20691">
        <ele>142.89</ele>
        <time>2021-05-22T07:28:35Z</time>
      </trkpt>
      <trkpt lat="48.69372" lon="2.20716">
        <ele>145.3</ele>
        <time>2021-05-22T07:28:48Z</time>
      </trkpt>
      <trkpt lat="48.69366" lon="2.20729">
        <ele>148.66</ele>
        <time>2021-05-22T07:29:01Z</time>
      </trkpt>
      <trkpt lat="48.69351" lon="2.20743">
        <ele>150.58</ele>
        <time>2021-05-22T07:29:15Z</time>
      </trkpt>
      <trkpt lat="48.69347" lon="2.20746">
        <ele>152.03</ele>
        <time>2021-05-22T07:29:18Z</time>
      </trkpt>
      <trkpt lat="48.6934" lon="2.20756">
        <ele>153.95</ele>
        <time>2021-05-22T07:29:28Z</time>
      </trkpt>
      <trkpt lat="48.6934" lon="2.20768">
        <ele>154.43</ele>
        <time>2021-05-22T07:29:33Z</time>
      </trkpt>
      <trkpt lat="48.69338" lon="2.20779">
        <ele>154.91</ele>
        <time>2021-05-22T07:29:41Z</time>
      </trkpt>
      <trkpt lat="48.69344" lon="2.20813">
        <ele>155.87</ele>
        <time>2021-05-22T07:29:53Z</time>
      </trkpt>
      <trkpt lat="48.6935" lon="2.2084">
        <ele>156.35</ele>
        <time>2021-05-22T07:30:07Z</time>
      </trkpt>
      <trkpt lat="48.6936" lon="2.20875">
        <ele>155.87</ele>
        <time>2021-05-22T07:30:23Z</time>
      </trkpt>
      <trkpt lat="48.69362" lon="2.20879">
        <ele>157.31</ele>
        <time>2021-05-22T07:30:27Z</time>
      </trkpt>
      <trkpt lat="48.69362" lon="2.20883">
        <ele>155.87</ele>
        <time>2021-05-22T07:30:36Z</time>
      </trkpt>
      <trkpt lat="48.69362" lon="2.20884">
        <ele>156.35</ele>
        <time>2021-05-22T07:30:37Z</time>
      </trkpt>
      <trkpt lat="48.69362" lon="2.20886">
        <ele>155.39</ele>
        <time>2021-05-22T07:30:38Z</time>
      </trkpt>
      <trkpt lat="48.6937" lon="2.20921">
        <ele>156.35</ele>
        <time>2021-05-22T07:30:53Z</time>
      </trkpt>
      <trkpt lat="48.69373" lon="2.20949">
        <ele>156.83</ele>
        <time>2021-05-22T07:31:06Z</time>
      </trkpt>
      <trkpt lat="48.69377" lon="2.2097">
        <ele>157.31</ele>
        <time>2021-05-22T07:31:17Z</time>
      </trkpt>
      <trkpt lat="48.69385" lon="2.21">
        <ele>158.27</ele>
        <time>2021-05-22T07:31:31Z</time>
      </trkpt>
      <trkpt lat="48.69384" lon="2.21032">
        <ele>158.27</ele>
        <time>2021-05-22T07:31:44Z</time>
      </trkpt>
      <trkpt lat="48.69383" lon="2.21041">
        <ele>157.79</ele>
        <time>2021-05-22T07:31:49Z</time>
      </trkpt>
      <trkpt lat="48.69383" lon="2.21044">
        <ele>157.79</ele>
        <time>2021-05-22T07:31:50Z</time>
      </trkpt>
      <trkpt lat="48.69382" lon="2.21046">
        <ele>157.79</ele>
        <time>2021-05-22T07:31:51Z</time>
      </trkpt>
      <trkpt lat="48.69382" lon="2.21048">
        <ele>157.79</ele>
        <time>2021-05-22T07:31:52Z</time>
      </trkpt>
      <trkpt lat="48.69382" lon="2.21051">
        <ele>157.79</ele>
        <time>2021-05-22T07:31:53Z</time>
      </trkpt>
      <trkpt lat="48.6938" lon="2.21059">
        <ele>157.79</ele>
        <time>2021-05-22T07:31:56Z</time>
      </trkpt>
      <trkpt lat="48.69379" lon="2.21062">
        <ele>157.79</ele>
        <time>2021-05-22T07:31:57Z</time>
      </trkpt>
      <trkpt lat="48.69372" lon="2.21089">
        <ele>158.27</ele>
        <time>2021-05-22T07:32:10Z</time>
      </trkpt>
      <trkpt lat="48.69361" lon="2.2112">
        <ele>157.79</ele>
        <time>2021-05-22T07:32:23Z</time>
      </trkpt>
      <trkpt lat="48.69355" lon="2.21148">
        <ele>157.79</ele>
        <time>2021-05-22T07:32:35Z</time>
      </trkpt>
      <trkpt lat="48.69357" lon="2.21169">
        <ele>156.83</ele>
        <time>2021-05-22T07:32:46Z</time>
      </trkpt>
      <trkpt lat="48.69358" lon="2.21173">
        <ele>157.31</ele>
        <time>2021-05-22T07:32:48Z</time>
      </trkpt>
      <trkpt lat="48.6936" lon="2.21176">
        <ele>155.39</ele>
        <time>2021-05-22T07:32:49Z</time>
      </trkpt>
      <trkpt lat="48.69362" lon="2.21178">
        <ele>155.87</ele>
        <time>2021-05-22T07:32:50Z</time>
      </trkpt>
      <trkpt lat="48.69373" lon="2.21181">
        <ele>154.43</ele>
        <time>2021-05-22T07:32:54Z</time>
      </trkpt>
      <trkpt lat="48.69407" lon="2.21181">
        <ele>151.06</ele>
        <time>2021-05-22T07:33:05Z</time>
      </trkpt>
      <trkpt lat="48.69411" lon="2.21175">
        <ele>150.58</ele>
        <time>2021-05-22T07:33:07Z</time>
      </trkpt>
      <trkpt lat="48.69418" lon="2.21163">
        <ele>150.1</ele>
        <time>2021-05-22T07:33:12Z</time>
      </trkpt>
      <trkpt lat="48.69434" lon="2.21133">
        <ele>150.1</ele>
        <time>2021-05-22T07:33:25Z</time>
      </trkpt>
      <trkpt lat="48.69455" lon="2.21109">
        <ele>149.62</ele>
        <time>2021-05-22T07:33:35Z</time>
      </trkpt>
      <trkpt lat="48.69463" lon="2.21109">
        <ele>147.7</ele>
        <time>2021-05-22T07:33:38Z</time>
      </trkpt>
      <trkpt lat="48.69468" lon="2.21111">
        <ele>146.74</ele>
        <time>2021-05-22T07:33:40Z</time>
      </trkpt>
      <trkpt lat="48.69486" lon="2.21116">
        <ele>142.89</ele>
        <time>2021-05-22T07:33:51Z</time>
      </trkpt>
      <trkpt lat="48.69504" lon="2.21122">
        <ele>140.01</ele>
        <time>2021-05-22T07:34:02Z</time>
      </trkpt>
      <trkpt lat="48.69506" lon="2.21123">
        <ele>140.01</ele>
        <time>2021-05-22T07:34:04Z</time>
      </trkpt>
      <trkpt lat="48.69514" lon="2.21124">
        <ele>138.09</ele>
        <time>2021-05-22T07:34:08Z</time>
      </trkpt>
      <trkpt lat="48.69534" lon="2.21133">
        <ele>135.2</ele>
        <time>2021-05-22T07:34:19Z</time>
      </trkpt>
      <trkpt lat="48.69536" lon="2.21136">
        <ele>133.76</ele>
        <time>2021-05-22T07:34:22Z</time>
      </trkpt>
      <trkpt lat="48.69539" lon="2.21144">
        <ele>130.88</ele>
        <time>2021-05-22T07:34:28Z</time>
      </trkpt>
      <trkpt lat="48.69542" lon="2.21146">
        <ele>129.43</ele>
        <time>2021-05-22T07:34:32Z</time>
      </trkpt>
      <trkpt lat="48.69543" lon="2.2115">
        <ele>127.99</ele>
        <time>2021-05-22T07:34:35Z</time>
      </trkpt>
      <trkpt lat="48.69547" lon="2.21159">
        <ele>123.67</ele>
        <time>2021-05-22T07:34:41Z</time>
      </trkpt>
      <trkpt lat="48.69547" lon="2.21161">
        <ele>123.67</ele>
        <time>2021-05-22T07:34:42Z</time>
      </trkpt>
      <trkpt lat="48.69551" lon="2.21168">
        <ele>120.78</ele>
        <time>2021-05-22T07:34:47Z</time>
      </trkpt>
      <trkpt lat="48.69553" lon="2.2118">
        <ele>117.42</ele>
        <time>2021-05-22T07:34:54Z</time>
      </trkpt>
      <trkpt lat="48.69554" lon="2.21183">
        <ele>116.46</ele>
        <time>2021-05-22T07:34:56Z</time>
      </trkpt>
      <trkpt lat="48.69554" lon="2.21194">
        <ele>114.53</ele>
        <time>2021-05-22T07:35:02Z</time>
      </trkpt>
      <trkpt lat="48.69554" lon="2.212">
        <ele>113.09</ele>
        <time>2021-05-22T07:35:05Z</time>
      </trkpt>
      <trkpt lat="48.69555" lon="2.21208">
        <ele>111.17</ele>
        <time>2021-05-22T07:35:10Z</time>
      </trkpt>
      <trkpt lat="48.69556" lon="2.21215">
        <ele>108.77</ele>
        <time>2021-05-22T07:35:14Z</time>
      </trkpt>
      <trkpt lat="48.69563" lon="2.21235">
        <ele>105.4</ele>
        <time>2021-05-22T07:35:21Z</time>
      </trkpt>
      <trkpt lat="48.69564" lon="2.21237">
        <ele>105.4</ele>
        <time>2021-05-22T07:35:22Z</time>
      </trkpt>
      <trkpt lat="48.69584" lon="2.21236">
        <ele>102.04</ele>
        <time>2021-05-22T07:35:33Z</time>
      </trkpt>
      <trkpt lat="48.69594" lon="2.21232">
        <ele>100.6</ele>
        <time>2021-05-22T07:35:38Z</time>
      </trkpt>
      <trkpt lat="48.69603" lon="2.2123">
        <ele>98.19</ele>
        <time>2021-05-22T07:35:43Z</time>
      </trkpt>
      <trkpt lat="48.69613" lon="2.2123">
        <ele>97.23</ele>
        <time>2021-05-22T07:35:47Z</time>
      </trkpt>
      <trkpt lat="48.69618" lon="2.21232">
        <ele>96.75</ele>
        <time>2021-05-22T07:35:48Z</time>
      </trkpt>
      <trkpt lat="48.69621" lon="2.21234">
        <ele>96.75</ele>
        <time>2021-05-22T07:35:49Z</time>
      </trkpt>
      <trkpt lat="48.69625" lon="2.21236">
        <ele>96.27</ele>
        <time>2021-05-22T07:35:50Z</time>
      </trkpt>
      <trkpt lat="48.69627" lon="2.21237">
        <ele>96.75</ele>
        <time>2021-05-22T07:35:51Z</time>
      </trkpt>
      <trkpt lat="48.69652" lon="2.21252">
        <ele>93.39</ele>
        <time>2021-05-22T07:36:01Z</time>
      </trkpt>
      <trkpt lat="48.69674" lon="2.21265">
        <ele>90.5</ele>
        <time>2021-05-22T07:36:12Z</time>
      </trkpt>
      <trkpt lat="48.69705" lon="2.21294">
        <ele>88.58</ele>
        <time>2021-05-22T07:36:27Z</time>
      </trkpt>
      <trkpt lat="48.69705" lon="2.21298">
        <ele>88.58</ele>
        <time>2021-05-22T07:36:29Z</time>
      </trkpt>
      <trkpt lat="48.69704" lon="2.21311">
        <ele>88.1</ele>
        <time>2021-05-22T07:36:33Z</time>
      </trkpt>
      <trkpt lat="48.697" lon="2.21322">
        <ele>87.62</ele>
        <time>2021-05-22T07:36:37Z</time>
      </trkpt>
      <trkpt lat="48.69698" lon="2.21326">
        <ele>87.62</ele>
        <time>2021-05-22T07:36:39Z</time>
      </trkpt>
      <trkpt lat="48.69692" lon="2.21338">
        <ele>87.62</ele>
        <time>2021-05-22T07:36:45Z</time>
      </trkpt>
      <trkpt lat="48.69687" lon="2.21359">
        <ele>87.62</ele>
        <time>2021-05-22T07:36:53Z</time>
      </trkpt>
      <trkpt lat="48.69698" lon="2.21365">
        <ele>88.58</ele>
        <time>2021-05-22T07:37:00Z</time>
      </trkpt>
      <trkpt lat="48.6972" lon="2.21377">
        <ele>88.1</ele>
        <time>2021-05-22T07:37:12Z</time>
      </trkpt>
      <trkpt lat="48.69738" lon="2.2139">
        <ele>87.62</ele>
        <time>2021-05-22T07:37:24Z</time>
      </trkpt>
      <trkpt lat="48.6974" lon="2.21393">
        <ele>88.1</ele>
        <time>2021-05-22T07:37:26Z</time>
      </trkpt>
      <trkpt lat="48.69741" lon="2.21395">
        <ele>88.1</ele>
        <time>2021-05-22T07:37:27Z</time>
      </trkpt>
      <trkpt lat="48.69757" lon="2.21414">
        <ele>88.1</ele>
        <time>2021-05-22T07:37:39Z</time>
      </trkpt>
      <trkpt lat="48.69764" lon="2.21435">
        <ele>88.1</ele>
        <time>2021-05-22T07:37:48Z</time>
      </trkpt>
      <trkpt lat="48.69763" lon="2.21438">
        <ele>88.1</ele>
        <time>2021-05-22T07:37:50Z</time>
      </trkpt>
      <trkpt lat="48.69761" lon="2.21439">
        <ele>87.62</ele>
        <time>2021-05-22T07:37:51Z</time>
      </trkpt>
      <trkpt lat="48.69759" lon="2.2144">
        <ele>87.62</ele>
        <time>2021-05-22T07:37:52Z</time>
      </trkpt>
      <trkpt lat="48.69757" lon="2.21442">
        <ele>87.62</ele>
        <time>2021-05-22T07:37:53Z</time>
      </trkpt>
      <trkpt lat="48.69755" lon="2.21443">
        <ele>88.1</ele>
        <time>2021-05-22T07:37:54Z</time>
      </trkpt>
      <trkpt lat="48.69753" lon="2.21445">
        <ele>88.1</ele>
        <time>2021-05-22T07:37:55Z</time>
      </trkpt>
      <trkpt lat="48.69748" lon="2.21456">
        <ele>89.06</ele>
        <time>2021-05-22T07:38:01Z</time>
      </trkpt>
      <trkpt lat="48.69748" lon="2.21459">
        <ele>89.06</ele>
        <time>2021-05-22T07:38:02Z</time>
      </trkpt>
      <trkpt lat="48.69748" lon="2.21462">
        <ele>89.06</ele>
        <time>2021-05-22T07:38:03Z</time>
      </trkpt>
      <trkpt lat="48.69748" lon="2.21465">
        <ele>88.1</ele>
        <time>2021-05-22T07:38:04Z</time>
      </trkpt>
      <trkpt lat="48.69748" lon="2.21468">
        <ele>88.58</ele>
        <time>2021-05-22T07:38:05Z</time>
      </trkpt>
      <trkpt lat="48.69743" lon="2.21488">
        <ele>87.14</ele>
        <time>2021-05-22T07:38:15Z</time>
      </trkpt>
      <trkpt lat="48.69743" lon="2.21491">
        <ele>87.14</ele>
        <time>2021-05-22T07:38:16Z</time>
      </trkpt>
      <trkpt lat="48.69743" lon="2.21494">
        <ele>87.14</ele>
        <time>2021-05-22T07:38:17Z</time>
      </trkpt>
      <trkpt lat="48.69742" lon="2.21497">
        <ele>87.14</ele>
        <time>2021-05-22T07:38:18Z</time>
      </trkpt>
      <trkpt lat="48.69742" lon="2.215">
        <ele>87.14</ele>
        <time>2021-05-22T07:38:19Z</time>
      </trkpt>
      <trkpt lat="48.69742" lon="2.21504">
        <ele>87.14</ele>
        <time>2021-05-22T07:38:20Z</time>
      </trkpt>
      <trkpt lat="48.69742" lon="2.21508">
        <ele>87.62</ele>
        <time>2021-05-22T07:38:21Z</time>
      </trkpt>
      <trkpt lat="48.69738" lon="2.21539">
        <ele>86.66</ele>
        <time>2021-05-22T07:38:35Z</time>
      </trkpt>
      <trkpt lat="48.69726" lon="2.21561">
        <ele>87.14</ele>
        <time>2021-05-22T07:38:47Z</time>
      </trkpt>
      <trkpt lat="48.69712" lon="2.21585">
        <ele>87.14</ele>
        <time>2021-05-22T07:38:59Z</time>
      </trkpt>
      <trkpt lat="48.69714" lon="2.21589">
        <ele>86.66</ele>
        <time>2021-05-22T07:39:01Z</time>
      </trkpt>
      <trkpt lat="48.69716" lon="2.21591">
        <ele>86.18</ele>
        <time>2021-05-22T07:39:02Z</time>
      </trkpt>
      <trkpt lat="48.69723" lon="2.21601">
        <ele>86.18</ele>
        <time>2021-05-22T07:39:05Z</time>
      </trkpt>
      <trkpt lat="48.69725" lon="2.21603">
        <ele>86.18</ele>
        <time>2021-05-22T07:39:06Z</time>
      </trkpt>
      <trkpt lat="48.6973" lon="2.21616">
        <ele>85.21</ele>
        <time>2021-05-22T07:39:13Z</time>
      </trkpt>
      <trkpt lat="48.69735" lon="2.21629">
        <ele>85.69</ele>
        <time>2021-05-22T07:39:19Z</time>
      </trkpt>
      <trkpt lat="48.69735" lon="2.21631">
        <ele>86.18</ele>
        <time>2021-05-22T07:39:20Z</time>
      </trkpt>
      <trkpt lat="48.69725" lon="2.21658">
        <ele>88.1</ele>
        <time>2021-05-22T07:39:33Z</time>
      </trkpt>
      <trkpt lat="48.69718" lon="2.21659">
        <ele>89.06</ele>
        <time>2021-05-22T07:39:39Z</time>
      </trkpt>
      <trkpt lat="48.69717" lon="2.21658">
        <ele>89.54</ele>
        <time>2021-05-22T07:39:40Z</time>
      </trkpt>
      <trkpt lat="48.69702" lon="2.21651">
        <ele>91.46</ele>
        <time>2021-05-22T07:39:54Z</time>
      </trkpt>
      <trkpt lat="48.697" lon="2.21651">
        <ele>91.94</ele>
        <time>2021-05-22T07:39:55Z</time>
      </trkpt>
      <trkpt lat="48.69673" lon="2.21653">
        <ele>94.83</ele>
        <time>2021-05-22T07:40:11Z</time>
      </trkpt>
      <trkpt lat="48.69657" lon="2.2166">
        <ele>95.31</ele>
        <time>2021-05-22T07:40:28Z</time>
      </trkpt>
      <trkpt lat="48.69647" lon="2.21664">
        <ele>97.23</ele>
        <time>2021-05-22T07:40:34Z</time>
      </trkpt>
      <trkpt lat="48.69629" lon="2.2168">
        <ele>99.63</ele>
        <time>2021-05-22T07:40:46Z</time>
      </trkpt>
      <trkpt lat="48.69624" lon="2.21679">
        <ele>100.6</ele>
        <time>2021-05-22T07:40:52Z</time>
      </trkpt>
      <trkpt lat="48.69623" lon="2.21677">
        <ele>100.11</ele>
        <time>2021-05-22T07:40:53Z</time>
      </trkpt>
      <trkpt lat="48.69622" lon="2.21675">
        <ele>100.11</ele>
        <time>2021-05-22T07:40:55Z</time>
      </trkpt>
      <trkpt lat="48.69623" lon="2.21669">
        <ele>100.11</ele>
        <time>2021-05-22T07:40:58Z</time>
      </trkpt>
      <trkpt lat="48.69623" lon="2.21667">
        <ele>100.11</ele>
        <time>2021-05-22T07:40:59Z</time>
      </trkpt>
      <trkpt lat="48.69623" lon="2.21665">
        <ele>100.6</ele>
        <time>2021-05-22T07:41:00Z</time>
      </trkpt>
      <trkpt lat="48.69623" lon="2.21663">
        <ele>100.6</ele>
        <time>2021-05-22T07:41:01Z</time>
      </trkpt>
      <trkpt lat="48.69622" lon="2.2166">
        <ele>100.11</ele>
        <time>2021-05-22T07:41:02Z</time>
      </trkpt>
      <trkpt lat="48.69621" lon="2.21658">
        <ele>100.11</ele>
        <time>2021-05-22T07:41:03Z</time>
      </trkpt>
      <trkpt lat="48.6962" lon="2.21654">
        <ele>100.11</ele>
        <time>2021-05-22T07:41:04Z</time>
      </trkpt>
      <trkpt lat="48.6962" lon="2.21651">
        <ele>100.6</ele>
        <time>2021-05-22T07:41:05Z</time>
      </trkpt>
      <trkpt lat="48.69619" lon="2.21647">
        <ele>100.6</ele>
        <time>2021-05-22T07:41:06Z</time>
      </trkpt>
      <trkpt lat="48.69618" lon="2.21643">
        <ele>100.11</ele>
        <time>2021-05-22T07:41:07Z</time>
      </trkpt>
      <trkpt lat="48.69618" lon="2.2164">
        <ele>100.11</ele>
        <time>2021-05-22T07:41:08Z</time>
      </trkpt>
      <trkpt lat="48.69617" lon="2.21637">
        <ele>100.11</ele>
        <time>2021-05-22T07:41:09Z</time>
      </trkpt>
      <trkpt lat="48.69618" lon="2.21635">
        <ele>100.6</ele>
        <time>2021-05-22T07:41:10Z</time>
      </trkpt>
      <trkpt lat="48.69618" lon="2.21633">
        <ele>100.11</ele>
        <time>2021-05-22T07:41:11Z</time>
      </trkpt>
      <trkpt lat="48.69622" lon="2.21609">
        <ele>100.11</ele>
        <time>2021-05-22T07:41:25Z</time>
      </trkpt>
      <trkpt lat="48.69621" lon="2.21592">
        <ele>99.63</ele>
        <time>2021-05-22T07:41:30Z</time>
      </trkpt>
      <trkpt lat="48.69622" lon="2.21591">
        <ele>100.11</ele>
        <time>2021-05-22T07:41:31Z</time>
      </trkpt>
      <trkpt lat="48.69625" lon="2.21582">
        <ele>100.6</ele>
        <time>2021-05-22T07:41:38Z</time>
      </trkpt>
      <trkpt lat="48.69625" lon="2.21579">
        <ele>99.63</ele>
        <time>2021-05-22T07:41:39Z</time>
      </trkpt>
      <trkpt lat="48.69625" lon="2.21576">
        <ele>99.63</ele>
        <time>2021-05-22T07:41:40Z</time>
      </trkpt>
      <trkpt lat="48.69624" lon="2.21569">
        <ele>99.63</ele>
        <time>2021-05-22T07:41:42Z</time>
      </trkpt>
      <trkpt lat="48.69624" lon="2.21566">
        <ele>99.63</ele>
        <time>2021-05-22T07:41:43Z</time>
      </trkpt>
      <trkpt lat="48.69623" lon="2.21564">
        <ele>99.15</ele>
        <time>2021-05-22T07:41:44Z</time>
      </trkpt>
      <trkpt lat="48.69621" lon="2.21563">
        <ele>100.11</ele>
        <time>2021-05-22T07:41:45Z</time>
      </trkpt>
      <trkpt lat="48.6962" lon="2.21561">
        <ele>100.11</ele>
        <time>2021-05-22T07:41:46Z</time>
      </trkpt>
      <trkpt lat="48.69618" lon="2.21561">
        <ele>100.6</ele>
        <time>2021-05-22T07:41:47Z</time>
      </trkpt>
      <trkpt lat="48.69617" lon="2.21561">
        <ele>100.6</ele>
        <time>2021-05-22T07:41:48Z</time>
      </trkpt>
      <trkpt lat="48.69608" lon="2.21561">
        <ele>102.52</ele>
        <time>2021-05-22T07:41:58Z</time>
      </trkpt>
      <trkpt lat="48.69602" lon="2.21562">
        <ele>103.96</ele>
        <time>2021-05-22T07:42:01Z</time>
      </trkpt>
      <trkpt lat="48.69591" lon="2.21561">
        <ele>105.88</ele>
        <time>2021-05-22T07:42:08Z</time>
      </trkpt>
      <trkpt lat="48.6959" lon="2.2156">
        <ele>106.36</ele>
        <time>2021-05-22T07:42:10Z</time>
      </trkpt>
      <trkpt lat="48.6959" lon="2.21559">
        <ele>106.84</ele>
        <time>2021-05-22T07:42:11Z</time>
      </trkpt>
      <trkpt lat="48.69589" lon="2.21558">
        <ele>106.84</ele>
        <time>2021-05-22T07:42:12Z</time>
      </trkpt>
      <trkpt lat="48.69586" lon="2.21554">
        <ele>107.32</ele>
        <time>2021-05-22T07:42:15Z</time>
      </trkpt>
      <trkpt lat="48.69584" lon="2.21553">
        <ele>107.32</ele>
        <time>2021-05-22T07:42:16Z</time>
      </trkpt>
      <trkpt lat="48.69582" lon="2.21553">
        <ele>107.81</ele>
        <time>2021-05-22T07:42:17Z</time>
      </trkpt>
      <trkpt lat="48.69581" lon="2.2155">
        <ele>108.29</ele>
        <time>2021-05-22T07:42:19Z</time>
      </trkpt>
      <trkpt lat="48.69569" lon="2.21545">
        <ele>111.65</ele>
        <time>2021-05-22T07:42:31Z</time>
      </trkpt>
      <trkpt lat="48.69563" lon="2.21556">
        <ele>112.13</ele>
        <time>2021-05-22T07:42:38Z</time>
      </trkpt>
      <trkpt lat="48.69562" lon="2.21558">
        <ele>112.13</ele>
        <time>2021-05-22T07:42:39Z</time>
      </trkpt>
      <trkpt lat="48.69561" lon="2.2156">
        <ele>112.13</ele>
        <time>2021-05-22T07:42:40Z</time>
      </trkpt>
      <trkpt lat="48.6956" lon="2.21563">
        <ele>112.13</ele>
        <time>2021-05-22T07:42:41Z</time>
      </trkpt>
      <trkpt lat="48.69558" lon="2.21565">
        <ele>112.61</ele>
        <time>2021-05-22T07:42:42Z</time>
      </trkpt>
      <trkpt lat="48.69557" lon="2.21567">
        <ele>112.61</ele>
        <time>2021-05-22T07:42:43Z</time>
      </trkpt>
      <trkpt lat="48.69556" lon="2.2157">
        <ele>112.13</ele>
        <time>2021-05-22T07:42:44Z</time>
      </trkpt>
      <trkpt lat="48.69548" lon="2.21604">
        <ele>114.05</ele>
        <time>2021-05-22T07:42:57Z</time>
      </trkpt>
      <trkpt lat="48.69545" lon="2.21607">
        <ele>115.01</ele>
        <time>2021-05-22T07:43:04Z</time>
      </trkpt>
      <trkpt lat="48.69544" lon="2.21606">
        <ele>114.53</ele>
        <time>2021-05-22T07:43:05Z</time>
      </trkpt>
      <trkpt lat="48.69541" lon="2.21601">
        <ele>115.98</ele>
        <time>2021-05-22T07:43:11Z</time>
      </trkpt>
      <trkpt lat="48.6954" lon="2.216">
        <ele>115.5</ele>
        <time>2021-05-22T07:43:12Z</time>
      </trkpt>
      <trkpt lat="48.6954" lon="2.21598">
        <ele>115.98</ele>
        <time>2021-05-22T07:43:13Z</time>
      </trkpt>
      <trkpt lat="48.69534" lon="2.21594">
        <ele>116.94</ele>
        <time>2021-05-22T07:43:24Z</time>
      </trkpt>
      <trkpt lat="48.69533" lon="2.21576">
        <ele>117.42</ele>
        <time>2021-05-22T07:43:37Z</time>
      </trkpt>
      <trkpt lat="48.69531" lon="2.21543">
        <ele>118.86</ele>
        <time>2021-05-22T07:43:54Z</time>
      </trkpt>
      <trkpt lat="48.69531" lon="2.21509">
        <ele>121.26</ele>
        <time>2021-05-22T07:44:08Z</time>
      </trkpt>
      <trkpt lat="48.6953" lon="2.21469">
        <ele>122.22</ele>
        <time>2021-05-22T07:44:27Z</time>
      </trkpt>
      <trkpt lat="48.69526" lon="2.21431">
        <ele>124.15</ele>
        <time>2021-05-22T07:44:43Z</time>
      </trkpt>
      <trkpt lat="48.69526" lon="2.21411">
        <ele>125.11</ele>
        <time>2021-05-22T07:44:53Z</time>
      </trkpt>
      <trkpt lat="48.69525" lon="2.21409">
        <ele>125.11</ele>
        <time>2021-05-22T07:44:54Z</time>
      </trkpt>
      <trkpt lat="48.69524" lon="2.21407">
        <ele>125.11</ele>
        <time>2021-05-22T07:44:55Z</time>
      </trkpt>
      <trkpt lat="48.69521" lon="2.21388">
        <ele>128.47</ele>
        <time>2021-05-22T07:45:08Z</time>
      </trkpt>
      <trkpt lat="48.6952" lon="2.21378">
        <ele>128.95</ele>
        <time>2021-05-22T07:45:15Z</time>
      </trkpt>
      <trkpt lat="48.69515" lon="2.21371">
        <ele>129.92</ele>
        <time>2021-05-22T07:45:21Z</time>
      </trkpt>
      <trkpt lat="48.69504" lon="2.21354">
        <ele>133.28</ele>
        <time>2021-05-22T07:45:35Z</time>
      </trkpt>
      <trkpt lat="48.69495" lon="2.21331">
        <ele>136.64</ele>
        <time>2021-05-22T07:45:49Z</time>
      </trkpt>
      <trkpt lat="48.6949" lon="2.21326">
        <ele>137.13</ele>
        <time>2021-05-22T07:45:53Z</time>
      </trkpt>
      <trkpt lat="48.69483" lon="2.21326">
        <ele>137.61</ele>
        <time>2021-05-22T07:45:56Z</time>
      </trkpt>
      <trkpt lat="48.69466" lon="2.21319">
        <ele>140.01</ele>
        <time>2021-05-22T07:46:13Z</time>
      </trkpt>
      <trkpt lat="48.69465" lon="2.21318">
        <ele>140.97</ele>
        <time>2021-05-22T07:46:14Z</time>
      </trkpt>
      <trkpt lat="48.69445" lon="2.21322">
        <ele>143.37</ele>
        <time>2021-05-22T07:46:30Z</time>
      </trkpt>
      <trkpt lat="48.69423" lon="2.21332">
        <ele>145.78</ele>
        <time>2021-05-22T07:46:46Z</time>
      </trkpt>
      <trkpt lat="48.69418" lon="2.21335">
        <ele>147.7</ele>
        <time>2021-05-22T07:46:49Z</time>
      </trkpt>
      <trkpt lat="48.6942" lon="2.21358">
        <ele>149.14</ele>
        <time>2021-05-22T07:47:02Z</time>
      </trkpt>
      <trkpt lat="48.69421" lon="2.21376">
        <ele>152.51</ele>
        <time>2021-05-22T07:47:13Z</time>
      </trkpt>
      <trkpt lat="48.6942" lon="2.21398">
        <ele>154.43</ele>
        <time>2021-05-22T07:47:25Z</time>
      </trkpt>
      <trkpt lat="48.69422" lon="2.21427">
        <ele>155.39</ele>
        <time>2021-05-22T07:47:39Z</time>
      </trkpt>
      <trkpt lat="48.69433" lon="2.2146">
        <ele>155.87</ele>
        <time>2021-05-22T07:47:54Z</time>
      </trkpt>
      <trkpt lat="48.6943" lon="2.21489">
        <ele>155.87</ele>
        <time>2021-05-22T07:48:07Z</time>
      </trkpt>
      <trkpt lat="48.69428" lon="2.21524">
        <ele>155.87</ele>
        <time>2021-05-22T07:48:21Z</time>
      </trkpt>
      <trkpt lat="48.69428" lon="2.21527">
        <ele>156.35</ele>
        <time>2021-05-22T07:48:22Z</time>
      </trkpt>
      <trkpt lat="48.69429" lon="2.21529">
        <ele>155.87</ele>
        <time>2021-05-22T07:48:23Z</time>
      </trkpt>
      <trkpt lat="48.69429" lon="2.21558">
        <ele>156.35</ele>
        <time>2021-05-22T07:48:37Z</time>
      </trkpt>
      <trkpt lat="48.69439" lon="2.21587">
        <ele>154.91</ele>
        <time>2021-05-22T07:48:48Z</time>
      </trkpt>
      <trkpt lat="48.69446" lon="2.21616">
        <ele>155.39</ele>
        <time>2021-05-22T07:48:59Z</time>
      </trkpt>
      <trkpt lat="48.69446" lon="2.21618">
        <ele>155.39</ele>
        <time>2021-05-22T07:49:00Z</time>
      </trkpt>
      <trkpt lat="48.69444" lon="2.21628">
        <ele>154.91</ele>
        <time>2021-05-22T07:49:07Z</time>
      </trkpt>
      <trkpt lat="48.69445" lon="2.2163">
        <ele>155.87</ele>
        <time>2021-05-22T07:49:08Z</time>
      </trkpt>
      <trkpt lat="48.69446" lon="2.21633">
        <ele>155.87</ele>
        <time>2021-05-22T07:49:09Z</time>
      </trkpt>
      <trkpt lat="48.69454" lon="2.21665">
        <ele>154.91</ele>
        <time>2021-05-22T07:49:21Z</time>
      </trkpt>
      <trkpt lat="48.69454" lon="2.21692">
        <ele>155.39</ele>
        <time>2021-05-22T07:49:32Z</time>
      </trkpt>
      <trkpt lat="48.69454" lon="2.21705">
        <ele>155.39</ele>
        <time>2021-05-22T07:49:38Z</time>
      </trkpt>
      <trkpt lat="48.69452" lon="2.21715">
        <ele>155.39</ele>
        <time>2021-05-22T07:49:45Z</time>
      </trkpt>
      <trkpt lat="48.69449" lon="2.21728">
        <ele>155.87</ele>
        <time>2021-05-22T07:49:50Z</time>
      </trkpt>
      <trkpt lat="48.69448" lon="2.2173">
        <ele>155.39</ele>
        <time>2021-05-22T07:49:51Z</time>
      </trkpt>
      <trkpt lat="48.69436" lon="2.21743">
        <ele>155.87</ele>
        <time>2021-05-22T07:50:05Z</time>
      </trkpt>
      <trkpt lat="48.69435" lon="2.21742">
        <ele>155.87</ele>
        <time>2021-05-22T07:50:06Z</time>
      </trkpt>
      <trkpt lat="48.69433" lon="2.21742">
        <ele>156.35</ele>
        <time>2021-05-22T07:50:07Z</time>
      </trkpt>
      <trkpt lat="48.6941" lon="2.21739">
        <ele>155.87</ele>
        <time>2021-05-22T07:50:21Z</time>
      </trkpt>
      <trkpt lat="48.69393" lon="2.2173">
        <ele>156.83</ele>
        <time>2021-05-22T07:50:34Z</time>
      </trkpt>
      <trkpt lat="48.69372" lon="2.2173">
        <ele>156.83</ele>
        <time>2021-05-22T07:50:44Z</time>
      </trkpt>
      <trkpt lat="48.69369" lon="2.21732">
        <ele>156.35</ele>
        <time>2021-05-22T07:50:45Z</time>
      </trkpt>
      <trkpt lat="48.69366" lon="2.21735">
        <ele>156.35</ele>
        <time>2021-05-22T07:50:46Z</time>
      </trkpt>
      <trkpt lat="48.69364" lon="2.21739">
        <ele>156.35</ele>
        <time>2021-05-22T07:50:47Z</time>
      </trkpt>
      <trkpt lat="48.69364" lon="2.21744">
        <ele>156.35</ele>
        <time>2021-05-22T07:50:48Z</time>
      </trkpt>
      <trkpt lat="48.69364" lon="2.21748">
        <ele>156.35</ele>
        <time>2021-05-22T07:50:49Z</time>
      </trkpt>
      <trkpt lat="48.69365" lon="2.21752">
        <ele>156.35</ele>
        <time>2021-05-22T07:50:50Z</time>
      </trkpt>
      <trkpt lat="48.69366" lon="2.21756">
        <ele>156.35</ele>
        <time>2021-05-22T07:50:51Z</time>
      </trkpt>
      <trkpt lat="48.69367" lon="2.21759">
        <ele>156.83</ele>
        <time>2021-05-22T07:50:52Z</time>
      </trkpt>
      <trkpt lat="48.69366" lon="2.21774">
        <ele>156.35</ele>
        <time>2021-05-22T07:51:00Z</time>
      </trkpt>
      <trkpt lat="48.69371" lon="2.21793">
        <ele>155.87</ele>
        <time>2021-05-22T07:51:06Z</time>
      </trkpt>
      <trkpt lat="48.69373" lon="2.2182">
        <ele>156.35</ele>
        <time>2021-05-22T07:51:18Z</time>
      </trkpt>
      <trkpt lat="48.69376" lon="2.21838">
        <ele>156.35</ele>
        <time>2021-05-22T07:51:28Z</time>
      </trkpt>
      <trkpt lat="48.69377" lon="2.2184">
        <ele>155.87</ele>
        <time>2021-05-22T07:51:29Z</time>
      </trkpt>
      <trkpt lat="48.69377" lon="2.21843">
        <ele>155.87</ele>
        <time>2021-05-22T07:51:30Z</time>
      </trkpt>
      <trkpt lat="48.69377" lon="2.21845">
        <ele>155.87</ele>
        <time>2021-05-22T07:51:31Z</time>
      </trkpt>
      <trkpt lat="48.69377" lon="2.21849">
        <ele>155.39</ele>
        <time>2021-05-22T07:51:32Z</time>
      </trkpt>
      <trkpt lat="48.69385" lon="2.21869">
        <ele>155.39</ele>
        <time>2021-05-22T07:51:42Z</time>
      </trkpt>
      <trkpt lat="48.69389" lon="2.21872">
        <ele>155.39</ele>
        <time>2021-05-22T07:51:46Z</time>
      </trkpt>
      <trkpt lat="48.69401" lon="2.21883">
        <ele>154.91</ele>
        <time>2021-05-22T07:51:56Z</time>
      </trkpt>
      <trkpt lat="48.69408" lon="2.21897">
        <ele>153.95</ele>
        <time>2021-05-22T07:52:06Z</time>
      </trkpt>
      <trkpt lat="48.69423" lon="2.21925">
        <ele>154.43</ele>
        <time>2021-05-22T07:52:19Z</time>
      </trkpt>
      <trkpt lat="48.69426" lon="2.2194">
        <ele>153.47</ele>
        <time>2021-05-22T07:52:24Z</time>
      </trkpt>
      <trkpt lat="48.69433" lon="2.21969">
        <ele>154.43</ele>
        <time>2021-05-22T07:52:36Z</time>
      </trkpt>
      <trkpt lat="48.6944" lon="2.21993">
        <ele>154.43</ele>
        <time>2021-05-22T07:52:48Z</time>
      </trkpt>
      <trkpt lat="48.69446" lon="2.22015">
        <ele>153.95</ele>
        <time>2021-05-22T07:52:59Z</time>
      </trkpt>
      <trkpt lat="48.69439" lon="2.22058">
        <ele>153.95</ele>
        <time>2021-05-22T07:53:14Z</time>
      </trkpt>
      <trkpt lat="48.6944" lon="2.22067">
        <ele>152.99</ele>
        <time>2021-05-22T07:53:18Z</time>
      </trkpt>
      <trkpt lat="48.69433" lon="2.22099">
        <ele>152.99</ele>
        <time>2021-05-22T07:53:34Z</time>
      </trkpt>
      <trkpt lat="48.69432" lon="2.22103">
        <ele>153.47</ele>
        <time>2021-05-22T07:53:36Z</time>
      </trkpt>
      <trkpt lat="48.69426" lon="2.22138">
        <ele>151.54</ele>
        <time>2021-05-22T07:53:48Z</time>
      </trkpt>
      <trkpt lat="48.6942" lon="2.22157">
        <ele>151.54</ele>
        <time>2021-05-22T07:53:58Z</time>
      </trkpt>
      <trkpt lat="48.69414" lon="2.22175">
        <ele>151.06</ele>
        <time>2021-05-22T07:54:06Z</time>
      </trkpt>
      <trkpt lat="48.69411" lon="2.22189">
        <ele>152.03</ele>
        <time>2021-05-22T07:54:13Z</time>
      </trkpt>
      <trkpt lat="48.69428" lon="2.2222">
        <ele>150.1</ele>
        <time>2021-05-22T07:54:26Z</time>
      </trkpt>
      <trkpt lat="48.69447" lon="2.22229">
        <ele>147.22</ele>
        <time>2021-05-22T07:54:37Z</time>
      </trkpt>
      <trkpt lat="48.69451" lon="2.22239">
        <ele>148.18</ele>
        <time>2021-05-22T07:54:47Z</time>
      </trkpt>
      <trkpt lat="48.69456" lon="2.22251">
        <ele>146.26</ele>
        <time>2021-05-22T07:54:56Z</time>
      </trkpt>
      <trkpt lat="48.69464" lon="2.22252">
        <ele>142.89</ele>
        <time>2021-05-22T07:55:02Z</time>
      </trkpt>
      <trkpt lat="48.69468" lon="2.22249">
        <ele>139.53</ele>
        <time>2021-05-22T07:55:07Z</time>
      </trkpt>
      <trkpt lat="48.6947" lon="2.22248">
        <ele>137.61</ele>
        <time>2021-05-22T07:55:09Z</time>
      </trkpt>
      <trkpt lat="48.69477" lon="2.22245">
        <ele>135.68</ele>
        <time>2021-05-22T07:55:13Z</time>
      </trkpt>
      <trkpt lat="48.69482" lon="2.22237">
        <ele>134.72</ele>
        <time>2021-05-22T07:55:17Z</time>
      </trkpt>
      <trkpt lat="48.6948" lon="2.22218">
        <ele>136.64</ele>
        <time>2021-05-22T07:55:28Z</time>
      </trkpt>
      <trkpt lat="48.69476" lon="2.22205">
        <ele>133.76</ele>
        <time>2021-05-22T07:55:37Z</time>
      </trkpt>
      <trkpt lat="48.69477" lon="2.22195">
        <ele>131.84</ele>
        <time>2021-05-22T07:55:40Z</time>
      </trkpt>
      <trkpt lat="48.69476" lon="2.22176">
        <ele>128.95</ele>
        <time>2021-05-22T07:55:45Z</time>
      </trkpt>
      <trkpt lat="48.69486" lon="2.22151">
        <ele>125.59</ele>
        <time>2021-05-22T07:55:55Z</time>
      </trkpt>
      <trkpt lat="48.69495" lon="2.22143">
        <ele>123.19</ele>
        <time>2021-05-22T07:56:01Z</time>
      </trkpt>
      <trkpt lat="48.69498" lon="2.22138">
        <ele>121.26</ele>
        <time>2021-05-22T07:56:04Z</time>
      </trkpt>
      <trkpt lat="48.69505" lon="2.22126">
        <ele>117.9</ele>
        <time>2021-05-22T07:56:11Z</time>
      </trkpt>
      <trkpt lat="48.69507" lon="2.22122">
        <ele>116.94</ele>
        <time>2021-05-22T07:56:13Z</time>
      </trkpt>
      <trkpt lat="48.69524" lon="2.22104">
        <ele>113.57</ele>
        <time>2021-05-22T07:56:21Z</time>
      </trkpt>
      <trkpt lat="48.69532" lon="2.22093">
        <ele>113.09</ele>
        <time>2021-05-22T07:56:26Z</time>
      </trkpt>
      <trkpt lat="48.69536" lon="2.22091">
        <ele>113.09</ele>
        <time>2021-05-22T07:56:28Z</time>
      </trkpt>
      <trkpt lat="48.69539" lon="2.22091">
        <ele>112.13</ele>
        <time>2021-05-22T07:56:30Z</time>
      </trkpt>
      <trkpt lat="48.69549" lon="2.22103">
        <ele>109.25</ele>
        <time>2021-05-22T07:56:36Z</time>
      </trkpt>
      <trkpt lat="48.69551" lon="2.22106">
        <ele>109.73</ele>
        <time>2021-05-22T07:56:37Z</time>
      </trkpt>
      <trkpt lat="48.69559" lon="2.22123">
        <ele>106.36</ele>
        <time>2021-05-22T07:56:43Z</time>
      </trkpt>
      <trkpt lat="48.69567" lon="2.22131">
        <ele>103.96</ele>
        <time>2021-05-22T07:56:49Z</time>
      </trkpt>
      <trkpt lat="48.69587" lon="2.22144">
        <ele>101.08</ele>
        <time>2021-05-22T07:57:00Z</time>
      </trkpt>
      <trkpt lat="48.6959" lon="2.22151">
        <ele>100.6</ele>
        <time>2021-05-22T07:57:02Z</time>
      </trkpt>
      <trkpt lat="48.69598" lon="2.22182">
        <ele>101.08</ele>
        <time>2021-05-22T07:57:14Z</time>
      </trkpt>
      <trkpt lat="48.69601" lon="2.22212">
        <ele>101.56</ele>
        <time>2021-05-22T07:57:25Z</time>
      </trkpt>
      <trkpt lat="48.69602" lon="2.22226">
        <ele>101.56</ele>
        <time>2021-05-22T07:57:33Z</time>
      </trkpt>
      <trkpt lat="48.69602" lon="2.22266">
        <ele>103</ele>
        <time>2021-05-22T07:57:50Z</time>
      </trkpt>
      <trkpt lat="48.69598" lon="2.22294">
        <ele>103.96</ele>
        <time>2021-05-22T07:58:03Z</time>
      </trkpt>
      <trkpt lat="48.69595" lon="2.22326">
        <ele>102.52</ele>
        <time>2021-05-22T07:58:19Z</time>
      </trkpt>
      <trkpt lat="48.69591" lon="2.22359">
        <ele>98.67</ele>
        <time>2021-05-22T07:58:30Z</time>
      </trkpt>
      <trkpt lat="48.69591" lon="2.22366">
        <ele>97.71</ele>
        <time>2021-05-22T07:58:32Z</time>
      </trkpt>
      <trkpt lat="48.69589" lon="2.22376">
        <ele>96.27</ele>
        <time>2021-05-22T07:58:35Z</time>
      </trkpt>
      <trkpt lat="48.6959" lon="2.22393">
        <ele>92.42</ele>
        <time>2021-05-22T07:58:41Z</time>
      </trkpt>
      <trkpt lat="48.69591" lon="2.22396">
        <ele>92.42</ele>
        <time>2021-05-22T07:58:42Z</time>
      </trkpt>
      <trkpt lat="48.69592" lon="2.22398">
        <ele>90.98</ele>
        <time>2021-05-22T07:58:43Z</time>
      </trkpt>
      <trkpt lat="48.69595" lon="2.22412">
        <ele>89.54</ele>
        <time>2021-05-22T07:58:47Z</time>
      </trkpt>
      <trkpt lat="48.69597" lon="2.22416">
        <ele>89.06</ele>
        <time>2021-05-22T07:58:48Z</time>
      </trkpt>
      <trkpt lat="48.69604" lon="2.22435">
        <ele>86.18</ele>
        <time>2021-05-22T07:58:54Z</time>
      </trkpt>
      <trkpt lat="48.6961" lon="2.22453">
        <ele>84.73</ele>
        <time>2021-05-22T07:59:03Z</time>
      </trkpt>
      <trkpt lat="48.69609" lon="2.22478">
        <ele>83.77</ele>
        <time>2021-05-22T07:59:12Z</time>
      </trkpt>
      <trkpt lat="48.69607" lon="2.22483">
        <ele>82.81</ele>
        <time>2021-05-22T07:59:15Z</time>
      </trkpt>
      <trkpt lat="48.69607" lon="2.22486">
        <ele>83.77</ele>
        <time>2021-05-22T07:59:16Z</time>
      </trkpt>
      <trkpt lat="48.69607" lon="2.22489">
        <ele>84.25</ele>
        <time>2021-05-22T07:59:17Z</time>
      </trkpt>
      <trkpt lat="48.69607" lon="2.22498">
        <ele>83.29</ele>
        <time>2021-05-22T07:59:20Z</time>
      </trkpt>
      <trkpt lat="48.69607" lon="2.22501">
        <ele>83.29</ele>
        <time>2021-05-22T07:59:21Z</time>
      </trkpt>
      <trkpt lat="48.69607" lon="2.22504">
        <ele>82.81</ele>
        <time>2021-05-22T07:59:22Z</time>
      </trkpt>
      <trkpt lat="48.69608" lon="2.22506">
        <ele>82.33</ele>
        <time>2021-05-22T07:59:23Z</time>
      </trkpt>
      <trkpt lat="48.69608" lon="2.22508">
        <ele>82.33</ele>
        <time>2021-05-22T07:59:24Z</time>
      </trkpt>
      <trkpt lat="48.69608" lon="2.22539">
        <ele>81.85</ele>
        <time>2021-05-22T07:59:34Z</time>
      </trkpt>
      <trkpt lat="48.69612" lon="2.22545">
        <ele>81.37</ele>
        <time>2021-05-22T07:59:38Z</time>
      </trkpt>
      <trkpt lat="48.69613" lon="2.22546">
        <ele>81.85</ele>
        <time>2021-05-22T07:59:39Z</time>
      </trkpt>
      <trkpt lat="48.69614" lon="2.22548">
        <ele>81.85</ele>
        <time>2021-05-22T07:59:40Z</time>
      </trkpt>
      <trkpt lat="48.69614" lon="2.22551">
        <ele>81.85</ele>
        <time>2021-05-22T07:59:41Z</time>
      </trkpt>
      <trkpt lat="48.69615" lon="2.22554">
        <ele>81.85</ele>
        <time>2021-05-22T07:59:42Z</time>
      </trkpt>
      <trkpt lat="48.69617" lon="2.22557">
        <ele>82.33</ele>
        <time>2021-05-22T07:59:43Z</time>
      </trkpt>
      <trkpt lat="48.69617" lon="2.22579">
        <ele>82.81</ele>
        <time>2021-05-22T07:59:54Z</time>
      </trkpt>
      <trkpt lat="48.69629" lon="2.22605">
        <ele>83.29</ele>
        <time>2021-05-22T08:00:06Z</time>
      </trkpt>
      <trkpt lat="48.69635" lon="2.22632">
        <ele>82.81</ele>
        <time>2021-05-22T08:00:19Z</time>
      </trkpt>
      <trkpt lat="48.69629" lon="2.2266">
        <ele>85.69</ele>
        <time>2021-05-22T08:00:32Z</time>
      </trkpt>
      <trkpt lat="48.6962" lon="2.22676">
        <ele>87.14</ele>
        <time>2021-05-22T08:00:41Z</time>
      </trkpt>
      <trkpt lat="48.6962" lon="2.22679">
        <ele>88.1</ele>
        <time>2021-05-22T08:00:42Z</time>
      </trkpt>
      <trkpt lat="48.69615" lon="2.22708">
        <ele>90.5</ele>
        <time>2021-05-22T08:00:56Z</time>
      </trkpt>
      <trkpt lat="48.69615" lon="2.22713">
        <ele>90.98</ele>
        <time>2021-05-22T08:00:59Z</time>
      </trkpt>
      <trkpt lat="48.69614" lon="2.22736">
        <ele>92.9</ele>
        <time>2021-05-22T08:01:06Z</time>
      </trkpt>
      <trkpt lat="48.69613" lon="2.22739">
        <ele>94.83</ele>
        <time>2021-05-22T08:01:08Z</time>
      </trkpt>
      <trkpt lat="48.69618" lon="2.22748">
        <ele>96.27</ele>
        <time>2021-05-22T08:01:16Z</time>
      </trkpt>
      <trkpt lat="48.69618" lon="2.2275">
        <ele>96.75</ele>
        <time>2021-05-22T08:01:17Z</time>
      </trkpt>
      <trkpt lat="48.69617" lon="2.22752">
        <ele>96.75</ele>
        <time>2021-05-22T08:01:18Z</time>
      </trkpt>
      <trkpt lat="48.69616" lon="2.22755">
        <ele>96.75</ele>
        <time>2021-05-22T08:01:19Z</time>
      </trkpt>
      <trkpt lat="48.69615" lon="2.22758">
        <ele>96.75</ele>
        <time>2021-05-22T08:01:20Z</time>
      </trkpt>
      <trkpt lat="48.69615" lon="2.22762">
        <ele>97.23</ele>
        <time>2021-05-22T08:01:21Z</time>
      </trkpt>
      <trkpt lat="48.69615" lon="2.22771">
        <ele>96.75</ele>
        <time>2021-05-22T08:01:25Z</time>
      </trkpt>
      <trkpt lat="48.69598" lon="2.22797">
        <ele>95.79</ele>
        <time>2021-05-22T08:01:42Z</time>
      </trkpt>
      <trkpt lat="48.69592" lon="2.22828">
        <ele>94.83</ele>
        <time>2021-05-22T08:01:55Z</time>
      </trkpt>
      <trkpt lat="48.69593" lon="2.22836">
        <ele>93.87</ele>
        <time>2021-05-22T08:01:58Z</time>
      </trkpt>
      <trkpt lat="48.69592" lon="2.22838">
        <ele>94.35</ele>
        <time>2021-05-22T08:01:59Z</time>
      </trkpt>
      <trkpt lat="48.69592" lon="2.22841">
        <ele>93.39</ele>
        <time>2021-05-22T08:02:00Z</time>
      </trkpt>
      <trkpt lat="48.69592" lon="2.22844">
        <ele>93.87</ele>
        <time>2021-05-22T08:02:01Z</time>
      </trkpt>
      <trkpt lat="48.69592" lon="2.22846">
        <ele>93.39</ele>
        <time>2021-05-22T08:02:02Z</time>
      </trkpt>
      <trkpt lat="48.69593" lon="2.22848">
        <ele>93.39</ele>
        <time>2021-05-22T08:02:03Z</time>
      </trkpt>
      <trkpt lat="48.69593" lon="2.22884">
        <ele>91.46</ele>
        <time>2021-05-22T08:02:16Z</time>
      </trkpt>
      <trkpt lat="48.69596" lon="2.22941">
        <ele>90.02</ele>
        <time>2021-05-22T08:02:29Z</time>
      </trkpt>
      <trkpt lat="48.69602" lon="2.2298">
        <ele>88.58</ele>
        <time>2021-05-22T08:02:40Z</time>
      </trkpt>
      <trkpt lat="48.69604" lon="2.22983">
        <ele>89.06</ele>
        <time>2021-05-22T08:02:41Z</time>
      </trkpt>
      <trkpt lat="48.69606" lon="2.22986">
        <ele>88.58</ele>
        <time>2021-05-22T08:02:42Z</time>
      </trkpt>
      <trkpt lat="48.69609" lon="2.22988">
        <ele>88.1</ele>
        <time>2021-05-22T08:02:43Z</time>
      </trkpt>
      <trkpt lat="48.69614" lon="2.22991">
        <ele>88.58</ele>
        <time>2021-05-22T08:02:46Z</time>
      </trkpt>
      <trkpt lat="48.69617" lon="2.22991">
        <ele>89.06</ele>
        <time>2021-05-22T08:02:48Z</time>
      </trkpt>
      <trkpt lat="48.69618" lon="2.2299">
        <ele>88.58</ele>
        <time>2021-05-22T08:02:49Z</time>
      </trkpt>
      <trkpt lat="48.69626" lon="2.22987">
        <ele>88.58</ele>
        <time>2021-05-22T08:02:56Z</time>
      </trkpt>
      <trkpt lat="48.6964" lon="2.22986">
        <ele>88.58</ele>
        <time>2021-05-22T08:03:05Z</time>
      </trkpt>
      <trkpt lat="48.69645" lon="2.22988">
        <ele>88.1</ele>
        <time>2021-05-22T08:03:10Z</time>
      </trkpt>
      <trkpt lat="48.69646" lon="2.2299">
        <ele>88.58</ele>
        <time>2021-05-22T08:03:11Z</time>
      </trkpt>
      <trkpt lat="48.69648" lon="2.22995">
        <ele>88.1</ele>
        <time>2021-05-22T08:03:13Z</time>
      </trkpt>
      <trkpt lat="48.6965" lon="2.22997">
        <ele>88.58</ele>
        <time>2021-05-22T08:03:14Z</time>
      </trkpt>
      <trkpt lat="48.69651" lon="2.23">
        <ele>88.1</ele>
        <time>2021-05-22T08:03:15Z</time>
      </trkpt>
      <trkpt lat="48.69653" lon="2.23003">
        <ele>88.1</ele>
        <time>2021-05-22T08:03:16Z</time>
      </trkpt>
      <trkpt lat="48.69654" lon="2.23005">
        <ele>88.1</ele>
        <time>2021-05-22T08:03:17Z</time>
      </trkpt>
      <trkpt lat="48.69655" lon="2.23009">
        <ele>88.1</ele>
        <time>2021-05-22T08:03:21Z</time>
      </trkpt>
      <trkpt lat="48.69655" lon="2.2301">
        <ele>88.1</ele>
        <time>2021-05-22T08:03:22Z</time>
      </trkpt>
      <trkpt lat="48.69655" lon="2.23012">
        <ele>88.1</ele>
        <time>2021-05-22T08:03:23Z</time>
      </trkpt>
      <trkpt lat="48.69664" lon="2.23041">
        <ele>88.58</ele>
        <time>2021-05-22T08:03:33Z</time>
      </trkpt>
      <trkpt lat="48.69662" lon="2.23044">
        <ele>88.58</ele>
        <time>2021-05-22T08:03:34Z</time>
      </trkpt>
      <trkpt lat="48.69662" lon="2.23047">
        <ele>89.54</ele>
        <time>2021-05-22T08:03:35Z</time>
      </trkpt>
      <trkpt lat="48.69662" lon="2.23049">
        <ele>88.58</ele>
        <time>2021-05-22T08:03:36Z</time>
      </trkpt>
      <trkpt lat="48.69662" lon="2.23051">
        <ele>89.54</ele>
        <time>2021-05-22T08:03:37Z</time>
      </trkpt>
      <trkpt lat="48.69662" lon="2.23054">
        <ele>89.06</ele>
        <time>2021-05-22T08:03:38Z</time>
      </trkpt>
      <trkpt lat="48.69667" lon="2.23065">
        <ele>88.58</ele>
        <time>2021-05-22T08:03:42Z</time>
      </trkpt>
      <trkpt lat="48.69671" lon="2.2309">
        <ele>89.06</ele>
        <time>2021-05-22T08:03:53Z</time>
      </trkpt>
      <trkpt lat="48.69678" lon="2.23121">
        <ele>88.58</ele>
        <time>2021-05-22T08:04:08Z</time>
      </trkpt>
      <trkpt lat="48.69682" lon="2.23138">
        <ele>88.1</ele>
        <time>2021-05-22T08:04:17Z</time>
      </trkpt>
      <trkpt lat="48.69682" lon="2.23141">
        <ele>87.62</ele>
        <time>2021-05-22T08:04:18Z</time>
      </trkpt>
      <trkpt lat="48.69682" lon="2.23143">
        <ele>87.62</ele>
        <time>2021-05-22T08:04:19Z</time>
      </trkpt>
      <trkpt lat="48.69683" lon="2.23147">
        <ele>87.14</ele>
        <time>2021-05-22T08:04:20Z</time>
      </trkpt>
      <trkpt lat="48.69684" lon="2.23152">
        <ele>87.62</ele>
        <time>2021-05-22T08:04:21Z</time>
      </trkpt>
      <trkpt lat="48.69692" lon="2.23186">
        <ele>85.69</ele>
        <time>2021-05-22T08:04:31Z</time>
      </trkpt>
      <trkpt lat="48.69694" lon="2.23187">
        <ele>85.21</ele>
        <time>2021-05-22T08:04:32Z</time>
      </trkpt>
      <trkpt lat="48.69695" lon="2.23184">
        <ele>85.21</ele>
        <time>2021-05-22T08:04:33Z</time>
      </trkpt>
      <trkpt lat="48.69697" lon="2.23182">
        <ele>85.21</ele>
        <time>2021-05-22T08:04:34Z</time>
      </trkpt>
      <trkpt lat="48.69698" lon="2.23181">
        <ele>85.21</ele>
        <time>2021-05-22T08:04:35Z</time>
      </trkpt>
      <trkpt lat="48.69699" lon="2.23181">
        <ele>85.69</ele>
        <time>2021-05-22T08:04:36Z</time>
      </trkpt>
      <trkpt lat="48.6972" lon="2.2317">
        <ele>85.21</ele>
        <time>2021-05-22T08:04:48Z</time>
      </trkpt>
      <trkpt lat="48.69728" lon="2.2317">
        <ele>85.21</ele>
        <time>2021-05-22T08:04:51Z</time>
      </trkpt>
      <trkpt lat="48.6973" lon="2.23178">
        <ele>84.73</ele>
        <time>2021-05-22T08:04:55Z</time>
      </trkpt>
      <trkpt lat="48.69723" lon="2.23199">
        <ele>87.14</ele>
        <time>2021-05-22T08:05:05Z</time>
      </trkpt>
      <trkpt lat="48.69723" lon="2.23215">
        <ele>86.66</ele>
        <time>2021-05-22T08:05:12Z</time>
      </trkpt>
      <trkpt lat="48.69721" lon="2.23218">
        <ele>86.66</ele>
        <time>2021-05-22T08:05:14Z</time>
      </trkpt>
      <trkpt lat="48.69728" lon="2.23249">
        <ele>87.14</ele>
        <time>2021-05-22T08:05:25Z</time>
      </trkpt>
      <trkpt lat="48.6973" lon="2.23279">
        <ele>87.14</ele>
        <time>2021-05-22T08:05:36Z</time>
      </trkpt>
      <trkpt lat="48.69735" lon="2.23304">
        <ele>87.62</ele>
        <time>2021-05-22T08:05:46Z</time>
      </trkpt>
      <trkpt lat="48.69734" lon="2.23308">
        <ele>86.66</ele>
        <time>2021-05-22T08:05:50Z</time>
      </trkpt>
      <trkpt lat="48.69735" lon="2.23309">
        <ele>86.66</ele>
        <time>2021-05-22T08:05:51Z</time>
      </trkpt>
      <trkpt lat="48.69736" lon="2.23312">
        <ele>86.66</ele>
        <time>2021-05-22T08:05:52Z</time>
      </trkpt>
      <trkpt lat="48.69738" lon="2.23315">
        <ele>86.66</ele>
        <time>2021-05-22T08:05:53Z</time>
      </trkpt>
      <trkpt lat="48.6974" lon="2.23318">
        <ele>86.66</ele>
        <time>2021-05-22T08:05:54Z</time>
      </trkpt>
      <trkpt lat="48.69753" lon="2.23339">
        <ele>86.18</ele>
        <time>2021-05-22T08:06:05Z</time>
      </trkpt>
      <trkpt lat="48.6976" lon="2.23363">
        <ele>86.66</ele>
        <time>2021-05-22T08:06:16Z</time>
      </trkpt>
      <trkpt lat="48.6976" lon="2.23365">
        <ele>86.18</ele>
        <time>2021-05-22T08:06:17Z</time>
      </trkpt>
      <trkpt lat="48.69764" lon="2.23393">
        <ele>86.66</ele>
        <time>2021-05-22T08:06:28Z</time>
      </trkpt>
      <trkpt lat="48.69766" lon="2.23401">
        <ele>87.14</ele>
        <time>2021-05-22T08:06:31Z</time>
      </trkpt>
      <trkpt lat="48.69767" lon="2.23411">
        <ele>87.14</ele>
        <time>2021-05-22T08:06:37Z</time>
      </trkpt>
      <trkpt lat="48.6978" lon="2.23453">
        <ele>87.14</ele>
        <time>2021-05-22T08:06:52Z</time>
      </trkpt>
      <trkpt lat="48.69779" lon="2.23461">
        <ele>87.14</ele>
        <time>2021-05-22T08:06:57Z</time>
      </trkpt>
      <trkpt lat="48.69779" lon="2.23463">
        <ele>87.14</ele>
        <time>2021-05-22T08:06:58Z</time>
      </trkpt>
      <trkpt lat="48.69779" lon="2.23466">
        <ele>87.14</ele>
        <time>2021-05-22T08:06:59Z</time>
      </trkpt>
      <trkpt lat="48.69778" lon="2.23469">
        <ele>87.62</ele>
        <time>2021-05-22T08:07:00Z</time>
      </trkpt>
      <trkpt lat="48.69779" lon="2.23473">
        <ele>87.62</ele>
        <time>2021-05-22T08:07:01Z</time>
      </trkpt>
      <trkpt lat="48.69779" lon="2.23477">
        <ele>87.62</ele>
        <time>2021-05-22T08:07:02Z</time>
      </trkpt>
      <trkpt lat="48.69779" lon="2.23482">
        <ele>87.62</ele>
        <time>2021-05-22T08:07:05Z</time>
      </trkpt>
      <trkpt lat="48.69778" lon="2.23484">
        <ele>87.62</ele>
        <time>2021-05-22T08:07:07Z</time>
      </trkpt>
      <trkpt lat="48.69778" lon="2.23486">
        <ele>87.62</ele>
        <time>2021-05-22T08:07:08Z</time>
      </trkpt>
      <trkpt lat="48.69778" lon="2.23488">
        <ele>87.14</ele>
        <time>2021-05-22T08:07:09Z</time>
      </trkpt>
      <trkpt lat="48.69779" lon="2.2349">
        <ele>87.14</ele>
        <time>2021-05-22T08:07:10Z</time>
      </trkpt>
      <trkpt lat="48.6978" lon="2.23492">
        <ele>87.14</ele>
        <time>2021-05-22T08:07:11Z</time>
      </trkpt>
      <trkpt lat="48.69787" lon="2.23502">
        <ele>84.73</ele>
        <time>2021-05-22T08:07:18Z</time>
      </trkpt>
      <trkpt lat="48.69786" lon="2.23497">
        <ele>83.29</ele>
        <time>2021-05-22T08:07:20Z</time>
      </trkpt>
      <trkpt lat="48.69785" lon="2.23485">
        <ele>79.93</ele>
        <time>2021-05-22T08:07:25Z</time>
      </trkpt>
      <trkpt lat="48.69788" lon="2.23482">
        <ele>79.93</ele>
        <time>2021-05-22T08:07:26Z</time>
      </trkpt>
      <trkpt lat="48.69793" lon="2.23473">
        <ele>78</ele>
        <time>2021-05-22T08:07:30Z</time>
      </trkpt>
      <trkpt lat="48.69795" lon="2.23474">
        <ele>77.52</ele>
        <time>2021-05-22T08:07:33Z</time>
      </trkpt>
      <trkpt lat="48.69796" lon="2.23475">
        <ele>77.52</ele>
        <time>2021-05-22T08:07:34Z</time>
      </trkpt>
      <trkpt lat="48.69825" lon="2.23474">
        <ele>75.12</ele>
        <time>2021-05-22T08:07:41Z</time>
      </trkpt>
      <trkpt lat="48.69836" lon="2.23472">
        <ele>73.68</ele>
        <time>2021-05-22T08:07:45Z</time>
      </trkpt>
      <trkpt lat="48.69851" lon="2.23473">
        <ele>72.24</ele>
        <time>2021-05-22T08:07:50Z</time>
      </trkpt>
      <trkpt lat="48.69861" lon="2.23463">
        <ele>72.24</ele>
        <time>2021-05-22T08:07:53Z</time>
      </trkpt>
      <trkpt lat="48.69863" lon="2.23459">
        <ele>71.76</ele>
        <time>2021-05-22T08:07:54Z</time>
      </trkpt>
      <trkpt lat="48.69864" lon="2.23457">
        <ele>71.76</ele>
        <time>2021-05-22T08:07:55Z</time>
      </trkpt>
      <trkpt lat="48.69866" lon="2.23455">
        <ele>71.27</ele>
        <time>2021-05-22T08:07:56Z</time>
      </trkpt>
      <trkpt lat="48.69867" lon="2.23453">
        <ele>71.27</ele>
        <time>2021-05-22T08:07:57Z</time>
      </trkpt>
      <trkpt lat="48.69874" lon="2.23455">
        <ele>68.39</ele>
        <time>2021-05-22T08:08:06Z</time>
      </trkpt>
      <trkpt lat="48.69881" lon="2.23463">
        <ele>66.95</ele>
        <time>2021-05-22T08:08:13Z</time>
      </trkpt>
      <trkpt lat="48.69898" lon="2.23468">
        <ele>66.95</ele>
        <time>2021-05-22T08:08:18Z</time>
      </trkpt>
      <trkpt lat="48.69925" lon="2.23464">
        <ele>66.47</ele>
        <time>2021-05-22T08:08:24Z</time>
      </trkpt>
      <trkpt lat="48.69948" lon="2.23463">
        <ele>63.1</ele>
        <time>2021-05-22T08:08:29Z</time>
      </trkpt>
      <trkpt lat="48.6996" lon="2.23455">
        <ele>61.18</ele>
        <time>2021-05-22T08:08:33Z</time>
      </trkpt>
      <trkpt lat="48.6998" lon="2.23442">
        <ele>59.74</ele>
        <time>2021-05-22T08:08:40Z</time>
      </trkpt>
      <trkpt lat="48.70004" lon="2.23443">
        <ele>56.86</ele>
        <time>2021-05-22T08:08:48Z</time>
      </trkpt>
      <trkpt lat="48.70032" lon="2.23449">
        <ele>53.97</ele>
        <time>2021-05-22T08:08:58Z</time>
      </trkpt>
      <trkpt lat="48.70056" lon="2.23443">
        <ele>52.05</ele>
        <time>2021-05-22T08:09:08Z</time>
      </trkpt>
      <trkpt lat="48.70059" lon="2.23445">
        <ele>52.53</ele>
        <time>2021-05-22T08:09:09Z</time>
      </trkpt>
      <trkpt lat="48.70062" lon="2.23451">
        <ele>52.05</ele>
        <time>2021-05-22T08:09:11Z</time>
      </trkpt>
      <trkpt lat="48.70063" lon="2.23455">
        <ele>51.57</ele>
        <time>2021-05-22T08:09:12Z</time>
      </trkpt>
      <trkpt lat="48.70067" lon="2.23475">
        <ele>51.57</ele>
        <time>2021-05-22T08:09:20Z</time>
      </trkpt>
      <trkpt lat="48.70068" lon="2.2348">
        <ele>51.57</ele>
        <time>2021-05-22T08:09:24Z</time>
      </trkpt>
      <trkpt lat="48.70062" lon="2.23515">
        <ele>52.05</ele>
        <time>2021-05-22T08:09:34Z</time>
      </trkpt>
      <trkpt lat="48.70065" lon="2.23529">
        <ele>51.57</ele>
        <time>2021-05-22T08:09:45Z</time>
      </trkpt>
      <trkpt lat="48.70069" lon="2.23535">
        <ele>51.57</ele>
        <time>2021-05-22T08:09:48Z</time>
      </trkpt>
      <trkpt lat="48.70068" lon="2.23541">
        <ele>52.05</ele>
        <time>2021-05-22T08:09:49Z</time>
      </trkpt>
      <trkpt lat="48.70068" lon="2.2355">
        <ele>51.09</ele>
        <time>2021-05-22T08:09:51Z</time>
      </trkpt>
      <trkpt lat="48.70066" lon="2.23564">
        <ele>52.05</ele>
        <time>2021-05-22T08:09:56Z</time>
      </trkpt>
      <trkpt lat="48.70064" lon="2.23571">
        <ele>52.05</ele>
        <time>2021-05-22T08:10:01Z</time>
      </trkpt>
      <trkpt lat="48.70064" lon="2.23574">
        <ele>52.05</ele>
        <time>2021-05-22T08:10:02Z</time>
      </trkpt>
      <trkpt lat="48.70065" lon="2.23576">
        <ele>52.53</ele>
        <time>2021-05-22T08:10:03Z</time>
      </trkpt>
      <trkpt lat="48.70077" lon="2.23598">
        <ele>51.57</ele>
        <time>2021-05-22T08:10:13Z</time>
      </trkpt>
      <trkpt lat="48.7008" lon="2.23601">
        <ele>51.57</ele>
        <time>2021-05-22T08:10:15Z</time>
      </trkpt>
      <trkpt lat="48.70097" lon="2.2363">
        <ele>52.05</ele>
        <time>2021-05-22T08:10:28Z</time>
      </trkpt>
      <trkpt lat="48.70111" lon="2.23651">
        <ele>50.61</ele>
        <time>2021-05-22T08:10:39Z</time>
      </trkpt>
      <trkpt lat="48.70126" lon="2.23675">
        <ele>51.09</ele>
        <time>2021-05-22T08:10:52Z</time>
      </trkpt>
      <trkpt lat="48.70135" lon="2.23696">
        <ele>52.05</ele>
        <time>2021-05-22T08:11:03Z</time>
      </trkpt>
      <trkpt lat="48.70142" lon="2.23702">
        <ele>52.05</ele>
        <time>2021-05-22T08:11:09Z</time>
      </trkpt>
      <trkpt lat="48.70141" lon="2.23707">
        <ele>51.57</ele>
        <time>2021-05-22T08:11:11Z</time>
      </trkpt>
      <trkpt lat="48.70145" lon="2.23725">
        <ele>51.57</ele>
        <time>2021-05-22T08:11:19Z</time>
      </trkpt>
      <trkpt lat="48.70147" lon="2.23756">
        <ele>51.57</ele>
        <time>2021-05-22T08:11:34Z</time>
      </trkpt>
      <trkpt lat="48.70144" lon="2.23761">
        <ele>51.09</ele>
        <time>2021-05-22T08:11:37Z</time>
      </trkpt>
      <trkpt lat="48.70139" lon="2.23772">
        <ele>51.57</ele>
        <time>2021-05-22T08:11:42Z</time>
      </trkpt>
      <trkpt lat="48.70136" lon="2.23783">
        <ele>51.57</ele>
        <time>2021-05-22T08:11:45Z</time>
      </trkpt>
      <trkpt lat="48.70127" lon="2.23791">
        <ele>52.05</ele>
        <time>2021-05-22T08:11:55Z</time>
      </trkpt>
      <trkpt lat="48.70123" lon="2.23794">
        <ele>53.01</ele>
        <time>2021-05-22T08:12:00Z</time>
      </trkpt>
      <trkpt lat="48.70115" lon="2.23801">
        <ele>52.53</ele>
        <time>2021-05-22T08:12:06Z</time>
      </trkpt>
      <trkpt lat="48.70088" lon="2.2382">
        <ele>53.01</ele>
        <time>2021-05-22T08:12:21Z</time>
      </trkpt>
      <trkpt lat="48.70088" lon="2.23825">
        <ele>53.01</ele>
        <time>2021-05-22T08:12:22Z</time>
      </trkpt>
      <trkpt lat="48.70089" lon="2.23829">
        <ele>53.01</ele>
        <time>2021-05-22T08:12:23Z</time>
      </trkpt>
      <trkpt lat="48.7009" lon="2.23833">
        <ele>53.01</ele>
        <time>2021-05-22T08:12:24Z</time>
      </trkpt>
      <trkpt lat="48.70091" lon="2.23836">
        <ele>53.01</ele>
        <time>2021-05-22T08:12:25Z</time>
      </trkpt>
      <trkpt lat="48.70098" lon="2.23847">
        <ele>52.05</ele>
        <time>2021-05-22T08:12:32Z</time>
      </trkpt>
      <trkpt lat="48.70099" lon="2.23849">
        <ele>52.53</ele>
        <time>2021-05-22T08:12:33Z</time>
      </trkpt>
      <trkpt lat="48.70099" lon="2.23853">
        <ele>52.53</ele>
        <time>2021-05-22T08:12:34Z</time>
      </trkpt>
      <trkpt lat="48.701" lon="2.23856">
        <ele>52.53</ele>
        <time>2021-05-22T08:12:35Z</time>
      </trkpt>
      <trkpt lat="48.70101" lon="2.23859">
        <ele>52.53</ele>
        <time>2021-05-22T08:12:36Z</time>
      </trkpt>
      <trkpt lat="48.70115" lon="2.23883">
        <ele>53.01</ele>
        <time>2021-05-22T08:12:48Z</time>
      </trkpt>
      <trkpt lat="48.70125" lon="2.23905">
        <ele>53.01</ele>
        <time>2021-05-22T08:12:59Z</time>
      </trkpt>
      <trkpt lat="48.70125" lon="2.23908">
        <ele>53.49</ele>
        <time>2021-05-22T08:13:00Z</time>
      </trkpt>
      <trkpt lat="48.70125" lon="2.23911">
        <ele>53.49</ele>
        <time>2021-05-22T08:13:01Z</time>
      </trkpt>
      <trkpt lat="48.70126" lon="2.23914">
        <ele>53.49</ele>
        <time>2021-05-22T08:13:02Z</time>
      </trkpt>
      <trkpt lat="48.70128" lon="2.23917">
        <ele>53.01</ele>
        <time>2021-05-22T08:13:03Z</time>
      </trkpt>
      <trkpt lat="48.70129" lon="2.2392">
        <ele>53.01</ele>
        <time>2021-05-22T08:13:04Z</time>
      </trkpt>
      <trkpt lat="48.70142" lon="2.23941">
        <ele>52.53</ele>
        <time>2021-05-22T08:13:15Z</time>
      </trkpt>
      <trkpt lat="48.70144" lon="2.23942">
        <ele>52.53</ele>
        <time>2021-05-22T08:13:16Z</time>
      </trkpt>
      <trkpt lat="48.70145" lon="2.23943">
        <ele>52.53</ele>
        <time>2021-05-22T08:13:17Z</time>
      </trkpt>
      <trkpt lat="48.70147" lon="2.23943">
        <ele>52.53</ele>
        <time>2021-05-22T08:13:18Z</time>
      </trkpt>
      <trkpt lat="48.70148" lon="2.23944">
        <ele>52.53</ele>
        <time>2021-05-22T08:13:19Z</time>
      </trkpt>
      <trkpt lat="48.7015" lon="2.23946">
        <ele>51.57</ele>
        <time>2021-05-22T08:13:22Z</time>
      </trkpt>
      <trkpt lat="48.7015" lon="2.23948">
        <ele>52.05</ele>
        <time>2021-05-22T08:13:23Z</time>
      </trkpt>
      <trkpt lat="48.70151" lon="2.2395">
        <ele>52.05</ele>
        <time>2021-05-22T08:13:24Z</time>
      </trkpt>
      <trkpt lat="48.70161" lon="2.23963">
        <ele>51.09</ele>
        <time>2021-05-22T08:13:33Z</time>
      </trkpt>
      <trkpt lat="48.70162" lon="2.23964">
        <ele>51.57</ele>
        <time>2021-05-22T08:13:34Z</time>
      </trkpt>
      <trkpt lat="48.70163" lon="2.23965">
        <ele>51.09</ele>
        <time>2021-05-22T08:13:35Z</time>
      </trkpt>
      <trkpt lat="48.70166" lon="2.23967">
        <ele>51.09</ele>
        <time>2021-05-22T08:13:36Z</time>
      </trkpt>
      <trkpt lat="48.70168" lon="2.23969">
        <ele>51.09</ele>
        <time>2021-05-22T08:13:37Z</time>
      </trkpt>
      <trkpt lat="48.70181" lon="2.23978">
        <ele>51.57</ele>
        <time>2021-05-22T08:13:46Z</time>
      </trkpt>
      <trkpt lat="48.70183" lon="2.23979">
        <ele>51.57</ele>
        <time>2021-05-22T08:13:47Z</time>
      </trkpt>
      <trkpt lat="48.70185" lon="2.2398">
        <ele>51.57</ele>
        <time>2021-05-22T08:13:48Z</time>
      </trkpt>
      <trkpt lat="48.70195" lon="2.23997">
        <ele>51.09</ele>
        <time>2021-05-22T08:13:58Z</time>
      </trkpt>
      <trkpt lat="48.70196" lon="2.24001">
        <ele>51.09</ele>
        <time>2021-05-22T08:14:00Z</time>
      </trkpt>
      <trkpt lat="48.70206" lon="2.24019">
        <ele>50.61</ele>
        <time>2021-05-22T08:14:09Z</time>
      </trkpt>
      <trkpt lat="48.70219" lon="2.24032">
        <ele>51.57</ele>
        <time>2021-05-22T08:14:20Z</time>
      </trkpt>
      <trkpt lat="48.7022" lon="2.24035">
        <ele>51.57</ele>
        <time>2021-05-22T08:14:22Z</time>
      </trkpt>
      <trkpt lat="48.7022" lon="2.24038">
        <ele>51.57</ele>
        <time>2021-05-22T08:14:23Z</time>
      </trkpt>
      <trkpt lat="48.70227" lon="2.24058">
        <ele>53.49</ele>
        <time>2021-05-22T08:14:34Z</time>
      </trkpt>
      <trkpt lat="48.70242" lon="2.24073">
        <ele>53.01</ele>
        <time>2021-05-22T08:14:46Z</time>
      </trkpt>
      <trkpt lat="48.70245" lon="2.24078">
        <ele>53.01</ele>
        <time>2021-05-22T08:14:49Z</time>
      </trkpt>
      <trkpt lat="48.70272" lon="2.24083">
        <ele>52.53</ele>
        <time>2021-05-22T08:15:05Z</time>
      </trkpt>
      <trkpt lat="48.70298" lon="2.24089">
        <ele>52.53</ele>
        <time>2021-05-22T08:15:17Z</time>
      </trkpt>
      <trkpt lat="48.7031" lon="2.2411">
        <ele>52.53</ele>
        <time>2021-05-22T08:15:30Z</time>
      </trkpt>
      <trkpt lat="48.70324" lon="2.24127">
        <ele>52.05</ele>
        <time>2021-05-22T08:15:44Z</time>
      </trkpt>
      <trkpt lat="48.70332" lon="2.24131">
        <ele>51.57</ele>
        <time>2021-05-22T08:15:48Z</time>
      </trkpt>
      <trkpt lat="48.70334" lon="2.24132">
        <ele>51.57</ele>
        <time>2021-05-22T08:15:49Z</time>
      </trkpt>
      <trkpt lat="48.70336" lon="2.24133">
        <ele>52.05</ele>
        <time>2021-05-22T08:15:50Z</time>
      </trkpt>
      <trkpt lat="48.70337" lon="2.24135">
        <ele>52.05</ele>
        <time>2021-05-22T08:15:51Z</time>
      </trkpt>
      <trkpt lat="48.70339" lon="2.24137">
        <ele>52.05</ele>
        <time>2021-05-22T08:15:52Z</time>
      </trkpt>
      <trkpt lat="48.70354" lon="2.24147">
        <ele>51.57</ele>
        <time>2021-05-22T08:16:03Z</time>
      </trkpt>
      <trkpt lat="48.70355" lon="2.24148">
        <ele>52.05</ele>
        <time>2021-05-22T08:16:04Z</time>
      </trkpt>
      <trkpt lat="48.70359" lon="2.24163">
        <ele>51.57</ele>
        <time>2021-05-22T08:16:18Z</time>
      </trkpt>
      <trkpt lat="48.7036" lon="2.24161">
        <ele>52.05</ele>
        <time>2021-05-22T08:16:51Z</time>
      </trkpt>
      <trkpt lat="48.70359" lon="2.24161">
        <ele>51.57</ele>
        <time>2021-05-22T08:17:24Z</time>
      </trkpt>
      <trkpt lat="48.7036" lon="2.24164">
        <ele>52.05</ele>
        <time>2021-05-22T08:17:29Z</time>
      </trkpt>
      <trkpt lat="48.70363" lon="2.24196">
        <ele>51.09</ele>
        <time>2021-05-22T08:17:44Z</time>
      </trkpt>
      <trkpt lat="48.70382" lon="2.2422">
        <ele>50.61</ele>
        <time>2021-05-22T08:17:57Z</time>
      </trkpt>
      <trkpt lat="48.70399" lon="2.24229">
        <ele>51.09</ele>
        <time>2021-05-22T08:18:09Z</time>
      </trkpt>
      <trkpt lat="48.70411" lon="2.24238">
        <ele>51.57</ele>
        <time>2021-05-22T08:18:18Z</time>
      </trkpt>
      <trkpt lat="48.70428" lon="2.24252">
        <ele>50.13</ele>
        <time>2021-05-22T08:18:31Z</time>
      </trkpt>
      <trkpt lat="48.70432" lon="2.24257">
        <ele>50.13</ele>
        <time>2021-05-22T08:18:33Z</time>
      </trkpt>
      <trkpt lat="48.70437" lon="2.24263">
        <ele>50.61</ele>
        <time>2021-05-22T08:18:36Z</time>
      </trkpt>
      <trkpt lat="48.7044" lon="2.24263">
        <ele>51.09</ele>
        <time>2021-05-22T08:18:37Z</time>
      </trkpt>
      <trkpt lat="48.70442" lon="2.24264">
        <ele>50.61</ele>
        <time>2021-05-22T08:18:38Z</time>
      </trkpt>
      <trkpt lat="48.70444" lon="2.24264">
        <ele>50.61</ele>
        <time>2021-05-22T08:18:39Z</time>
      </trkpt>
      <trkpt lat="48.70446" lon="2.24263">
        <ele>51.09</ele>
        <time>2021-05-22T08:18:40Z</time>
      </trkpt>
      <trkpt lat="48.70448" lon="2.24264">
        <ele>50.61</ele>
        <time>2021-05-22T08:18:42Z</time>
      </trkpt>
      <trkpt lat="48.70449" lon="2.24265">
        <ele>51.09</ele>
        <time>2021-05-22T08:18:43Z</time>
      </trkpt>
      <trkpt lat="48.70451" lon="2.24267">
        <ele>51.09</ele>
        <time>2021-05-22T08:18:44Z</time>
      </trkpt>
      <trkpt lat="48.70453" lon="2.24269">
        <ele>51.57</ele>
        <time>2021-05-22T08:18:45Z</time>
      </trkpt>
      <trkpt lat="48.70456" lon="2.24271">
        <ele>51.09</ele>
        <time>2021-05-22T08:18:46Z</time>
      </trkpt>
      <trkpt lat="48.70457" lon="2.24273">
        <ele>51.09</ele>
        <time>2021-05-22T08:18:47Z</time>
      </trkpt>
      <trkpt lat="48.70463" lon="2.24282">
        <ele>51.09</ele>
        <time>2021-05-22T08:18:56Z</time>
      </trkpt>
      <trkpt lat="48.70462" lon="2.2428">
        <ele>51.57</ele>
        <time>2021-05-22T08:18:57Z</time>
      </trkpt>
      <trkpt lat="48.70459" lon="2.24273">
        <ele>50.61</ele>
        <time>2021-05-22T08:19:01Z</time>
      </trkpt>
      <trkpt lat="48.70458" lon="2.24271">
        <ele>51.09</ele>
        <time>2021-05-22T08:19:03Z</time>
      </trkpt>
      <trkpt lat="48.70457" lon="2.2427">
        <ele>51.57</ele>
        <time>2021-05-22T08:19:04Z</time>
      </trkpt>
      <trkpt lat="48.70449" lon="2.24268">
        <ele>51.57</ele>
        <time>2021-05-22T08:19:07Z</time>
      </trkpt>
      <trkpt lat="48.70447" lon="2.24268">
        <ele>51.57</ele>
        <time>2021-05-22T08:19:08Z</time>
      </trkpt>
      <trkpt lat="48.70443" lon="2.24265">
        <ele>51.09</ele>
        <time>2021-05-22T08:19:12Z</time>
      </trkpt>
      <trkpt lat="48.70441" lon="2.24263">
        <ele>51.57</ele>
        <time>2021-05-22T08:19:14Z</time>
      </trkpt>
      <trkpt lat="48.70439" lon="2.24263">
        <ele>51.09</ele>
        <time>2021-05-22T08:19:15Z</time>
      </trkpt>
      <trkpt lat="48.70437" lon="2.24264">
        <ele>51.57</ele>
        <time>2021-05-22T08:19:16Z</time>
      </trkpt>
      <trkpt lat="48.70434" lon="2.24264">
        <ele>52.05</ele>
        <time>2021-05-22T08:19:17Z</time>
      </trkpt>
      <trkpt lat="48.70432" lon="2.24263">
        <ele>51.57</ele>
        <time>2021-05-22T08:19:18Z</time>
      </trkpt>
      <trkpt lat="48.70431" lon="2.24261">
        <ele>51.57</ele>
        <time>2021-05-22T08:19:19Z</time>
      </trkpt>
      <trkpt lat="48.70429" lon="2.2426">
        <ele>51.57</ele>
        <time>2021-05-22T08:19:20Z</time>
      </trkpt>
      <trkpt lat="48.70426" lon="2.24255">
        <ele>53.01</ele>
        <time>2021-05-22T08:19:24Z</time>
      </trkpt>
      <trkpt lat="48.70427" lon="2.24253">
        <ele>53.01</ele>
        <time>2021-05-22T08:19:25Z</time>
      </trkpt>
      <trkpt lat="48.70428" lon="2.24251">
        <ele>52.53</ele>
        <time>2021-05-22T08:19:26Z</time>
      </trkpt>
      <trkpt lat="48.70439" lon="2.24229">
        <ele>52.05</ele>
        <time>2021-05-22T08:19:36Z</time>
      </trkpt>
      <trkpt lat="48.70441" lon="2.24224">
        <ele>52.53</ele>
        <time>2021-05-22T08:19:40Z</time>
      </trkpt>
      <trkpt lat="48.70442" lon="2.24222">
        <ele>52.53</ele>
        <time>2021-05-22T08:19:41Z</time>
      </trkpt>
      <trkpt lat="48.70443" lon="2.24221">
        <ele>52.53</ele>
        <time>2021-05-22T08:19:42Z</time>
      </trkpt>
      <trkpt lat="48.70445" lon="2.24219">
        <ele>52.05</ele>
        <time>2021-05-22T08:19:43Z</time>
      </trkpt>
      <trkpt lat="48.70447" lon="2.24217">
        <ele>52.05</ele>
        <time>2021-05-22T08:19:44Z</time>
      </trkpt>
      <trkpt lat="48.70449" lon="2.24214">
        <ele>52.05</ele>
        <time>2021-05-22T08:19:45Z</time>
      </trkpt>
      <trkpt lat="48.70463" lon="2.2421">
        <ele>51.57</ele>
        <time>2021-05-22T08:19:56Z</time>
      </trkpt>
      <trkpt lat="48.70465" lon="2.2421">
        <ele>52.05</ele>
        <time>2021-05-22T08:19:57Z</time>
      </trkpt>
      <trkpt lat="48.70467" lon="2.24211">
        <ele>52.05</ele>
        <time>2021-05-22T08:19:58Z</time>
      </trkpt>
      <trkpt lat="48.70469" lon="2.24212">
        <ele>52.05</ele>
        <time>2021-05-22T08:19:59Z</time>
      </trkpt>
      <trkpt lat="48.70487" lon="2.24214">
        <ele>52.05</ele>
        <time>2021-05-22T08:20:09Z</time>
      </trkpt>
      <trkpt lat="48.70505" lon="2.24215">
        <ele>52.53</ele>
        <time>2021-05-22T08:20:20Z</time>
      </trkpt>
      <trkpt lat="48.7051" lon="2.24212">
        <ele>52.05</ele>
        <time>2021-05-22T08:20:25Z</time>
      </trkpt>
      <trkpt lat="48.70525" lon="2.24189">
        <ele>52.53</ele>
        <time>2021-05-22T08:20:36Z</time>
      </trkpt>
      <trkpt lat="48.70537" lon="2.24161">
        <ele>53.97</ele>
        <time>2021-05-22T08:20:51Z</time>
      </trkpt>
      <trkpt lat="48.70545" lon="2.24144">
        <ele>55.41</ele>
        <time>2021-05-22T08:21:00Z</time>
      </trkpt>
      <trkpt lat="48.70548" lon="2.24142">
        <ele>55.41</ele>
        <time>2021-05-22T08:21:03Z</time>
      </trkpt>
      <trkpt lat="48.70549" lon="2.24141">
        <ele>55.89</ele>
        <time>2021-05-22T08:21:04Z</time>
      </trkpt>
      <trkpt lat="48.70563" lon="2.24121">
        <ele>57.34</ele>
        <time>2021-05-22T08:21:17Z</time>
      </trkpt>
      <trkpt lat="48.70574" lon="2.24099">
        <ele>59.74</ele>
        <time>2021-05-22T08:21:29Z</time>
      </trkpt>
      <trkpt lat="48.70584" lon="2.24081">
        <ele>60.7</ele>
        <time>2021-05-22T08:21:40Z</time>
      </trkpt>
      <trkpt lat="48.70589" lon="2.24072">
        <ele>61.18</ele>
        <time>2021-05-22T08:21:44Z</time>
      </trkpt>
      <trkpt lat="48.70599" lon="2.24053">
        <ele>62.62</ele>
        <time>2021-05-22T08:21:56Z</time>
      </trkpt>
      <trkpt lat="48.70609" lon="2.24034">
        <ele>64.07</ele>
        <time>2021-05-22T08:22:06Z</time>
      </trkpt>
      <trkpt lat="48.70618" lon="2.24041">
        <ele>64.55</ele>
        <time>2021-05-22T08:22:16Z</time>
      </trkpt>
      <trkpt lat="48.70623" lon="2.24047">
        <ele>64.07</ele>
        <time>2021-05-22T08:22:20Z</time>
      </trkpt>
      <trkpt lat="48.70627" lon="2.24048">
        <ele>64.55</ele>
        <time>2021-05-22T08:22:22Z</time>
      </trkpt>
      <trkpt lat="48.70643" lon="2.24052">
        <ele>65.51</ele>
        <time>2021-05-22T08:22:34Z</time>
      </trkpt>
      <trkpt lat="48.70663" lon="2.24053">
        <ele>65.51</ele>
        <time>2021-05-22T08:22:48Z</time>
      </trkpt>
      <trkpt lat="48.70666" lon="2.24056">
        <ele>65.51</ele>
        <time>2021-05-22T08:22:52Z</time>
      </trkpt>
      <trkpt lat="48.70668" lon="2.24057">
        <ele>65.03</ele>
        <time>2021-05-22T08:22:53Z</time>
      </trkpt>
      <trkpt lat="48.70669" lon="2.24058">
        <ele>65.51</ele>
        <time>2021-05-22T08:22:54Z</time>
      </trkpt>
      <trkpt lat="48.70671" lon="2.24059">
        <ele>65.51</ele>
        <time>2021-05-22T08:22:55Z</time>
      </trkpt>
      <trkpt lat="48.70672" lon="2.24059">
        <ele>65.51</ele>
        <time>2021-05-22T08:22:56Z</time>
      </trkpt>
      <trkpt lat="48.70674" lon="2.2406">
        <ele>65.03</ele>
        <time>2021-05-22T08:22:57Z</time>
      </trkpt>
      <trkpt lat="48.70676" lon="2.24063">
        <ele>65.51</ele>
        <time>2021-05-22T08:22:58Z</time>
      </trkpt>
      <trkpt lat="48.70698" lon="2.24077">
        <ele>65.51</ele>
        <time>2021-05-22T08:23:12Z</time>
      </trkpt>
      <trkpt lat="48.707" lon="2.24079">
        <ele>65.51</ele>
        <time>2021-05-22T08:23:14Z</time>
      </trkpt>
      <trkpt lat="48.70701" lon="2.2408">
        <ele>65.51</ele>
        <time>2021-05-22T08:23:15Z</time>
      </trkpt>
      <trkpt lat="48.70724" lon="2.24093">
        <ele>65.51</ele>
        <time>2021-05-22T08:23:29Z</time>
      </trkpt>
      <trkpt lat="48.70734" lon="2.24098">
        <ele>65.51</ele>
        <time>2021-05-22T08:23:37Z</time>
      </trkpt>
      <trkpt lat="48.70753" lon="2.24116">
        <ele>64.55</ele>
        <time>2021-05-22T08:23:50Z</time>
      </trkpt>
      <trkpt lat="48.70762" lon="2.24126">
        <ele>64.55</ele>
        <time>2021-05-22T08:24:00Z</time>
      </trkpt>
      <trkpt lat="48.70765" lon="2.24128">
        <ele>63.58</ele>
        <time>2021-05-22T08:24:04Z</time>
      </trkpt>
      <trkpt lat="48.70767" lon="2.24129">
        <ele>64.07</ele>
        <time>2021-05-22T08:24:05Z</time>
      </trkpt>
      <trkpt lat="48.70777" lon="2.24137">
        <ele>63.58</ele>
        <time>2021-05-22T08:24:12Z</time>
      </trkpt>
      <trkpt lat="48.70788" lon="2.24146">
        <ele>63.58</ele>
        <time>2021-05-22T08:24:20Z</time>
      </trkpt>
      <trkpt lat="48.7079" lon="2.24147">
        <ele>63.1</ele>
        <time>2021-05-22T08:24:21Z</time>
      </trkpt>
      <trkpt lat="48.70793" lon="2.24148">
        <ele>62.62</ele>
        <time>2021-05-22T08:24:22Z</time>
      </trkpt>
      <trkpt lat="48.70794" lon="2.24149">
        <ele>63.1</ele>
        <time>2021-05-22T08:24:23Z</time>
      </trkpt>
      <trkpt lat="48.70796" lon="2.2415">
        <ele>62.62</ele>
        <time>2021-05-22T08:24:24Z</time>
      </trkpt>
      <trkpt lat="48.70798" lon="2.24152">
        <ele>63.1</ele>
        <time>2021-05-22T08:24:25Z</time>
      </trkpt>
      <trkpt lat="48.70812" lon="2.24161">
        <ele>62.14</ele>
        <time>2021-05-22T08:24:36Z</time>
      </trkpt>
      <trkpt lat="48.7083" lon="2.24173">
        <ele>60.7</ele>
        <time>2021-05-22T08:24:49Z</time>
      </trkpt>
      <trkpt lat="48.70831" lon="2.24176">
        <ele>60.7</ele>
        <time>2021-05-22T08:24:50Z</time>
      </trkpt>
      <trkpt lat="48.70831" lon="2.24178">
        <ele>60.7</ele>
        <time>2021-05-22T08:24:51Z</time>
      </trkpt>
      <trkpt lat="48.70829" lon="2.24187">
        <ele>59.74</ele>
        <time>2021-05-22T08:24:58Z</time>
      </trkpt>
      <trkpt lat="48.70829" lon="2.24189">
        <ele>59.26</ele>
        <time>2021-05-22T08:24:59Z</time>
      </trkpt>
      <trkpt lat="48.70829" lon="2.24192">
        <ele>59.26</ele>
        <time>2021-05-22T08:25:00Z</time>
      </trkpt>
      <trkpt lat="48.70829" lon="2.24196">
        <ele>58.78</ele>
        <time>2021-05-22T08:25:01Z</time>
      </trkpt>
      <trkpt lat="48.70828" lon="2.242">
        <ele>59.74</ele>
        <time>2021-05-22T08:25:02Z</time>
      </trkpt>
      <trkpt lat="48.70828" lon="2.24202">
        <ele>59.26</ele>
        <time>2021-05-22T08:25:03Z</time>
      </trkpt>
      <trkpt lat="48.70825" lon="2.2423">
        <ele>57.82</ele>
        <time>2021-05-22T08:25:14Z</time>
      </trkpt>
      <trkpt lat="48.70825" lon="2.24239">
        <ele>58.3</ele>
        <time>2021-05-22T08:25:17Z</time>
      </trkpt>
      <trkpt lat="48.7082" lon="2.24259">
        <ele>56.37</ele>
        <time>2021-05-22T08:25:28Z</time>
      </trkpt>
      <trkpt lat="48.70813" lon="2.24287">
        <ele>55.41</ele>
        <time>2021-05-22T08:25:38Z</time>
      </trkpt>
      <trkpt lat="48.70812" lon="2.24291">
        <ele>55.41</ele>
        <time>2021-05-22T08:25:41Z</time>
      </trkpt>
      <trkpt lat="48.70808" lon="2.24312">
        <ele>54.45</ele>
        <time>2021-05-22T08:25:50Z</time>
      </trkpt>
      <trkpt lat="48.70804" lon="2.24327">
        <ele>53.49</ele>
        <time>2021-05-22T08:25:59Z</time>
      </trkpt>
      <trkpt lat="48.70819" lon="2.24336">
        <ele>53.49</ele>
        <time>2021-05-22T08:26:09Z</time>
      </trkpt>
      <trkpt lat="48.70838" lon="2.2433">
        <ele>53.97</ele>
        <time>2021-05-22T08:26:23Z</time>
      </trkpt>
      <trkpt lat="48.70859" lon="2.24315">
        <ele>54.93</ele>
        <time>2021-05-22T08:26:38Z</time>
      </trkpt>
      <trkpt lat="48.7087" lon="2.24306">
        <ele>55.89</ele>
        <time>2021-05-22T08:26:51Z</time>
      </trkpt>
      <trkpt lat="48.70896" lon="2.243">
        <ele>55.89</ele>
        <time>2021-05-22T08:27:04Z</time>
      </trkpt>
      <trkpt lat="48.70899" lon="2.24299">
        <ele>55.89</ele>
        <time>2021-05-22T08:27:07Z</time>
      </trkpt>
      <trkpt lat="48.70919" lon="2.24302">
        <ele>55.89</ele>
        <time>2021-05-22T08:27:22Z</time>
      </trkpt>
      <trkpt lat="48.70924" lon="2.24303">
        <ele>56.37</ele>
        <time>2021-05-22T08:27:28Z</time>
      </trkpt>
      <trkpt lat="48.70926" lon="2.24305">
        <ele>56.37</ele>
        <time>2021-05-22T08:27:36Z</time>
      </trkpt>
      <trkpt lat="48.70942" lon="2.24314">
        <ele>55.89</ele>
        <time>2021-05-22T08:27:47Z</time>
      </trkpt>
      <trkpt lat="48.70959" lon="2.24328">
        <ele>56.37</ele>
        <time>2021-05-22T08:28:01Z</time>
      </trkpt>
      <trkpt lat="48.70966" lon="2.24329">
        <ele>56.37</ele>
        <time>2021-05-22T08:28:05Z</time>
      </trkpt>
      <trkpt lat="48.70922" lon="2.24302">
        <ele>59.26</ele>
        <time>2021-05-22T08:31:16Z</time>
      </trkpt>
      <trkpt lat="48.71085" lon="2.24286">
        <ele>59.26</ele>
        <time>2021-05-22T08:31:17Z</time>
      </trkpt>
      <trkpt lat="48.71085" lon="2.24279">
        <ele>59.26</ele>
        <time>2021-05-22T08:31:34Z</time>
      </trkpt>
      <trkpt lat="48.71086" lon="2.24279">
        <ele>60.7</ele>
        <time>2021-05-22T08:31:55Z</time>
      </trkpt>
      <trkpt lat="48.71086" lon="2.24276">
        <ele>59.74</ele>
        <time>2021-05-22T08:32:05Z</time>
      </trkpt>
      <trkpt lat="48.71096" lon="2.2425">
        <ele>62.62</ele>
        <time>2021-05-22T08:32:20Z</time>
      </trkpt>
      <trkpt lat="48.7111" lon="2.2423">
        <ele>62.62</ele>
        <time>2021-05-22T08:32:38Z</time>
      </trkpt>
      <trkpt lat="48.71119" lon="2.24237">
        <ele>63.1</ele>
        <time>2021-05-22T08:32:46Z</time>
      </trkpt>
      <trkpt lat="48.71124" lon="2.24223">
        <ele>64.07</ele>
        <time>2021-05-22T08:33:00Z</time>
      </trkpt>
      <trkpt lat="48.71125" lon="2.24219">
        <ele>64.55</ele>
        <time>2021-05-22T08:33:04Z</time>
      </trkpt>
      <trkpt lat="48.71122" lon="2.24232">
        <ele>63.58</ele>
        <time>2021-05-22T08:33:16Z</time>
      </trkpt>
      <trkpt lat="48.71125" lon="2.24234">
        <ele>64.55</ele>
        <time>2021-05-22T08:33:23Z</time>
      </trkpt>
      <trkpt lat="48.71127" lon="2.24232">
        <ele>64.55</ele>
        <time>2021-05-22T08:33:27Z</time>
      </trkpt>
      <trkpt lat="48.71141" lon="2.24214">
        <ele>66.95</ele>
        <time>2021-05-22T08:33:46Z</time>
      </trkpt>
      <trkpt lat="48.71146" lon="2.24203">
        <ele>70.31</ele>
        <time>2021-05-22T08:33:54Z</time>
      </trkpt>
      <trkpt lat="48.71147" lon="2.24201">
        <ele>69.83</ele>
        <time>2021-05-22T08:33:55Z</time>
      </trkpt>
      <trkpt lat="48.71155" lon="2.24198">
        <ele>71.27</ele>
        <time>2021-05-22T08:34:02Z</time>
      </trkpt>
      <trkpt lat="48.71163" lon="2.24205">
        <ele>69.83</ele>
        <time>2021-05-22T08:34:10Z</time>
      </trkpt>
      <trkpt lat="48.71168" lon="2.24215">
        <ele>70.31</ele>
        <time>2021-05-22T08:34:16Z</time>
      </trkpt>
      <trkpt lat="48.71171" lon="2.2422">
        <ele>70.79</ele>
        <time>2021-05-22T08:34:20Z</time>
      </trkpt>
      <trkpt lat="48.71191" lon="2.24227">
        <ele>71.27</ele>
        <time>2021-05-22T08:34:33Z</time>
      </trkpt>
      <trkpt lat="48.71194" lon="2.24227">
        <ele>70.79</ele>
        <time>2021-05-22T08:34:35Z</time>
      </trkpt>
      <trkpt lat="48.712" lon="2.24228">
        <ele>73.2</ele>
        <time>2021-05-22T08:34:39Z</time>
      </trkpt>
      <trkpt lat="48.7121" lon="2.24223">
        <ele>75.12</ele>
        <time>2021-05-22T08:34:48Z</time>
      </trkpt>
      <trkpt lat="48.71229" lon="2.24216">
        <ele>74.16</ele>
        <time>2021-05-22T08:35:00Z</time>
      </trkpt>
      <trkpt lat="48.71247" lon="2.24217">
        <ele>75.12</ele>
        <time>2021-05-22T08:35:12Z</time>
      </trkpt>
      <trkpt lat="48.71251" lon="2.24218">
        <ele>75.12</ele>
        <time>2021-05-22T08:35:16Z</time>
      </trkpt>
      <trkpt lat="48.71254" lon="2.24217">
        <ele>75.12</ele>
        <time>2021-05-22T08:35:18Z</time>
      </trkpt>
      <trkpt lat="48.71256" lon="2.24216">
        <ele>74.64</ele>
        <time>2021-05-22T08:35:19Z</time>
      </trkpt>
      <trkpt lat="48.71257" lon="2.24216">
        <ele>74.64</ele>
        <time>2021-05-22T08:35:20Z</time>
      </trkpt>
      <trkpt lat="48.71278" lon="2.24223">
        <ele>76.56</ele>
        <time>2021-05-22T08:35:32Z</time>
      </trkpt>
      <trkpt lat="48.71289" lon="2.24232">
        <ele>77.52</ele>
        <time>2021-05-22T08:35:41Z</time>
      </trkpt>
      <trkpt lat="48.7129" lon="2.24233">
        <ele>77.04</ele>
        <time>2021-05-22T08:35:42Z</time>
      </trkpt>
      <trkpt lat="48.71292" lon="2.24235">
        <ele>78</ele>
        <time>2021-05-22T08:35:43Z</time>
      </trkpt>
      <trkpt lat="48.71297" lon="2.24243">
        <ele>78.97</ele>
        <time>2021-05-22T08:35:55Z</time>
      </trkpt>
      <trkpt lat="48.71301" lon="2.24247">
        <ele>79.93</ele>
        <time>2021-05-22T08:36:01Z</time>
      </trkpt>
      <trkpt lat="48.71302" lon="2.24248">
        <ele>80.41</ele>
        <time>2021-05-22T08:36:02Z</time>
      </trkpt>
      <trkpt lat="48.71304" lon="2.24249">
        <ele>79.93</ele>
        <time>2021-05-22T08:36:03Z</time>
      </trkpt>
      <trkpt lat="48.71306" lon="2.2425">
        <ele>79.45</ele>
        <time>2021-05-22T08:36:04Z</time>
      </trkpt>
      <trkpt lat="48.71307" lon="2.24253">
        <ele>79.45</ele>
        <time>2021-05-22T08:36:05Z</time>
      </trkpt>
      <trkpt lat="48.71326" lon="2.24278">
        <ele>81.37</ele>
        <time>2021-05-22T08:36:17Z</time>
      </trkpt>
      <trkpt lat="48.71337" lon="2.2428">
        <ele>82.33</ele>
        <time>2021-05-22T08:36:24Z</time>
      </trkpt>
      <trkpt lat="48.71347" lon="2.24288">
        <ele>83.77</ele>
        <time>2021-05-22T08:36:34Z</time>
      </trkpt>
      <trkpt lat="48.71348" lon="2.2429">
        <ele>82.81</ele>
        <time>2021-05-22T08:36:35Z</time>
      </trkpt>
      <trkpt lat="48.71348" lon="2.24292">
        <ele>83.77</ele>
        <time>2021-05-22T08:36:36Z</time>
      </trkpt>
      <trkpt lat="48.71349" lon="2.24294">
        <ele>83.29</ele>
        <time>2021-05-22T08:36:37Z</time>
      </trkpt>
      <trkpt lat="48.7135" lon="2.24296">
        <ele>83.77</ele>
        <time>2021-05-22T08:36:38Z</time>
      </trkpt>
      <trkpt lat="48.71352" lon="2.24297">
        <ele>83.29</ele>
        <time>2021-05-22T08:36:39Z</time>
      </trkpt>
      <trkpt lat="48.71354" lon="2.24298">
        <ele>83.77</ele>
        <time>2021-05-22T08:36:40Z</time>
      </trkpt>
      <trkpt lat="48.71356" lon="2.24298">
        <ele>84.73</ele>
        <time>2021-05-22T08:36:41Z</time>
      </trkpt>
      <trkpt lat="48.71359" lon="2.24299">
        <ele>83.77</ele>
        <time>2021-05-22T08:36:42Z</time>
      </trkpt>
      <trkpt lat="48.71376" lon="2.24306">
        <ele>85.21</ele>
        <time>2021-05-22T08:36:54Z</time>
      </trkpt>
      <trkpt lat="48.71393" lon="2.2432">
        <ele>86.66</ele>
        <time>2021-05-22T08:37:09Z</time>
      </trkpt>
      <trkpt lat="48.71394" lon="2.24321">
        <ele>87.14</ele>
        <time>2021-05-22T08:37:10Z</time>
      </trkpt>
      <trkpt lat="48.71396" lon="2.24322">
        <ele>87.62</ele>
        <time>2021-05-22T08:37:11Z</time>
      </trkpt>
      <trkpt lat="48.71397" lon="2.24323">
        <ele>86.18</ele>
        <time>2021-05-22T08:37:12Z</time>
      </trkpt>
      <trkpt lat="48.71399" lon="2.24323">
        <ele>85.69</ele>
        <time>2021-05-22T08:37:13Z</time>
      </trkpt>
      <trkpt lat="48.714" lon="2.24324">
        <ele>86.66</ele>
        <time>2021-05-22T08:37:14Z</time>
      </trkpt>
      <trkpt lat="48.71405" lon="2.24326">
        <ele>88.1</ele>
        <time>2021-05-22T08:37:18Z</time>
      </trkpt>
      <trkpt lat="48.71407" lon="2.24325">
        <ele>86.66</ele>
        <time>2021-05-22T08:37:19Z</time>
      </trkpt>
      <trkpt lat="48.71414" lon="2.2432">
        <ele>89.06</ele>
        <time>2021-05-22T08:37:24Z</time>
      </trkpt>
      <trkpt lat="48.71428" lon="2.24304">
        <ele>90.02</ele>
        <time>2021-05-22T08:37:36Z</time>
      </trkpt>
      <trkpt lat="48.71429" lon="2.24304">
        <ele>90.02</ele>
        <time>2021-05-22T08:37:37Z</time>
      </trkpt>
      <trkpt lat="48.7143" lon="2.24303">
        <ele>90.02</ele>
        <time>2021-05-22T08:37:38Z</time>
      </trkpt>
      <trkpt lat="48.71437" lon="2.24295">
        <ele>92.42</ele>
        <time>2021-05-22T08:37:51Z</time>
      </trkpt>
      <trkpt lat="48.7145" lon="2.24282">
        <ele>94.35</ele>
        <time>2021-05-22T08:38:05Z</time>
      </trkpt>
      <trkpt lat="48.71451" lon="2.24281">
        <ele>93.87</ele>
        <time>2021-05-22T08:38:06Z</time>
      </trkpt>
      <trkpt lat="48.71453" lon="2.24279">
        <ele>94.83</ele>
        <time>2021-05-22T08:38:07Z</time>
      </trkpt>
      <trkpt lat="48.71459" lon="2.24269">
        <ele>97.71</ele>
        <time>2021-05-22T08:38:18Z</time>
      </trkpt>
      <trkpt lat="48.7147" lon="2.24257">
        <ele>100.6</ele>
        <time>2021-05-22T08:38:33Z</time>
      </trkpt>
      <trkpt lat="48.71473" lon="2.24253">
        <ele>102.52</ele>
        <time>2021-05-22T08:38:43Z</time>
      </trkpt>
      <trkpt lat="48.71474" lon="2.24252">
        <ele>102.52</ele>
        <time>2021-05-22T08:38:44Z</time>
      </trkpt>
      <trkpt lat="48.71476" lon="2.24248">
        <ele>103.96</ele>
        <time>2021-05-22T08:38:47Z</time>
      </trkpt>
      <trkpt lat="48.71479" lon="2.24244">
        <ele>104.44</ele>
        <time>2021-05-22T08:38:50Z</time>
      </trkpt>
      <trkpt lat="48.71483" lon="2.24238">
        <ele>105.88</ele>
        <time>2021-05-22T08:38:56Z</time>
      </trkpt>
      <trkpt lat="48.71484" lon="2.24236">
        <ele>105.4</ele>
        <time>2021-05-22T08:38:57Z</time>
      </trkpt>
      <trkpt lat="48.71487" lon="2.24229">
        <ele>106.84</ele>
        <time>2021-05-22T08:39:01Z</time>
      </trkpt>
      <trkpt lat="48.71489" lon="2.24225">
        <ele>109.73</ele>
        <time>2021-05-22T08:39:11Z</time>
      </trkpt>
      <trkpt lat="48.71491" lon="2.24219">
        <ele>111.17</ele>
        <time>2021-05-22T08:39:18Z</time>
      </trkpt>
      <trkpt lat="48.71492" lon="2.24215">
        <ele>111.65</ele>
        <time>2021-05-22T08:39:20Z</time>
      </trkpt>
      <trkpt lat="48.71493" lon="2.24213">
        <ele>112.13</ele>
        <time>2021-05-22T08:39:21Z</time>
      </trkpt>
      <trkpt lat="48.71494" lon="2.24211">
        <ele>111.65</ele>
        <time>2021-05-22T08:39:22Z</time>
      </trkpt>
      <trkpt lat="48.71498" lon="2.24206">
        <ele>114.53</ele>
        <time>2021-05-22T08:39:27Z</time>
      </trkpt>
      <trkpt lat="48.71501" lon="2.24206">
        <ele>115.01</ele>
        <time>2021-05-22T08:39:32Z</time>
      </trkpt>
      <trkpt lat="48.71518" lon="2.24222">
        <ele>115.98</ele>
        <time>2021-05-22T08:39:45Z</time>
      </trkpt>
      <trkpt lat="48.71521" lon="2.24225">
        <ele>115.98</ele>
        <time>2021-05-22T08:39:48Z</time>
      </trkpt>
      <trkpt lat="48.71529" lon="2.2422">
        <ele>119.82</ele>
        <time>2021-05-22T08:40:04Z</time>
      </trkpt>
      <trkpt lat="48.71537" lon="2.24206">
        <ele>122.71</ele>
        <time>2021-05-22T08:40:16Z</time>
      </trkpt>
      <trkpt lat="48.71538" lon="2.24204">
        <ele>122.71</ele>
        <time>2021-05-22T08:40:17Z</time>
      </trkpt>
      <trkpt lat="48.71545" lon="2.2419">
        <ele>125.59</ele>
        <time>2021-05-22T08:40:26Z</time>
      </trkpt>
      <trkpt lat="48.71544" lon="2.24172">
        <ele>128.47</ele>
        <time>2021-05-22T08:40:38Z</time>
      </trkpt>
      <trkpt lat="48.71544" lon="2.24163">
        <ele>129.43</ele>
        <time>2021-05-22T08:40:43Z</time>
      </trkpt>
      <trkpt lat="48.71544" lon="2.2416">
        <ele>129.92</ele>
        <time>2021-05-22T08:40:44Z</time>
      </trkpt>
      <trkpt lat="48.71545" lon="2.24138">
        <ele>132.8</ele>
        <time>2021-05-22T08:41:00Z</time>
      </trkpt>
      <trkpt lat="48.71545" lon="2.24123">
        <ele>136.16</ele>
        <time>2021-05-22T08:41:13Z</time>
      </trkpt>
      <trkpt lat="48.71547" lon="2.24096">
        <ele>138.09</ele>
        <time>2021-05-22T08:41:25Z</time>
      </trkpt>
      <trkpt lat="48.71547" lon="2.24092">
        <ele>137.61</ele>
        <time>2021-05-22T08:41:27Z</time>
      </trkpt>
      <trkpt lat="48.71546" lon="2.2407">
        <ele>138.57</ele>
        <time>2021-05-22T08:41:41Z</time>
      </trkpt>
      <trkpt lat="48.71542" lon="2.24057">
        <ele>140.01</ele>
        <time>2021-05-22T08:41:54Z</time>
      </trkpt>
      <trkpt lat="48.7154" lon="2.24062">
        <ele>139.53</ele>
        <time>2021-05-22T08:42:01Z</time>
      </trkpt>
      <trkpt lat="48.7154" lon="2.24061">
        <ele>139.53</ele>
        <time>2021-05-22T08:42:11Z</time>
      </trkpt>
      <trkpt lat="48.71549" lon="2.24034">
        <ele>140.49</ele>
        <time>2021-05-22T08:42:22Z</time>
      </trkpt>
      <trkpt lat="48.71549" lon="2.24017">
        <ele>140.49</ele>
        <time>2021-05-22T08:42:30Z</time>
      </trkpt>
      <trkpt lat="48.71552" lon="2.23981">
        <ele>140.97</ele>
        <time>2021-05-22T08:42:47Z</time>
      </trkpt>
      <trkpt lat="48.71557" lon="2.23961">
        <ele>140.49</ele>
        <time>2021-05-22T08:42:58Z</time>
      </trkpt>
      <trkpt lat="48.71558" lon="2.23941">
        <ele>141.45</ele>
        <time>2021-05-22T08:43:17Z</time>
      </trkpt>
      <trkpt lat="48.71554" lon="2.23939">
        <ele>141.45</ele>
        <time>2021-05-22T08:43:20Z</time>
      </trkpt>
      <trkpt lat="48.71543" lon="2.23933">
        <ele>141.45</ele>
        <time>2021-05-22T08:43:25Z</time>
      </trkpt>
      <trkpt lat="48.71544" lon="2.23914">
        <ele>144.34</ele>
        <time>2021-05-22T08:43:36Z</time>
      </trkpt>
      <trkpt lat="48.71555" lon="2.23896">
        <ele>143.85</ele>
        <time>2021-05-22T08:43:46Z</time>
      </trkpt>
      <trkpt lat="48.71572" lon="2.23874">
        <ele>144.34</ele>
        <time>2021-05-22T08:43:57Z</time>
      </trkpt>
      <trkpt lat="48.71574" lon="2.23871">
        <ele>143.85</ele>
        <time>2021-05-22T08:43:59Z</time>
      </trkpt>
      <trkpt lat="48.7158" lon="2.23862">
        <ele>143.85</ele>
        <time>2021-05-22T08:44:07Z</time>
      </trkpt>
      <trkpt lat="48.71582" lon="2.23861">
        <ele>144.34</ele>
        <time>2021-05-22T08:44:08Z</time>
      </trkpt>
      <trkpt lat="48.71583" lon="2.23859">
        <ele>143.37</ele>
        <time>2021-05-22T08:44:09Z</time>
      </trkpt>
      <trkpt lat="48.71587" lon="2.2384">
        <ele>145.3</ele>
        <time>2021-05-22T08:44:20Z</time>
      </trkpt>
      <trkpt lat="48.71581" lon="2.23838">
        <ele>146.26</ele>
        <time>2021-05-22T08:44:22Z</time>
      </trkpt>
      <trkpt lat="48.71579" lon="2.23835">
        <ele>146.26</ele>
        <time>2021-05-22T08:44:23Z</time>
      </trkpt>
      <trkpt lat="48.7158" lon="2.23832">
        <ele>146.26</ele>
        <time>2021-05-22T08:44:24Z</time>
      </trkpt>
      <trkpt lat="48.71581" lon="2.23829">
        <ele>146.26</ele>
        <time>2021-05-22T08:44:25Z</time>
      </trkpt>
      <trkpt lat="48.71582" lon="2.23826">
        <ele>145.78</ele>
        <time>2021-05-22T08:44:26Z</time>
      </trkpt>
      <trkpt lat="48.71583" lon="2.23822">
        <ele>145.78</ele>
        <time>2021-05-22T08:44:27Z</time>
      </trkpt>
      <trkpt lat="48.71583" lon="2.23818">
        <ele>145.3</ele>
        <time>2021-05-22T08:44:28Z</time>
      </trkpt>
      <trkpt lat="48.71583" lon="2.23815">
        <ele>145.3</ele>
        <time>2021-05-22T08:44:29Z</time>
      </trkpt>
      <trkpt lat="48.71583" lon="2.23813">
        <ele>145.78</ele>
        <time>2021-05-22T08:44:30Z</time>
      </trkpt>
      <trkpt lat="48.71582" lon="2.23811">
        <ele>145.78</ele>
        <time>2021-05-22T08:44:31Z</time>
      </trkpt>
      <trkpt lat="48.71582" lon="2.2381">
        <ele>145.78</ele>
        <time>2021-05-22T08:44:32Z</time>
      </trkpt>
      <trkpt lat="48.71581" lon="2.23807">
        <ele>146.26</ele>
        <time>2021-05-22T08:44:35Z</time>
      </trkpt>
      <trkpt lat="48.7158" lon="2.23806">
        <ele>145.78</ele>
        <time>2021-05-22T08:44:36Z</time>
      </trkpt>
      <trkpt lat="48.71578" lon="2.23805">
        <ele>146.26</ele>
        <time>2021-05-22T08:44:37Z</time>
      </trkpt>
      <trkpt lat="48.71577" lon="2.23805">
        <ele>146.26</ele>
        <time>2021-05-22T08:44:38Z</time>
      </trkpt>
      <trkpt lat="48.71575" lon="2.23805">
        <ele>145.78</ele>
        <time>2021-05-22T08:44:39Z</time>
      </trkpt>
      <trkpt lat="48.71571" lon="2.23805">
        <ele>146.26</ele>
        <time>2021-05-22T08:44:44Z</time>
      </trkpt>
      <trkpt lat="48.71569" lon="2.23803">
        <ele>145.78</ele>
        <time>2021-05-22T08:44:45Z</time>
      </trkpt>
      <trkpt lat="48.71568" lon="2.23802">
        <ele>144.82</ele>
        <time>2021-05-22T08:44:46Z</time>
      </trkpt>
      <trkpt lat="48.71566" lon="2.23802">
        <ele>145.78</ele>
        <time>2021-05-22T08:44:47Z</time>
      </trkpt>
      <trkpt lat="48.71565" lon="2.23801">
        <ele>145.78</ele>
        <time>2021-05-22T08:44:48Z</time>
      </trkpt>
      <trkpt lat="48.71551" lon="2.2379">
        <ele>145.3</ele>
        <time>2021-05-22T08:44:58Z</time>
      </trkpt>
      <trkpt lat="48.7155" lon="2.23788">
        <ele>146.26</ele>
        <time>2021-05-22T08:44:59Z</time>
      </trkpt>
      <trkpt lat="48.71549" lon="2.23787">
        <ele>146.74</ele>
        <time>2021-05-22T08:45:00Z</time>
      </trkpt>
      <trkpt lat="48.71548" lon="2.23785">
        <ele>146.74</ele>
        <time>2021-05-22T08:45:01Z</time>
      </trkpt>
      <trkpt lat="48.71546" lon="2.23784">
        <ele>146.74</ele>
        <time>2021-05-22T08:45:02Z</time>
      </trkpt>
      <trkpt lat="48.71545" lon="2.23783">
        <ele>147.22</ele>
        <time>2021-05-22T08:45:03Z</time>
      </trkpt>
      <trkpt lat="48.71544" lon="2.23782">
        <ele>146.74</ele>
        <time>2021-05-22T08:45:04Z</time>
      </trkpt>
      <trkpt lat="48.71542" lon="2.23781">
        <ele>146.26</ele>
        <time>2021-05-22T08:45:05Z</time>
      </trkpt>
      <trkpt lat="48.7154" lon="2.2378">
        <ele>146.74</ele>
        <time>2021-05-22T08:45:06Z</time>
      </trkpt>
      <trkpt lat="48.71519" lon="2.23766">
        <ele>147.22</ele>
        <time>2021-05-22T08:45:20Z</time>
      </trkpt>
      <trkpt lat="48.71513" lon="2.23762">
        <ele>147.22</ele>
        <time>2021-05-22T08:45:26Z</time>
      </trkpt>
      <trkpt lat="48.71511" lon="2.2376">
        <ele>147.7</ele>
        <time>2021-05-22T08:45:27Z</time>
      </trkpt>
      <trkpt lat="48.715" lon="2.23749">
        <ele>147.22</ele>
        <time>2021-05-22T08:45:36Z</time>
      </trkpt>
      <trkpt lat="48.71492" lon="2.23739">
        <ele>147.7</ele>
        <time>2021-05-22T08:45:47Z</time>
      </trkpt>
      <trkpt lat="48.71491" lon="2.23737">
        <ele>147.22</ele>
        <time>2021-05-22T08:45:48Z</time>
      </trkpt>
      <trkpt lat="48.71489" lon="2.23735">
        <ele>147.22</ele>
        <time>2021-05-22T08:45:49Z</time>
      </trkpt>
      <trkpt lat="48.71487" lon="2.23734">
        <ele>147.22</ele>
        <time>2021-05-22T08:45:50Z</time>
      </trkpt>
      <trkpt lat="48.71486" lon="2.23733">
        <ele>147.7</ele>
        <time>2021-05-22T08:45:51Z</time>
      </trkpt>
      <trkpt lat="48.71481" lon="2.23729">
        <ele>147.7</ele>
        <time>2021-05-22T08:45:55Z</time>
      </trkpt>
      <trkpt lat="48.7148" lon="2.23727">
        <ele>148.18</ele>
        <time>2021-05-22T08:45:56Z</time>
      </trkpt>
      <trkpt lat="48.71479" lon="2.23725">
        <ele>148.18</ele>
        <time>2021-05-22T08:45:57Z</time>
      </trkpt>
      <trkpt lat="48.71478" lon="2.23723">
        <ele>147.7</ele>
        <time>2021-05-22T08:45:58Z</time>
      </trkpt>
      <trkpt lat="48.71477" lon="2.23722">
        <ele>148.18</ele>
        <time>2021-05-22T08:45:59Z</time>
      </trkpt>
      <trkpt lat="48.71476" lon="2.2372">
        <ele>148.18</ele>
        <time>2021-05-22T08:46:00Z</time>
      </trkpt>
      <trkpt lat="48.71475" lon="2.23719">
        <ele>148.18</ele>
        <time>2021-05-22T08:46:01Z</time>
      </trkpt>
      <trkpt lat="48.71456" lon="2.23701">
        <ele>148.18</ele>
        <time>2021-05-22T08:46:16Z</time>
      </trkpt>
      <trkpt lat="48.71446" lon="2.23691">
        <ele>148.66</ele>
        <time>2021-05-22T08:46:26Z</time>
      </trkpt>
      <trkpt lat="48.7143" lon="2.23676">
        <ele>148.66</ele>
        <time>2021-05-22T08:46:39Z</time>
      </trkpt>
      <trkpt lat="48.71426" lon="2.23663">
        <ele>149.14</ele>
        <time>2021-05-22T08:46:48Z</time>
      </trkpt>
      <trkpt lat="48.71425" lon="2.23661">
        <ele>149.14</ele>
        <time>2021-05-22T08:46:49Z</time>
      </trkpt>
      <trkpt lat="48.71409" lon="2.23636">
        <ele>149.62</ele>
        <time>2021-05-22T08:47:03Z</time>
      </trkpt>
      <trkpt lat="48.71405" lon="2.2363">
        <ele>149.62</ele>
        <time>2021-05-22T08:47:08Z</time>
      </trkpt>
      <trkpt lat="48.71404" lon="2.23628">
        <ele>150.1</ele>
        <time>2021-05-22T08:47:09Z</time>
      </trkpt>
      <trkpt lat="48.71403" lon="2.23626">
        <ele>149.62</ele>
        <time>2021-05-22T08:47:10Z</time>
      </trkpt>
      <trkpt lat="48.71401" lon="2.23624">
        <ele>150.58</ele>
        <time>2021-05-22T08:47:11Z</time>
      </trkpt>
      <trkpt lat="48.71399" lon="2.23624">
        <ele>150.1</ele>
        <time>2021-05-22T08:47:12Z</time>
      </trkpt>
      <trkpt lat="48.71396" lon="2.23621">
        <ele>150.58</ele>
        <time>2021-05-22T08:47:13Z</time>
      </trkpt>
      <trkpt lat="48.71394" lon="2.2362">
        <ele>151.06</ele>
        <time>2021-05-22T08:47:14Z</time>
      </trkpt>
      <trkpt lat="48.71392" lon="2.23618">
        <ele>150.1</ele>
        <time>2021-05-22T08:47:15Z</time>
      </trkpt>
      <trkpt lat="48.71371" lon="2.23595">
        <ele>150.58</ele>
        <time>2021-05-22T08:47:28Z</time>
      </trkpt>
      <trkpt lat="48.71357" lon="2.23577">
        <ele>150.1</ele>
        <time>2021-05-22T08:47:42Z</time>
      </trkpt>
      <trkpt lat="48.71341" lon="2.23568">
        <ele>150.1</ele>
        <time>2021-05-22T08:47:55Z</time>
      </trkpt>
      <trkpt lat="48.71323" lon="2.23548">
        <ele>150.58</ele>
        <time>2021-05-22T08:48:10Z</time>
      </trkpt>
      <trkpt lat="48.71301" lon="2.23525">
        <ele>150.58</ele>
        <time>2021-05-22T08:48:25Z</time>
      </trkpt>
      <trkpt lat="48.71291" lon="2.23507">
        <ele>150.1</ele>
        <time>2021-05-22T08:48:34Z</time>
      </trkpt>
      <trkpt lat="48.71285" lon="2.23487">
        <ele>150.58</ele>
        <time>2021-05-22T08:48:45Z</time>
      </trkpt>
      <trkpt lat="48.71267" lon="2.23477">
        <ele>150.58</ele>
        <time>2021-05-22T08:48:55Z</time>
      </trkpt>
      <trkpt lat="48.71247" lon="2.23472">
        <ele>150.1</ele>
        <time>2021-05-22T08:49:10Z</time>
      </trkpt>
      <trkpt lat="48.71242" lon="2.23466">
        <ele>150.1</ele>
        <time>2021-05-22T08:49:15Z</time>
      </trkpt>
      <trkpt lat="48.71237" lon="2.23456">
        <ele>150.58</ele>
        <time>2021-05-22T08:49:20Z</time>
      </trkpt>
      <trkpt lat="48.71221" lon="2.23441">
        <ele>150.1</ele>
        <time>2021-05-22T08:49:32Z</time>
      </trkpt>
      <trkpt lat="48.71206" lon="2.23433">
        <ele>149.62</ele>
        <time>2021-05-22T08:49:42Z</time>
      </trkpt>
      <trkpt lat="48.71201" lon="2.23434">
        <ele>149.62</ele>
        <time>2021-05-22T08:49:52Z</time>
      </trkpt>
      <trkpt lat="48.71197" lon="2.23425">
        <ele>150.1</ele>
        <time>2021-05-22T08:51:33Z</time>
      </trkpt>
      <trkpt lat="48.71178" lon="2.2339">
        <ele>149.62</ele>
        <time>2021-05-22T08:51:51Z</time>
      </trkpt>
      <trkpt lat="48.71175" lon="2.23381">
        <ele>150.1</ele>
        <time>2021-05-22T08:51:56Z</time>
      </trkpt>
      <trkpt lat="48.71169" lon="2.23359">
        <ele>150.58</ele>
        <time>2021-05-22T08:52:05Z</time>
      </trkpt>
      <trkpt lat="48.71169" lon="2.23336">
        <ele>150.58</ele>
        <time>2021-05-22T08:52:16Z</time>
      </trkpt>
      <trkpt lat="48.71172" lon="2.23327">
        <ele>150.58</ele>
        <time>2021-05-22T08:52:20Z</time>
      </trkpt>
      <trkpt lat="48.71173" lon="2.23323">
        <ele>150.1</ele>
        <time>2021-05-22T08:52:21Z</time>
      </trkpt>
      <trkpt lat="48.71178" lon="2.233">
        <ele>150.58</ele>
        <time>2021-05-22T08:52:32Z</time>
      </trkpt>
      <trkpt lat="48.71179" lon="2.23298">
        <ele>150.1</ele>
        <time>2021-05-22T08:52:33Z</time>
      </trkpt>
      <trkpt lat="48.71183" lon="2.23273">
        <ele>150.1</ele>
        <time>2021-05-22T08:52:44Z</time>
      </trkpt>
      <trkpt lat="48.71187" lon="2.23268">
        <ele>149.14</ele>
        <time>2021-05-22T08:52:49Z</time>
      </trkpt>
      <trkpt lat="48.71189" lon="2.23255">
        <ele>149.14</ele>
        <time>2021-05-22T08:52:54Z</time>
      </trkpt>
      <trkpt lat="48.71189" lon="2.23251">
        <ele>149.14</ele>
        <time>2021-05-22T08:52:55Z</time>
      </trkpt>
      <trkpt lat="48.71189" lon="2.23247">
        <ele>149.62</ele>
        <time>2021-05-22T08:52:56Z</time>
      </trkpt>
      <trkpt lat="48.7119" lon="2.23244">
        <ele>149.14</ele>
        <time>2021-05-22T08:52:57Z</time>
      </trkpt>
      <trkpt lat="48.71192" lon="2.23241">
        <ele>148.66</ele>
        <time>2021-05-22T08:52:58Z</time>
      </trkpt>
      <trkpt lat="48.71193" lon="2.23239">
        <ele>149.14</ele>
        <time>2021-05-22T08:52:59Z</time>
      </trkpt>
      <trkpt lat="48.712" lon="2.23226">
        <ele>149.62</ele>
        <time>2021-05-22T08:53:08Z</time>
      </trkpt>
      <trkpt lat="48.71207" lon="2.23189">
        <ele>149.62</ele>
        <time>2021-05-22T08:53:22Z</time>
      </trkpt>
      <trkpt lat="48.71207" lon="2.23162">
        <ele>149.14</ele>
        <time>2021-05-22T08:53:37Z</time>
      </trkpt>
      <trkpt lat="48.71203" lon="2.23143">
        <ele>149.14</ele>
        <time>2021-05-22T08:53:54Z</time>
      </trkpt>
      <trkpt lat="48.71202" lon="2.2314">
        <ele>149.14</ele>
        <time>2021-05-22T08:53:55Z</time>
      </trkpt>
      <trkpt lat="48.71201" lon="2.23138">
        <ele>148.66</ele>
        <time>2021-05-22T08:53:56Z</time>
      </trkpt>
      <trkpt lat="48.71199" lon="2.23136">
        <ele>149.14</ele>
        <time>2021-05-22T08:53:57Z</time>
      </trkpt>
      <trkpt lat="48.71198" lon="2.23134">
        <ele>149.14</ele>
        <time>2021-05-22T08:53:58Z</time>
      </trkpt>
      <trkpt lat="48.71197" lon="2.23132">
        <ele>149.14</ele>
        <time>2021-05-22T08:53:59Z</time>
      </trkpt>
      <trkpt lat="48.71188" lon="2.23113">
        <ele>148.66</ele>
        <time>2021-05-22T08:54:09Z</time>
      </trkpt>
      <trkpt lat="48.71187" lon="2.23114">
        <ele>148.66</ele>
        <time>2021-05-22T08:54:10Z</time>
      </trkpt>
      <trkpt lat="48.71185" lon="2.23116">
        <ele>149.14</ele>
        <time>2021-05-22T08:54:11Z</time>
      </trkpt>
      <trkpt lat="48.71184" lon="2.23119">
        <ele>148.66</ele>
        <time>2021-05-22T08:54:12Z</time>
      </trkpt>
      <trkpt lat="48.71184" lon="2.23121">
        <ele>148.18</ele>
        <time>2021-05-22T08:54:13Z</time>
      </trkpt>
      <trkpt lat="48.71184" lon="2.2313">
        <ele>146.74</ele>
        <time>2021-05-22T08:54:16Z</time>
      </trkpt>
      <trkpt lat="48.71184" lon="2.23133">
        <ele>146.74</ele>
        <time>2021-05-22T08:54:17Z</time>
      </trkpt>
      <trkpt lat="48.71184" lon="2.23136">
        <ele>146.26</ele>
        <time>2021-05-22T08:54:18Z</time>
      </trkpt>
      <trkpt lat="48.71184" lon="2.23139">
        <ele>145.78</ele>
        <time>2021-05-22T08:54:19Z</time>
      </trkpt>
      <trkpt lat="48.71184" lon="2.23142">
        <ele>145.3</ele>
        <time>2021-05-22T08:54:20Z</time>
      </trkpt>
      <trkpt lat="48.71184" lon="2.23145">
        <ele>144.82</ele>
        <time>2021-05-22T08:54:21Z</time>
      </trkpt>
      <trkpt lat="48.71183" lon="2.23148">
        <ele>144.34</ele>
        <time>2021-05-22T08:54:22Z</time>
      </trkpt>
      <trkpt lat="48.71178" lon="2.23161">
        <ele>143.37</ele>
        <time>2021-05-22T08:54:27Z</time>
      </trkpt>
      <trkpt lat="48.71165" lon="2.23173">
        <ele>140.01</ele>
        <time>2021-05-22T08:54:35Z</time>
      </trkpt>
      <trkpt lat="48.71163" lon="2.23175">
        <ele>139.53</ele>
        <time>2021-05-22T08:54:36Z</time>
      </trkpt>
      <trkpt lat="48.71161" lon="2.23177">
        <ele>139.05</ele>
        <time>2021-05-22T08:54:37Z</time>
      </trkpt>
      <trkpt lat="48.71155" lon="2.2318">
        <ele>140.01</ele>
        <time>2021-05-22T08:54:40Z</time>
      </trkpt>
      <trkpt lat="48.71136" lon="2.2318">
        <ele>136.16</ele>
        <time>2021-05-22T08:54:51Z</time>
      </trkpt>
      <trkpt lat="48.71134" lon="2.2318">
        <ele>136.64</ele>
        <time>2021-05-22T08:54:52Z</time>
      </trkpt>
      <trkpt lat="48.71114" lon="2.23184">
        <ele>132.8</ele>
        <time>2021-05-22T08:55:00Z</time>
      </trkpt>
      <trkpt lat="48.71111" lon="2.23185">
        <ele>132.8</ele>
        <time>2021-05-22T08:55:01Z</time>
      </trkpt>
      <trkpt lat="48.71088" lon="2.23206">
        <ele>129.43</ele>
        <time>2021-05-22T08:55:12Z</time>
      </trkpt>
      <trkpt lat="48.71081" lon="2.23227">
        <ele>127.51</ele>
        <time>2021-05-22T08:55:18Z</time>
      </trkpt>
      <trkpt lat="48.7107" lon="2.23262">
        <ele>125.11</ele>
        <time>2021-05-22T08:55:27Z</time>
      </trkpt>
      <trkpt lat="48.71056" lon="2.23299">
        <ele>122.22</ele>
        <time>2021-05-22T08:55:39Z</time>
      </trkpt>
      <trkpt lat="48.71054" lon="2.23333">
        <ele>122.71</ele>
        <time>2021-05-22T08:55:52Z</time>
      </trkpt>
      <trkpt lat="48.71053" lon="2.23363">
        <ele>122.71</ele>
        <time>2021-05-22T08:56:05Z</time>
      </trkpt>
      <trkpt lat="48.71054" lon="2.23368">
        <ele>122.71</ele>
        <time>2021-05-22T08:56:07Z</time>
      </trkpt>
      <trkpt lat="48.71054" lon="2.23371">
        <ele>122.71</ele>
        <time>2021-05-22T08:56:08Z</time>
      </trkpt>
      <trkpt lat="48.71054" lon="2.23374">
        <ele>122.71</ele>
        <time>2021-05-22T08:56:09Z</time>
      </trkpt>
      <trkpt lat="48.71054" lon="2.23376">
        <ele>123.19</ele>
        <time>2021-05-22T08:56:10Z</time>
      </trkpt>
      <trkpt lat="48.71054" lon="2.23378">
        <ele>122.71</ele>
        <time>2021-05-22T08:56:11Z</time>
      </trkpt>
      <trkpt lat="48.71054" lon="2.2338">
        <ele>122.71</ele>
        <time>2021-05-22T08:56:12Z</time>
      </trkpt>
      <trkpt lat="48.71058" lon="2.23399">
        <ele>121.26</ele>
        <time>2021-05-22T08:56:24Z</time>
      </trkpt>
      <trkpt lat="48.71062" lon="2.23426">
        <ele>119.82</ele>
        <time>2021-05-22T08:56:35Z</time>
      </trkpt>
      <trkpt lat="48.71063" lon="2.23457">
        <ele>119.82</ele>
        <time>2021-05-22T08:56:47Z</time>
      </trkpt>
      <trkpt lat="48.71066" lon="2.23473">
        <ele>119.34</ele>
        <time>2021-05-22T08:56:58Z</time>
      </trkpt>
      <trkpt lat="48.7107" lon="2.23482">
        <ele>118.38</ele>
        <time>2021-05-22T08:57:08Z</time>
      </trkpt>
      <trkpt lat="48.7107" lon="2.23484">
        <ele>118.38</ele>
        <time>2021-05-22T08:57:09Z</time>
      </trkpt>
      <trkpt lat="48.7107" lon="2.23487">
        <ele>117.42</ele>
        <time>2021-05-22T08:57:10Z</time>
      </trkpt>
      <trkpt lat="48.7107" lon="2.23491">
        <ele>117.9</ele>
        <time>2021-05-22T08:57:11Z</time>
      </trkpt>
      <trkpt lat="48.7107" lon="2.23493">
        <ele>116.94</ele>
        <time>2021-05-22T08:57:12Z</time>
      </trkpt>
      <trkpt lat="48.71075" lon="2.23511">
        <ele>115.01</ele>
        <time>2021-05-22T08:57:18Z</time>
      </trkpt>
      <trkpt lat="48.71084" lon="2.23531">
        <ele>111.65</ele>
        <time>2021-05-22T08:57:26Z</time>
      </trkpt>
      <trkpt lat="48.71091" lon="2.23541">
        <ele>108.29</ele>
        <time>2021-05-22T08:57:31Z</time>
      </trkpt>
      <trkpt lat="48.71099" lon="2.23551">
        <ele>105.4</ele>
        <time>2021-05-22T08:57:36Z</time>
      </trkpt>
      <trkpt lat="48.71108" lon="2.23568">
        <ele>102.52</ele>
        <time>2021-05-22T08:57:42Z</time>
      </trkpt>
      <trkpt lat="48.71114" lon="2.23589">
        <ele>100.11</ele>
        <time>2021-05-22T08:57:50Z</time>
      </trkpt>
      <trkpt lat="48.71114" lon="2.23591">
        <ele>99.63</ele>
        <time>2021-05-22T08:57:51Z</time>
      </trkpt>
      <trkpt lat="48.71109" lon="2.23619">
        <ele>96.27</ele>
        <time>2021-05-22T08:57:58Z</time>
      </trkpt>
      <trkpt lat="48.71108" lon="2.23623">
        <ele>96.27</ele>
        <time>2021-05-22T08:57:59Z</time>
      </trkpt>
      <trkpt lat="48.71105" lon="2.23652">
        <ele>92.9</ele>
        <time>2021-05-22T08:58:08Z</time>
      </trkpt>
      <trkpt lat="48.71099" lon="2.23678">
        <ele>90.02</ele>
        <time>2021-05-22T08:58:15Z</time>
      </trkpt>
      <trkpt lat="48.71098" lon="2.23682">
        <ele>90.02</ele>
        <time>2021-05-22T08:58:16Z</time>
      </trkpt>
      <trkpt lat="48.71085" lon="2.23721">
        <ele>86.66</ele>
        <time>2021-05-22T08:58:25Z</time>
      </trkpt>
      <trkpt lat="48.71081" lon="2.23737">
        <ele>85.69</ele>
        <time>2021-05-22T08:58:30Z</time>
      </trkpt>
      <trkpt lat="48.71079" lon="2.23738">
        <ele>85.21</ele>
        <time>2021-05-22T08:58:31Z</time>
      </trkpt>
      <trkpt lat="48.71077" lon="2.23738">
        <ele>84.73</ele>
        <time>2021-05-22T08:58:32Z</time>
      </trkpt>
      <trkpt lat="48.71073" lon="2.23736">
        <ele>85.21</ele>
        <time>2021-05-22T08:58:34Z</time>
      </trkpt>
      <trkpt lat="48.71058" lon="2.23728">
        <ele>84.25</ele>
        <time>2021-05-22T08:58:44Z</time>
      </trkpt>
      <trkpt lat="48.71038" lon="2.23719">
        <ele>82.81</ele>
        <time>2021-05-22T08:58:57Z</time>
      </trkpt>
      <trkpt lat="48.71029" lon="2.23713">
        <ele>84.25</ele>
        <time>2021-05-22T08:59:08Z</time>
      </trkpt>
      <trkpt lat="48.71023" lon="2.23712">
        <ele>84.73</ele>
        <time>2021-05-22T08:59:12Z</time>
      </trkpt>
      <trkpt lat="48.71014" lon="2.23707">
        <ele>84.73</ele>
        <time>2021-05-22T08:59:19Z</time>
      </trkpt>
      <trkpt lat="48.70993" lon="2.23699">
        <ele>84.25</ele>
        <time>2021-05-22T08:59:33Z</time>
      </trkpt>
      <trkpt lat="48.7099" lon="2.23696">
        <ele>84.25</ele>
        <time>2021-05-22T08:59:35Z</time>
      </trkpt>
      <trkpt lat="48.70989" lon="2.23693">
        <ele>84.73</ele>
        <time>2021-05-22T08:59:36Z</time>
      </trkpt>
      <trkpt lat="48.70979" lon="2.23659">
        <ele>86.18</ele>
        <time>2021-05-22T08:59:54Z</time>
      </trkpt>
      <trkpt lat="48.70978" lon="2.23656">
        <ele>86.66</ele>
        <time>2021-05-22T08:59:56Z</time>
      </trkpt>
      <trkpt lat="48.70973" lon="2.23632">
        <ele>87.62</ele>
        <time>2021-05-22T09:00:09Z</time>
      </trkpt>
      <trkpt lat="48.70966" lon="2.23605">
        <ele>89.54</ele>
        <time>2021-05-22T09:00:22Z</time>
      </trkpt>
      <trkpt lat="48.70965" lon="2.236">
        <ele>89.54</ele>
        <time>2021-05-22T09:00:25Z</time>
      </trkpt>
      <trkpt lat="48.70958" lon="2.23574">
        <ele>91.94</ele>
        <time>2021-05-22T09:00:41Z</time>
      </trkpt>
      <trkpt lat="48.7096" lon="2.23558">
        <ele>93.39</ele>
        <time>2021-05-22T09:00:49Z</time>
      </trkpt>
      <trkpt lat="48.70955" lon="2.2355">
        <ele>94.83</ele>
        <time>2021-05-22T09:00:55Z</time>
      </trkpt>
      <trkpt lat="48.70952" lon="2.23543">
        <ele>96.27</ele>
        <time>2021-05-22T09:00:59Z</time>
      </trkpt>
      <trkpt lat="48.70952" lon="2.2354">
        <ele>96.27</ele>
        <time>2021-05-22T09:01:00Z</time>
      </trkpt>
      <trkpt lat="48.70953" lon="2.23519">
        <ele>98.67</ele>
        <time>2021-05-22T09:01:11Z</time>
      </trkpt>
      <trkpt lat="48.70953" lon="2.23512">
        <ele>99.15</ele>
        <time>2021-05-22T09:01:15Z</time>
      </trkpt>
      <trkpt lat="48.70953" lon="2.2351">
        <ele>99.15</ele>
        <time>2021-05-22T09:01:16Z</time>
      </trkpt>
      <trkpt lat="48.70954" lon="2.23481">
        <ele>102.04</ele>
        <time>2021-05-22T09:01:33Z</time>
      </trkpt>
      <trkpt lat="48.70955" lon="2.23457">
        <ele>104.92</ele>
        <time>2021-05-22T09:01:47Z</time>
      </trkpt>
      <trkpt lat="48.70955" lon="2.23455">
        <ele>104.92</ele>
        <time>2021-05-22T09:01:48Z</time>
      </trkpt>
      <trkpt lat="48.70956" lon="2.23433">
        <ele>107.32</ele>
        <time>2021-05-22T09:02:02Z</time>
      </trkpt>
      <trkpt lat="48.70955" lon="2.23414">
        <ele>110.21</ele>
        <time>2021-05-22T09:02:17Z</time>
      </trkpt>
      <trkpt lat="48.70954" lon="2.23392">
        <ele>113.09</ele>
        <time>2021-05-22T09:02:31Z</time>
      </trkpt>
      <trkpt lat="48.70951" lon="2.23371">
        <ele>116.46</ele>
        <time>2021-05-22T09:02:45Z</time>
      </trkpt>
      <trkpt lat="48.70954" lon="2.23349">
        <ele>117.42</ele>
        <time>2021-05-22T09:02:59Z</time>
      </trkpt>
      <trkpt lat="48.70954" lon="2.23348">
        <ele>118.38</ele>
        <time>2021-05-22T09:03:00Z</time>
      </trkpt>
      <trkpt lat="48.70953" lon="2.23344">
        <ele>117.9</ele>
        <time>2021-05-22T09:03:02Z</time>
      </trkpt>
      <trkpt lat="48.70953" lon="2.23331">
        <ele>119.82</ele>
        <time>2021-05-22T09:03:09Z</time>
      </trkpt>
      <trkpt lat="48.70957" lon="2.23307">
        <ele>121.26</ele>
        <time>2021-05-22T09:03:23Z</time>
      </trkpt>
      <trkpt lat="48.70962" lon="2.2329">
        <ele>122.71</ele>
        <time>2021-05-22T09:03:31Z</time>
      </trkpt>
      <trkpt lat="48.70972" lon="2.23269">
        <ele>125.59</ele>
        <time>2021-05-22T09:03:47Z</time>
      </trkpt>
      <trkpt lat="48.70977" lon="2.23251">
        <ele>127.99</ele>
        <time>2021-05-22T09:03:59Z</time>
      </trkpt>
      <trkpt lat="48.70976" lon="2.23234">
        <ele>130.88</ele>
        <time>2021-05-22T09:04:12Z</time>
      </trkpt>
      <trkpt lat="48.70972" lon="2.23223">
        <ele>132.32</ele>
        <time>2021-05-22T09:04:19Z</time>
      </trkpt>
      <trkpt lat="48.70961" lon="2.23201">
        <ele>135.2</ele>
        <time>2021-05-22T09:04:33Z</time>
      </trkpt>
      <trkpt lat="48.70953" lon="2.23188">
        <ele>137.13</ele>
        <time>2021-05-22T09:04:45Z</time>
      </trkpt>
      <trkpt lat="48.70951" lon="2.23183">
        <ele>139.05</ele>
        <time>2021-05-22T09:04:50Z</time>
      </trkpt>
      <trkpt lat="48.70941" lon="2.23161">
        <ele>141.45</ele>
        <time>2021-05-22T09:05:05Z</time>
      </trkpt>
      <trkpt lat="48.70934" lon="2.23148">
        <ele>144.34</ele>
        <time>2021-05-22T09:05:15Z</time>
      </trkpt>
      <trkpt lat="48.7093" lon="2.2314">
        <ele>145.3</ele>
        <time>2021-05-22T09:05:23Z</time>
      </trkpt>
      <trkpt lat="48.70922" lon="2.2312">
        <ele>148.18</ele>
        <time>2021-05-22T09:05:37Z</time>
      </trkpt>
      <trkpt lat="48.70914" lon="2.23093">
        <ele>149.62</ele>
        <time>2021-05-22T09:05:52Z</time>
      </trkpt>
      <trkpt lat="48.70912" lon="2.2309">
        <ele>149.62</ele>
        <time>2021-05-22T09:05:54Z</time>
      </trkpt>
      <trkpt lat="48.70905" lon="2.23091">
        <ele>149.62</ele>
        <time>2021-05-22T09:06:06Z</time>
      </trkpt>
      <trkpt lat="48.70904" lon="2.23094">
        <ele>150.1</ele>
        <time>2021-05-22T09:06:08Z</time>
      </trkpt>
      <trkpt lat="48.70896" lon="2.23103">
        <ele>149.14</ele>
        <time>2021-05-22T09:06:14Z</time>
      </trkpt>
      <trkpt lat="48.70886" lon="2.23135">
        <ele>149.14</ele>
        <time>2021-05-22T09:06:25Z</time>
      </trkpt>
      <trkpt lat="48.70875" lon="2.23158">
        <ele>148.18</ele>
        <time>2021-05-22T09:06:36Z</time>
      </trkpt>
      <trkpt lat="48.70866" lon="2.23172">
        <ele>147.7</ele>
        <time>2021-05-22T09:06:50Z</time>
      </trkpt>
      <trkpt lat="48.70852" lon="2.23197">
        <ele>147.7</ele>
        <time>2021-05-22T09:07:05Z</time>
      </trkpt>
      <trkpt lat="48.70841" lon="2.23222">
        <ele>147.22</ele>
        <time>2021-05-22T09:07:17Z</time>
      </trkpt>
      <trkpt lat="48.70833" lon="2.23256">
        <ele>147.22</ele>
        <time>2021-05-22T09:07:32Z</time>
      </trkpt>
      <trkpt lat="48.70831" lon="2.23286">
        <ele>145.78</ele>
        <time>2021-05-22T09:07:45Z</time>
      </trkpt>
      <trkpt lat="48.70827" lon="2.23311">
        <ele>147.22</ele>
        <time>2021-05-22T09:07:59Z</time>
      </trkpt>
      <trkpt lat="48.70819" lon="2.23329">
        <ele>148.18</ele>
        <time>2021-05-22T09:08:08Z</time>
      </trkpt>
      <trkpt lat="48.7082" lon="2.23341">
        <ele>148.18</ele>
        <time>2021-05-22T09:08:19Z</time>
      </trkpt>
      <trkpt lat="48.70822" lon="2.2335">
        <ele>147.7</ele>
        <time>2021-05-22T09:08:32Z</time>
      </trkpt>
      <trkpt lat="48.70824" lon="2.23363">
        <ele>147.22</ele>
        <time>2021-05-22T09:08:45Z</time>
      </trkpt>
      <trkpt lat="48.70824" lon="2.23366">
        <ele>147.22</ele>
        <time>2021-05-22T09:08:51Z</time>
      </trkpt>
      <trkpt lat="48.70825" lon="2.23362">
        <ele>146.26</ele>
        <time>2021-05-22T09:08:54Z</time>
      </trkpt>
      <trkpt lat="48.70828" lon="2.23373">
        <ele>145.3</ele>
        <time>2021-05-22T09:09:04Z</time>
      </trkpt>
      <trkpt lat="48.70829" lon="2.23379">
        <ele>143.85</ele>
        <time>2021-05-22T09:09:07Z</time>
      </trkpt>
      <trkpt lat="48.70831" lon="2.23381">
        <ele>142.89</ele>
        <time>2021-05-22T09:09:11Z</time>
      </trkpt>
      <trkpt lat="48.7083" lon="2.23406">
        <ele>142.41</ele>
        <time>2021-05-22T09:09:19Z</time>
      </trkpt>
      <trkpt lat="48.70831" lon="2.23418">
        <ele>140.01</ele>
        <time>2021-05-22T09:09:24Z</time>
      </trkpt>
      <trkpt lat="48.70827" lon="2.23446">
        <ele>135.68</ele>
        <time>2021-05-22T09:09:36Z</time>
      </trkpt>
      <trkpt lat="48.70824" lon="2.23457">
        <ele>134.24</ele>
        <time>2021-05-22T09:09:45Z</time>
      </trkpt>
      <trkpt lat="48.7082" lon="2.23461">
        <ele>133.76</ele>
        <time>2021-05-22T09:09:48Z</time>
      </trkpt>
      <trkpt lat="48.70815" lon="2.23464">
        <ele>131.36</ele>
        <time>2021-05-22T09:09:52Z</time>
      </trkpt>
      <trkpt lat="48.70802" lon="2.23469">
        <ele>128.47</ele>
        <time>2021-05-22T09:09:59Z</time>
      </trkpt>
      <trkpt lat="48.70768" lon="2.23471">
        <ele>127.03</ele>
        <time>2021-05-22T09:10:19Z</time>
      </trkpt>
      <trkpt lat="48.70761" lon="2.2347">
        <ele>128.95</ele>
        <time>2021-05-22T09:10:26Z</time>
      </trkpt>
      <trkpt lat="48.70743" lon="2.23493">
        <ele>126.07</ele>
        <time>2021-05-22T09:10:41Z</time>
      </trkpt>
      <trkpt lat="48.70726" lon="2.23496">
        <ele>126.07</ele>
        <time>2021-05-22T09:10:54Z</time>
      </trkpt>
      <trkpt lat="48.70705" lon="2.23503">
        <ele>122.71</ele>
        <time>2021-05-22T09:11:07Z</time>
      </trkpt>
      <trkpt lat="48.70698" lon="2.23499">
        <ele>123.67</ele>
        <time>2021-05-22T09:11:14Z</time>
      </trkpt>
      <trkpt lat="48.70681" lon="2.23491">
        <ele>120.78</ele>
        <time>2021-05-22T09:11:29Z</time>
      </trkpt>
      <trkpt lat="48.70679" lon="2.23491">
        <ele>120.78</ele>
        <time>2021-05-22T09:11:30Z</time>
      </trkpt>
      <trkpt lat="48.70665" lon="2.23484">
        <ele>117.9</ele>
        <time>2021-05-22T09:11:39Z</time>
      </trkpt>
      <trkpt lat="48.70651" lon="2.23472">
        <ele>114.53</ele>
        <time>2021-05-22T09:11:47Z</time>
      </trkpt>
      <trkpt lat="48.70649" lon="2.2347">
        <ele>114.53</ele>
        <time>2021-05-22T09:11:48Z</time>
      </trkpt>
      <trkpt lat="48.70628" lon="2.23433">
        <ele>111.17</ele>
        <time>2021-05-22T09:12:04Z</time>
      </trkpt>
      <trkpt lat="48.70624" lon="2.23423">
        <ele>109.73</ele>
        <time>2021-05-22T09:12:08Z</time>
      </trkpt>
      <trkpt lat="48.70618" lon="2.23393">
        <ele>109.25</ele>
        <time>2021-05-22T09:12:22Z</time>
      </trkpt>
      <trkpt lat="48.70623" lon="2.23369">
        <ele>108.77</ele>
        <time>2021-05-22T09:12:37Z</time>
      </trkpt>
      <trkpt lat="48.70619" lon="2.2336">
        <ele>105.88</ele>
        <time>2021-05-22T09:12:41Z</time>
      </trkpt>
      <trkpt lat="48.70616" lon="2.23342">
        <ele>105.88</ele>
        <time>2021-05-22T09:12:53Z</time>
      </trkpt>
      <trkpt lat="48.70617" lon="2.23336">
        <ele>105.88</ele>
        <time>2021-05-22T09:12:56Z</time>
      </trkpt>
      <trkpt lat="48.70617" lon="2.2331">
        <ele>105.88</ele>
        <time>2021-05-22T09:13:07Z</time>
      </trkpt>
      <trkpt lat="48.70617" lon="2.23275">
        <ele>103.48</ele>
        <time>2021-05-22T09:13:17Z</time>
      </trkpt>
      <trkpt lat="48.70618" lon="2.23268">
        <ele>102.52</ele>
        <time>2021-05-22T09:13:23Z</time>
      </trkpt>
      <trkpt lat="48.70618" lon="2.23267">
        <ele>102.52</ele>
        <time>2021-05-22T09:13:24Z</time>
      </trkpt>
      <trkpt lat="48.7062" lon="2.23247">
        <ele>102.52</ele>
        <time>2021-05-22T09:13:33Z</time>
      </trkpt>
      <trkpt lat="48.70619" lon="2.23237">
        <ele>101.08</ele>
        <time>2021-05-22T09:13:39Z</time>
      </trkpt>
      <trkpt lat="48.70623" lon="2.232">
        <ele>101.08</ele>
        <time>2021-05-22T09:13:53Z</time>
      </trkpt>
      <trkpt lat="48.70623" lon="2.23171">
        <ele>100.6</ele>
        <time>2021-05-22T09:14:06Z</time>
      </trkpt>
      <trkpt lat="48.70628" lon="2.2316">
        <ele>102.04</ele>
        <time>2021-05-22T09:14:14Z</time>
      </trkpt>
      <trkpt lat="48.70628" lon="2.23158">
        <ele>101.56</ele>
        <time>2021-05-22T09:14:15Z</time>
      </trkpt>
      <trkpt lat="48.70629" lon="2.23156">
        <ele>101.56</ele>
        <time>2021-05-22T09:14:16Z</time>
      </trkpt>
      <trkpt lat="48.70633" lon="2.23124">
        <ele>102.52</ele>
        <time>2021-05-22T09:14:30Z</time>
      </trkpt>
      <trkpt lat="48.70641" lon="2.23095">
        <ele>103</ele>
        <time>2021-05-22T09:14:45Z</time>
      </trkpt>
      <trkpt lat="48.70641" lon="2.23093">
        <ele>103.48</ele>
        <time>2021-05-22T09:14:46Z</time>
      </trkpt>
      <trkpt lat="48.70643" lon="2.23065">
        <ele>103.48</ele>
        <time>2021-05-22T09:14:59Z</time>
      </trkpt>
      <trkpt lat="48.70645" lon="2.23044">
        <ele>103</ele>
        <time>2021-05-22T09:15:09Z</time>
      </trkpt>
      <trkpt lat="48.70645" lon="2.2304">
        <ele>103</ele>
        <time>2021-05-22T09:15:10Z</time>
      </trkpt>
      <trkpt lat="48.70646" lon="2.23037">
        <ele>103.48</ele>
        <time>2021-05-22T09:15:11Z</time>
      </trkpt>
      <trkpt lat="48.70646" lon="2.23034">
        <ele>103</ele>
        <time>2021-05-22T09:15:12Z</time>
      </trkpt>
      <trkpt lat="48.70646" lon="2.23031">
        <ele>102.52</ele>
        <time>2021-05-22T09:15:13Z</time>
      </trkpt>
      <trkpt lat="48.70651" lon="2.23011">
        <ele>102.52</ele>
        <time>2021-05-22T09:15:23Z</time>
      </trkpt>
      <trkpt lat="48.70652" lon="2.23009">
        <ele>102.52</ele>
        <time>2021-05-22T09:15:24Z</time>
      </trkpt>
      <trkpt lat="48.70652" lon="2.23007">
        <ele>103</ele>
        <time>2021-05-22T09:15:25Z</time>
      </trkpt>
      <trkpt lat="48.70652" lon="2.23005">
        <ele>103</ele>
        <time>2021-05-22T09:15:26Z</time>
      </trkpt>
      <trkpt lat="48.70652" lon="2.23002">
        <ele>102.52</ele>
        <time>2021-05-22T09:15:27Z</time>
      </trkpt>
      <trkpt lat="48.70651" lon="2.23">
        <ele>103</ele>
        <time>2021-05-22T09:15:28Z</time>
      </trkpt>
      <trkpt lat="48.70651" lon="2.22997">
        <ele>103</ele>
        <time>2021-05-22T09:15:29Z</time>
      </trkpt>
      <trkpt lat="48.70651" lon="2.22996">
        <ele>102.04</ele>
        <time>2021-05-22T09:15:30Z</time>
      </trkpt>
      <trkpt lat="48.70653" lon="2.22992">
        <ele>102.52</ele>
        <time>2021-05-22T09:15:32Z</time>
      </trkpt>
      <trkpt lat="48.70653" lon="2.2299">
        <ele>102.52</ele>
        <time>2021-05-22T09:15:33Z</time>
      </trkpt>
      <trkpt lat="48.70653" lon="2.22986">
        <ele>103</ele>
        <time>2021-05-22T09:15:36Z</time>
      </trkpt>
      <trkpt lat="48.70653" lon="2.22981">
        <ele>103</ele>
        <time>2021-05-22T09:15:39Z</time>
      </trkpt>
      <trkpt lat="48.70654" lon="2.2296">
        <ele>101.08</ele>
        <time>2021-05-22T09:15:52Z</time>
      </trkpt>
      <trkpt lat="48.70652" lon="2.22952">
        <ele>100.6</ele>
        <time>2021-05-22T09:15:55Z</time>
      </trkpt>
      <trkpt lat="48.70651" lon="2.22949">
        <ele>100.11</ele>
        <time>2021-05-22T09:15:56Z</time>
      </trkpt>
      <trkpt lat="48.70651" lon="2.22945">
        <ele>99.63</ele>
        <time>2021-05-22T09:15:57Z</time>
      </trkpt>
      <trkpt lat="48.7065" lon="2.2294">
        <ele>99.15</ele>
        <time>2021-05-22T09:15:58Z</time>
      </trkpt>
      <trkpt lat="48.7065" lon="2.22937">
        <ele>98.67</ele>
        <time>2021-05-22T09:15:59Z</time>
      </trkpt>
      <trkpt lat="48.70649" lon="2.22932">
        <ele>98.67</ele>
        <time>2021-05-22T09:16:00Z</time>
      </trkpt>
      <trkpt lat="48.70646" lon="2.2292">
        <ele>96.75</ele>
        <time>2021-05-22T09:16:03Z</time>
      </trkpt>
      <trkpt lat="48.70644" lon="2.22913">
        <ele>96.75</ele>
        <time>2021-05-22T09:16:05Z</time>
      </trkpt>
      <trkpt lat="48.70649" lon="2.22895">
        <ele>97.71</ele>
        <time>2021-05-22T09:16:14Z</time>
      </trkpt>
      <trkpt lat="48.70655" lon="2.22875">
        <ele>100.11</ele>
        <time>2021-05-22T09:16:24Z</time>
      </trkpt>
      <trkpt lat="48.70655" lon="2.22873">
        <ele>99.15</ele>
        <time>2021-05-22T09:16:25Z</time>
      </trkpt>
      <trkpt lat="48.70656" lon="2.22871">
        <ele>98.67</ele>
        <time>2021-05-22T09:16:26Z</time>
      </trkpt>
      <trkpt lat="48.70657" lon="2.22869">
        <ele>98.67</ele>
        <time>2021-05-22T09:16:27Z</time>
      </trkpt>
      <trkpt lat="48.70658" lon="2.22867">
        <ele>98.67</ele>
        <time>2021-05-22T09:16:28Z</time>
      </trkpt>
      <trkpt lat="48.70659" lon="2.22864">
        <ele>98.67</ele>
        <time>2021-05-22T09:16:29Z</time>
      </trkpt>
      <trkpt lat="48.70672" lon="2.22838">
        <ele>100.11</ele>
        <time>2021-05-22T09:16:44Z</time>
      </trkpt>
      <trkpt lat="48.70671" lon="2.22837">
        <ele>100.11</ele>
        <time>2021-05-22T09:16:45Z</time>
      </trkpt>
      <trkpt lat="48.70674" lon="2.22825">
        <ele>99.15</ele>
        <time>2021-05-22T09:16:51Z</time>
      </trkpt>
      <trkpt lat="48.70678" lon="2.22793">
        <ele>99.15</ele>
        <time>2021-05-22T09:17:06Z</time>
      </trkpt>
      <trkpt lat="48.70683" lon="2.22763">
        <ele>98.67</ele>
        <time>2021-05-22T09:17:19Z</time>
      </trkpt>
      <trkpt lat="48.70687" lon="2.22732">
        <ele>99.15</ele>
        <time>2021-05-22T09:17:32Z</time>
      </trkpt>
      <trkpt lat="48.70688" lon="2.22719">
        <ele>98.67</ele>
        <time>2021-05-22T09:17:39Z</time>
      </trkpt>
      <trkpt lat="48.70688" lon="2.22718">
        <ele>98.67</ele>
        <time>2021-05-22T09:17:40Z</time>
      </trkpt>
      <trkpt lat="48.70685" lon="2.2269">
        <ele>97.71</ele>
        <time>2021-05-22T09:17:54Z</time>
      </trkpt>
      <trkpt lat="48.70674" lon="2.22663">
        <ele>95.79</ele>
        <time>2021-05-22T09:18:04Z</time>
      </trkpt>
      <trkpt lat="48.70674" lon="2.22662">
        <ele>96.75</ele>
        <time>2021-05-22T09:18:05Z</time>
      </trkpt>
      <trkpt lat="48.70673" lon="2.22659">
        <ele>96.27</ele>
        <time>2021-05-22T09:18:06Z</time>
      </trkpt>
      <trkpt lat="48.70664" lon="2.22639">
        <ele>92.42</ele>
        <time>2021-05-22T09:18:13Z</time>
      </trkpt>
      <trkpt lat="48.70663" lon="2.22636">
        <ele>91.94</ele>
        <time>2021-05-22T09:18:14Z</time>
      </trkpt>
      <trkpt lat="48.70662" lon="2.22633">
        <ele>91.46</ele>
        <time>2021-05-22T09:18:15Z</time>
      </trkpt>
      <trkpt lat="48.70662" lon="2.22629">
        <ele>91.46</ele>
        <time>2021-05-22T09:18:16Z</time>
      </trkpt>
      <trkpt lat="48.70658" lon="2.22612">
        <ele>90.02</ele>
        <time>2021-05-22T09:18:20Z</time>
      </trkpt>
      <trkpt lat="48.70656" lon="2.22609">
        <ele>89.54</ele>
        <time>2021-05-22T09:18:21Z</time>
      </trkpt>
      <trkpt lat="48.70655" lon="2.22605">
        <ele>90.02</ele>
        <time>2021-05-22T09:18:22Z</time>
      </trkpt>
      <trkpt lat="48.7065" lon="2.22596">
        <ele>88.1</ele>
        <time>2021-05-22T09:18:25Z</time>
      </trkpt>
      <trkpt lat="48.70635" lon="2.2257">
        <ele>85.69</ele>
        <time>2021-05-22T09:18:34Z</time>
      </trkpt>
      <trkpt lat="48.70636" lon="2.22562">
        <ele>86.18</ele>
        <time>2021-05-22T09:18:39Z</time>
      </trkpt>
      <trkpt lat="48.70637" lon="2.2256">
        <ele>86.66</ele>
        <time>2021-05-22T09:18:40Z</time>
      </trkpt>
      <trkpt lat="48.70645" lon="2.22558">
        <ele>88.58</ele>
        <time>2021-05-22T09:18:49Z</time>
      </trkpt>
      <trkpt lat="48.70646" lon="2.22558">
        <ele>88.58</ele>
        <time>2021-05-22T09:18:50Z</time>
      </trkpt>
      <trkpt lat="48.70648" lon="2.22558">
        <ele>89.06</ele>
        <time>2021-05-22T09:18:51Z</time>
      </trkpt>
      <trkpt lat="48.70649" lon="2.22559">
        <ele>88.58</ele>
        <time>2021-05-22T09:18:52Z</time>
      </trkpt>
      <trkpt lat="48.7065" lon="2.22559">
        <ele>89.06</ele>
        <time>2021-05-22T09:18:53Z</time>
      </trkpt>
      <trkpt lat="48.70668" lon="2.22552">
        <ele>90.98</ele>
        <time>2021-05-22T09:19:06Z</time>
      </trkpt>
      <trkpt lat="48.70677" lon="2.22552">
        <ele>92.42</ele>
        <time>2021-05-22T09:19:12Z</time>
      </trkpt>
      <trkpt lat="48.7069" lon="2.22551">
        <ele>95.31</ele>
        <time>2021-05-22T09:19:25Z</time>
      </trkpt>
      <trkpt lat="48.70695" lon="2.22547">
        <ele>95.79</ele>
        <time>2021-05-22T09:19:29Z</time>
      </trkpt>
      <trkpt lat="48.70697" lon="2.22545">
        <ele>96.27</ele>
        <time>2021-05-22T09:19:30Z</time>
      </trkpt>
      <trkpt lat="48.70699" lon="2.22543">
        <ele>96.27</ele>
        <time>2021-05-22T09:19:31Z</time>
      </trkpt>
      <trkpt lat="48.70701" lon="2.22541">
        <ele>96.27</ele>
        <time>2021-05-22T09:19:32Z</time>
      </trkpt>
      <trkpt lat="48.70703" lon="2.22539">
        <ele>96.75</ele>
        <time>2021-05-22T09:19:33Z</time>
      </trkpt>
      <trkpt lat="48.70704" lon="2.22537">
        <ele>97.23</ele>
        <time>2021-05-22T09:19:34Z</time>
      </trkpt>
      <trkpt lat="48.70713" lon="2.2253">
        <ele>99.15</ele>
        <time>2021-05-22T09:19:45Z</time>
      </trkpt>
      <trkpt lat="48.70725" lon="2.22522">
        <ele>101.56</ele>
        <time>2021-05-22T09:19:57Z</time>
      </trkpt>
      <trkpt lat="48.70725" lon="2.2252">
        <ele>102.04</ele>
        <time>2021-05-22T09:19:58Z</time>
      </trkpt>
      <trkpt lat="48.70738" lon="2.22501">
        <ele>104.92</ele>
        <time>2021-05-22T09:20:10Z</time>
      </trkpt>
      <trkpt lat="48.70738" lon="2.225">
        <ele>105.4</ele>
        <time>2021-05-22T09:20:11Z</time>
      </trkpt>
      <trkpt lat="48.70737" lon="2.22481">
        <ele>107.81</ele>
        <time>2021-05-22T09:20:24Z</time>
      </trkpt>
      <trkpt lat="48.70729" lon="2.22456">
        <ele>109.25</ele>
        <time>2021-05-22T09:20:37Z</time>
      </trkpt>
      <trkpt lat="48.70728" lon="2.22454">
        <ele>109.25</ele>
        <time>2021-05-22T09:20:38Z</time>
      </trkpt>
      <trkpt lat="48.70725" lon="2.22445">
        <ele>111.17</ele>
        <time>2021-05-22T09:20:43Z</time>
      </trkpt>
      <trkpt lat="48.70722" lon="2.22437">
        <ele>110.21</ele>
        <time>2021-05-22T09:20:53Z</time>
      </trkpt>
      <trkpt lat="48.70718" lon="2.22441">
        <ele>110.69</ele>
        <time>2021-05-22T09:21:08Z</time>
      </trkpt>
      <trkpt lat="48.70717" lon="2.22429">
        <ele>110.21</ele>
        <time>2021-05-22T09:21:23Z</time>
      </trkpt>
      <trkpt lat="48.70713" lon="2.22411">
        <ele>108.77</ele>
        <time>2021-05-22T09:21:34Z</time>
      </trkpt>
      <trkpt lat="48.70706" lon="2.22385">
        <ele>107.81</ele>
        <time>2021-05-22T09:21:44Z</time>
      </trkpt>
      <trkpt lat="48.70705" lon="2.22384">
        <ele>108.29</ele>
        <time>2021-05-22T09:21:45Z</time>
      </trkpt>
      <trkpt lat="48.70704" lon="2.22383">
        <ele>108.29</ele>
        <time>2021-05-22T09:21:46Z</time>
      </trkpt>
      <trkpt lat="48.70702" lon="2.22378">
        <ele>109.73</ele>
        <time>2021-05-22T09:21:50Z</time>
      </trkpt>
      <trkpt lat="48.70702" lon="2.22376">
        <ele>110.21</ele>
        <time>2021-05-22T09:21:51Z</time>
      </trkpt>
      <trkpt lat="48.70702" lon="2.22374">
        <ele>110.69</ele>
        <time>2021-05-22T09:21:52Z</time>
      </trkpt>
      <trkpt lat="48.70702" lon="2.22372">
        <ele>110.69</ele>
        <time>2021-05-22T09:21:53Z</time>
      </trkpt>
      <trkpt lat="48.70699" lon="2.22362">
        <ele>113.57</ele>
        <time>2021-05-22T09:22:01Z</time>
      </trkpt>
      <trkpt lat="48.70698" lon="2.2236">
        <ele>114.05</ele>
        <time>2021-05-22T09:22:02Z</time>
      </trkpt>
      <trkpt lat="48.70701" lon="2.22342">
        <ele>116.94</ele>
        <time>2021-05-22T09:22:13Z</time>
      </trkpt>
      <trkpt lat="48.70702" lon="2.2234">
        <ele>117.9</ele>
        <time>2021-05-22T09:22:14Z</time>
      </trkpt>
      <trkpt lat="48.70702" lon="2.22339">
        <ele>117.9</ele>
        <time>2021-05-22T09:22:15Z</time>
      </trkpt>
      <trkpt lat="48.70698" lon="2.22332">
        <ele>119.82</ele>
        <time>2021-05-22T09:22:25Z</time>
      </trkpt>
      <trkpt lat="48.70697" lon="2.22302">
        <ele>120.3</ele>
        <time>2021-05-22T09:22:40Z</time>
      </trkpt>
      <trkpt lat="48.70695" lon="2.22299">
        <ele>119.82</ele>
        <time>2021-05-22T09:22:42Z</time>
      </trkpt>
      <trkpt lat="48.70692" lon="2.22289">
        <ele>119.34</ele>
        <time>2021-05-22T09:22:55Z</time>
      </trkpt>
      <trkpt lat="48.70696" lon="2.2229">
        <ele>118.38</ele>
        <time>2021-05-22T09:23:26Z</time>
      </trkpt>
      <trkpt lat="48.70695" lon="2.2229">
        <ele>117.9</ele>
        <time>2021-05-22T09:23:38Z</time>
      </trkpt>
      <trkpt lat="48.70692" lon="2.22282">
        <ele>120.3</ele>
        <time>2021-05-22T09:24:06Z</time>
      </trkpt>
      <trkpt lat="48.70691" lon="2.22278">
        <ele>118.86</ele>
        <time>2021-05-22T09:24:08Z</time>
      </trkpt>
      <trkpt lat="48.70689" lon="2.2227">
        <ele>115.5</ele>
        <time>2021-05-22T09:24:15Z</time>
      </trkpt>
      <trkpt lat="48.70685" lon="2.22259">
        <ele>111.17</ele>
        <time>2021-05-22T09:24:24Z</time>
      </trkpt>
      <trkpt lat="48.70684" lon="2.22258">
        <ele>111.17</ele>
        <time>2021-05-22T09:24:25Z</time>
      </trkpt>
      <trkpt lat="48.70677" lon="2.22248">
        <ele>107.81</ele>
        <time>2021-05-22T09:24:31Z</time>
      </trkpt>
      <trkpt lat="48.70674" lon="2.22235">
        <ele>106.36</ele>
        <time>2021-05-22T09:24:36Z</time>
      </trkpt>
      <trkpt lat="48.7068" lon="2.22212">
        <ele>107.32</ele>
        <time>2021-05-22T09:24:46Z</time>
      </trkpt>
      <trkpt lat="48.70681" lon="2.22211">
        <ele>107.32</ele>
        <time>2021-05-22T09:24:47Z</time>
      </trkpt>
      <trkpt lat="48.70682" lon="2.22209">
        <ele>106.84</ele>
        <time>2021-05-22T09:24:48Z</time>
      </trkpt>
      <trkpt lat="48.70683" lon="2.22205">
        <ele>107.32</ele>
        <time>2021-05-22T09:24:50Z</time>
      </trkpt>
      <trkpt lat="48.70683" lon="2.22202">
        <ele>107.32</ele>
        <time>2021-05-22T09:24:51Z</time>
      </trkpt>
      <trkpt lat="48.70682" lon="2.222">
        <ele>107.81</ele>
        <time>2021-05-22T09:24:52Z</time>
      </trkpt>
      <trkpt lat="48.70682" lon="2.22197">
        <ele>107.81</ele>
        <time>2021-05-22T09:24:53Z</time>
      </trkpt>
      <trkpt lat="48.70682" lon="2.22194">
        <ele>107.32</ele>
        <time>2021-05-22T09:24:54Z</time>
      </trkpt>
      <trkpt lat="48.70683" lon="2.22192">
        <ele>107.81</ele>
        <time>2021-05-22T09:24:55Z</time>
      </trkpt>
      <trkpt lat="48.70683" lon="2.2219">
        <ele>107.81</ele>
        <time>2021-05-22T09:24:56Z</time>
      </trkpt>
      <trkpt lat="48.70687" lon="2.22154">
        <ele>109.25</ele>
        <time>2021-05-22T09:25:13Z</time>
      </trkpt>
      <trkpt lat="48.70684" lon="2.22117">
        <ele>109.73</ele>
        <time>2021-05-22T09:25:31Z</time>
      </trkpt>
      <trkpt lat="48.7068" lon="2.2208">
        <ele>109.25</ele>
        <time>2021-05-22T09:25:45Z</time>
      </trkpt>
      <trkpt lat="48.70677" lon="2.22052">
        <ele>106.36</ele>
        <time>2021-05-22T09:25:59Z</time>
      </trkpt>
      <trkpt lat="48.70674" lon="2.22036">
        <ele>109.73</ele>
        <time>2021-05-22T09:26:05Z</time>
      </trkpt>
      <trkpt lat="48.70674" lon="2.22033">
        <ele>110.21</ele>
        <time>2021-05-22T09:26:06Z</time>
      </trkpt>
      <trkpt lat="48.70672" lon="2.22025">
        <ele>107.81</ele>
        <time>2021-05-22T09:26:09Z</time>
      </trkpt>
      <trkpt lat="48.70669" lon="2.22015">
        <ele>106.84</ele>
        <time>2021-05-22T09:26:13Z</time>
      </trkpt>
      <trkpt lat="48.7067" lon="2.22011">
        <ele>106.36</ele>
        <time>2021-05-22T09:26:15Z</time>
      </trkpt>
      <trkpt lat="48.70653" lon="2.2198">
        <ele>103</ele>
        <time>2021-05-22T09:26:26Z</time>
      </trkpt>
      <trkpt lat="48.70637" lon="2.21962">
        <ele>99.63</ele>
        <time>2021-05-22T09:26:35Z</time>
      </trkpt>
      <trkpt lat="48.70637" lon="2.2196">
        <ele>99.63</ele>
        <time>2021-05-22T09:26:36Z</time>
      </trkpt>
      <trkpt lat="48.70638" lon="2.21959">
        <ele>100.6</ele>
        <time>2021-05-22T09:26:37Z</time>
      </trkpt>
      <trkpt lat="48.70664" lon="2.21951">
        <ele>103</ele>
        <time>2021-05-22T09:26:55Z</time>
      </trkpt>
      <trkpt lat="48.70679" lon="2.21944">
        <ele>105.4</ele>
        <time>2021-05-22T09:27:07Z</time>
      </trkpt>
      <trkpt lat="48.70697" lon="2.21942">
        <ele>106.36</ele>
        <time>2021-05-22T09:27:20Z</time>
      </trkpt>
      <trkpt lat="48.70701" lon="2.21942">
        <ele>106.84</ele>
        <time>2021-05-22T09:27:28Z</time>
      </trkpt>
      <trkpt lat="48.70704" lon="2.21942">
        <ele>107.81</ele>
        <time>2021-05-22T09:27:34Z</time>
      </trkpt>
      <trkpt lat="48.70709" lon="2.21941">
        <ele>107.81</ele>
        <time>2021-05-22T09:27:38Z</time>
      </trkpt>
      <trkpt lat="48.70711" lon="2.21945">
        <ele>112.13</ele>
        <time>2021-05-22T09:27:52Z</time>
      </trkpt>
      <trkpt lat="48.70712" lon="2.21946">
        <ele>112.61</ele>
        <time>2021-05-22T09:27:53Z</time>
      </trkpt>
      <trkpt lat="48.70716" lon="2.21945">
        <ele>115.5</ele>
        <time>2021-05-22T09:28:00Z</time>
      </trkpt>
      <trkpt lat="48.70727" lon="2.21944">
        <ele>119.34</ele>
        <time>2021-05-22T09:28:15Z</time>
      </trkpt>
      <trkpt lat="48.70734" lon="2.2194">
        <ele>122.22</ele>
        <time>2021-05-22T09:28:25Z</time>
      </trkpt>
      <trkpt lat="48.7074" lon="2.21936">
        <ele>125.59</ele>
        <time>2021-05-22T09:28:37Z</time>
      </trkpt>
      <trkpt lat="48.70746" lon="2.2193">
        <ele>127.51</ele>
        <time>2021-05-22T09:28:57Z</time>
      </trkpt>
      <trkpt lat="48.7074" lon="2.21933">
        <ele>127.99</ele>
        <time>2021-05-22T09:29:31Z</time>
      </trkpt>
      <trkpt lat="48.70747" lon="2.2193">
        <ele>128.95</ele>
        <time>2021-05-22T09:29:39Z</time>
      </trkpt>
      <trkpt lat="48.70761" lon="2.21922">
        <ele>132.8</ele>
        <time>2021-05-22T09:29:50Z</time>
      </trkpt>
      <trkpt lat="48.70771" lon="2.21913">
        <ele>136.16</ele>
        <time>2021-05-22T09:30:03Z</time>
      </trkpt>
      <trkpt lat="48.70774" lon="2.21909">
        <ele>137.61</ele>
        <time>2021-05-22T09:30:09Z</time>
      </trkpt>
      <trkpt lat="48.7078" lon="2.21903">
        <ele>141.45</ele>
        <time>2021-05-22T09:30:20Z</time>
      </trkpt>
      <trkpt lat="48.70783" lon="2.219">
        <ele>143.37</ele>
        <time>2021-05-22T09:30:27Z</time>
      </trkpt>
      <trkpt lat="48.7079" lon="2.21899">
        <ele>146.74</ele>
        <time>2021-05-22T09:30:36Z</time>
      </trkpt>
      <trkpt lat="48.70796" lon="2.21899">
        <ele>149.62</ele>
        <time>2021-05-22T09:30:44Z</time>
      </trkpt>
      <trkpt lat="48.70797" lon="2.21899">
        <ele>149.62</ele>
        <time>2021-05-22T09:30:45Z</time>
      </trkpt>
      <trkpt lat="48.70807" lon="2.21899">
        <ele>151.54</ele>
        <time>2021-05-22T09:30:56Z</time>
      </trkpt>
      <trkpt lat="48.70827" lon="2.21898">
        <ele>153.95</ele>
        <time>2021-05-22T09:31:10Z</time>
      </trkpt>
      <trkpt lat="48.70848" lon="2.21901">
        <ele>155.39</ele>
        <time>2021-05-22T09:31:25Z</time>
      </trkpt>
      <trkpt lat="48.70851" lon="2.21902">
        <ele>155.39</ele>
        <time>2021-05-22T09:31:27Z</time>
      </trkpt>
      <trkpt lat="48.70864" lon="2.21881">
        <ele>156.35</ele>
        <time>2021-05-22T09:31:35Z</time>
      </trkpt>
      <trkpt lat="48.7087" lon="2.21863">
        <ele>156.35</ele>
        <time>2021-05-22T09:31:47Z</time>
      </trkpt>
      <trkpt lat="48.70874" lon="2.21831">
        <ele>156.35</ele>
        <time>2021-05-22T09:32:02Z</time>
      </trkpt>
      <trkpt lat="48.70875" lon="2.21795">
        <ele>156.35</ele>
        <time>2021-05-22T09:32:15Z</time>
      </trkpt>
      <trkpt lat="48.70875" lon="2.21781">
        <ele>157.31</ele>
        <time>2021-05-22T09:32:23Z</time>
      </trkpt>
      <trkpt lat="48.7088" lon="2.21746">
        <ele>157.79</ele>
        <time>2021-05-22T09:32:36Z</time>
      </trkpt>
      <trkpt lat="48.7088" lon="2.21744">
        <ele>157.31</ele>
        <time>2021-05-22T09:32:37Z</time>
      </trkpt>
      <trkpt lat="48.7088" lon="2.21742">
        <ele>157.31</ele>
        <time>2021-05-22T09:32:38Z</time>
      </trkpt>
      <trkpt lat="48.7088" lon="2.2174">
        <ele>157.31</ele>
        <time>2021-05-22T09:32:39Z</time>
      </trkpt>
      <trkpt lat="48.7088" lon="2.21711">
        <ele>157.79</ele>
        <time>2021-05-22T09:32:52Z</time>
      </trkpt>
      <trkpt lat="48.70874" lon="2.21668">
        <ele>157.31</ele>
        <time>2021-05-22T09:33:10Z</time>
      </trkpt>
      <trkpt lat="48.70874" lon="2.21638">
        <ele>157.79</ele>
        <time>2021-05-22T09:33:20Z</time>
      </trkpt>
      <trkpt lat="48.70874" lon="2.21633">
        <ele>157.79</ele>
        <time>2021-05-22T09:33:24Z</time>
      </trkpt>
      <trkpt lat="48.70879" lon="2.21601">
        <ele>157.79</ele>
        <time>2021-05-22T09:33:37Z</time>
      </trkpt>
      <trkpt lat="48.70879" lon="2.21584">
        <ele>157.79</ele>
        <time>2021-05-22T09:33:44Z</time>
      </trkpt>
      <trkpt lat="48.7088" lon="2.21581">
        <ele>157.79</ele>
        <time>2021-05-22T09:33:45Z</time>
      </trkpt>
      <trkpt lat="48.70879" lon="2.21568">
        <ele>156.83</ele>
        <time>2021-05-22T09:33:52Z</time>
      </trkpt>
      <trkpt lat="48.70879" lon="2.21565">
        <ele>156.83</ele>
        <time>2021-05-22T09:33:53Z</time>
      </trkpt>
      <trkpt lat="48.70879" lon="2.21533">
        <ele>156.83</ele>
        <time>2021-05-22T09:34:06Z</time>
      </trkpt>
      <trkpt lat="48.70876" lon="2.21497">
        <ele>156.83</ele>
        <time>2021-05-22T09:34:20Z</time>
      </trkpt>
      <trkpt lat="48.70872" lon="2.21465">
        <ele>155.87</ele>
        <time>2021-05-22T09:34:32Z</time>
      </trkpt>
      <trkpt lat="48.70868" lon="2.21454">
        <ele>156.83</ele>
        <time>2021-05-22T09:34:37Z</time>
      </trkpt>
      <trkpt lat="48.70868" lon="2.21451">
        <ele>156.35</ele>
        <time>2021-05-22T09:34:38Z</time>
      </trkpt>
      <trkpt lat="48.70871" lon="2.21419">
        <ele>157.31</ele>
        <time>2021-05-22T09:34:51Z</time>
      </trkpt>
      <trkpt lat="48.70867" lon="2.21382">
        <ele>157.31</ele>
        <time>2021-05-22T09:35:05Z</time>
      </trkpt>
      <trkpt lat="48.70866" lon="2.2138">
        <ele>157.31</ele>
        <time>2021-05-22T09:35:06Z</time>
      </trkpt>
      <trkpt lat="48.70866" lon="2.21377">
        <ele>157.31</ele>
        <time>2021-05-22T09:35:07Z</time>
      </trkpt>
      <trkpt lat="48.70867" lon="2.21374">
        <ele>156.35</ele>
        <time>2021-05-22T09:35:08Z</time>
      </trkpt>
      <trkpt lat="48.70867" lon="2.21371">
        <ele>156.35</ele>
        <time>2021-05-22T09:35:09Z</time>
      </trkpt>
      <trkpt lat="48.70867" lon="2.21368">
        <ele>156.35</ele>
        <time>2021-05-22T09:35:10Z</time>
      </trkpt>
      <trkpt lat="48.70862" lon="2.2134">
        <ele>155.39</ele>
        <time>2021-05-22T09:35:24Z</time>
      </trkpt>
      <trkpt lat="48.7086" lon="2.21338">
        <ele>155.39</ele>
        <time>2021-05-22T09:35:25Z</time>
      </trkpt>
      <trkpt lat="48.70859" lon="2.21337">
        <ele>154.91</ele>
        <time>2021-05-22T09:35:26Z</time>
      </trkpt>
      <trkpt lat="48.70857" lon="2.21335">
        <ele>154.91</ele>
        <time>2021-05-22T09:35:27Z</time>
      </trkpt>
      <trkpt lat="48.70855" lon="2.21333">
        <ele>154.43</ele>
        <time>2021-05-22T09:35:28Z</time>
      </trkpt>
      <trkpt lat="48.70854" lon="2.2133">
        <ele>153.47</ele>
        <time>2021-05-22T09:35:29Z</time>
      </trkpt>
      <trkpt lat="48.70851" lon="2.21327">
        <ele>152.51</ele>
        <time>2021-05-22T09:35:30Z</time>
      </trkpt>
      <trkpt lat="48.70849" lon="2.21323">
        <ele>152.03</ele>
        <time>2021-05-22T09:35:31Z</time>
      </trkpt>
      <trkpt lat="48.70846" lon="2.21319">
        <ele>152.03</ele>
        <time>2021-05-22T09:35:32Z</time>
      </trkpt>
      <trkpt lat="48.7084" lon="2.21309">
        <ele>150.58</ele>
        <time>2021-05-22T09:35:35Z</time>
      </trkpt>
      <trkpt lat="48.7083" lon="2.21276">
        <ele>147.22</ele>
        <time>2021-05-22T09:35:43Z</time>
      </trkpt>
      <trkpt lat="48.70823" lon="2.21251">
        <ele>143.37</ele>
        <time>2021-05-22T09:35:49Z</time>
      </trkpt>
      <trkpt lat="48.70816" lon="2.21231">
        <ele>140.01</ele>
        <time>2021-05-22T09:35:53Z</time>
      </trkpt>
      <trkpt lat="48.70811" lon="2.21217">
        <ele>139.05</ele>
        <time>2021-05-22T09:35:56Z</time>
      </trkpt>
      <trkpt lat="48.70809" lon="2.21208">
        <ele>138.09</ele>
        <time>2021-05-22T09:35:58Z</time>
      </trkpt>
      <trkpt lat="48.70804" lon="2.21181">
        <ele>136.16</ele>
        <time>2021-05-22T09:36:04Z</time>
      </trkpt>
      <trkpt lat="48.70802" lon="2.21169">
        <ele>133.28</ele>
        <time>2021-05-22T09:36:08Z</time>
      </trkpt>
      <trkpt lat="48.70791" lon="2.21142">
        <ele>129.92</ele>
        <time>2021-05-22T09:36:15Z</time>
      </trkpt>
      <trkpt lat="48.7078" lon="2.21129">
        <ele>126.07</ele>
        <time>2021-05-22T09:36:20Z</time>
      </trkpt>
      <trkpt lat="48.7077" lon="2.21119">
        <ele>123.19</ele>
        <time>2021-05-22T09:36:24Z</time>
      </trkpt>
      <trkpt lat="48.70762" lon="2.21108">
        <ele>119.82</ele>
        <time>2021-05-22T09:36:29Z</time>
      </trkpt>
      <trkpt lat="48.7076" lon="2.21105">
        <ele>119.82</ele>
        <time>2021-05-22T09:36:30Z</time>
      </trkpt>
      <trkpt lat="48.70747" lon="2.21098">
        <ele>115.98</ele>
        <time>2021-05-22T09:36:36Z</time>
      </trkpt>
      <trkpt lat="48.70739" lon="2.21097">
        <ele>114.05</ele>
        <time>2021-05-22T09:36:40Z</time>
      </trkpt>
      <trkpt lat="48.70733" lon="2.21094">
        <ele>110.69</ele>
        <time>2021-05-22T09:36:44Z</time>
      </trkpt>
      <trkpt lat="48.70728" lon="2.21092">
        <ele>108.29</ele>
        <time>2021-05-22T09:36:48Z</time>
      </trkpt>
      <trkpt lat="48.70722" lon="2.21088">
        <ele>105.4</ele>
        <time>2021-05-22T09:36:55Z</time>
      </trkpt>
      <trkpt lat="48.7072" lon="2.21088">
        <ele>104.92</ele>
        <time>2021-05-22T09:36:56Z</time>
      </trkpt>
      <trkpt lat="48.70707" lon="2.21085">
        <ele>101.08</ele>
        <time>2021-05-22T09:37:02Z</time>
      </trkpt>
      <trkpt lat="48.70703" lon="2.21082">
        <ele>100.11</ele>
        <time>2021-05-22T09:37:04Z</time>
      </trkpt>
      <trkpt lat="48.707" lon="2.2108">
        <ele>99.15</ele>
        <time>2021-05-22T09:37:06Z</time>
      </trkpt>
      <trkpt lat="48.7069" lon="2.21073">
        <ele>95.79</ele>
        <time>2021-05-22T09:37:11Z</time>
      </trkpt>
      <trkpt lat="48.70686" lon="2.21071">
        <ele>94.83</ele>
        <time>2021-05-22T09:37:13Z</time>
      </trkpt>
      <trkpt lat="48.70676" lon="2.2106">
        <ele>92.42</ele>
        <time>2021-05-22T09:37:19Z</time>
      </trkpt>
      <trkpt lat="48.70675" lon="2.21058">
        <ele>91.94</ele>
        <time>2021-05-22T09:37:20Z</time>
      </trkpt>
      <trkpt lat="48.70676" lon="2.21052">
        <ele>91.46</ele>
        <time>2021-05-22T09:37:22Z</time>
      </trkpt>
      <trkpt lat="48.70677" lon="2.2105">
        <ele>91.46</ele>
        <time>2021-05-22T09:37:23Z</time>
      </trkpt>
      <trkpt lat="48.70688" lon="2.21025">
        <ele>92.9</ele>
        <time>2021-05-22T09:37:36Z</time>
      </trkpt>
      <trkpt lat="48.70701" lon="2.20995">
        <ele>94.83</ele>
        <time>2021-05-22T09:37:52Z</time>
      </trkpt>
      <trkpt lat="48.70709" lon="2.20965">
        <ele>95.79</ele>
        <time>2021-05-22T09:38:08Z</time>
      </trkpt>
      <trkpt lat="48.70718" lon="2.20946">
        <ele>98.19</ele>
        <time>2021-05-22T09:38:24Z</time>
      </trkpt>
      <trkpt lat="48.7072" lon="2.2094">
        <ele>98.19</ele>
        <time>2021-05-22T09:38:28Z</time>
      </trkpt>
      <trkpt lat="48.70729" lon="2.20927">
        <ele>100.6</ele>
        <time>2021-05-22T09:38:43Z</time>
      </trkpt>
      <trkpt lat="48.70743" lon="2.20891">
        <ele>102.04</ele>
        <time>2021-05-22T09:38:56Z</time>
      </trkpt>
      <trkpt lat="48.70758" lon="2.20861">
        <ele>103.96</ele>
        <time>2021-05-22T09:39:10Z</time>
      </trkpt>
      <trkpt lat="48.70767" lon="2.20824">
        <ele>105.88</ele>
        <time>2021-05-22T09:39:29Z</time>
      </trkpt>
      <trkpt lat="48.70769" lon="2.2082">
        <ele>106.36</ele>
        <time>2021-05-22T09:39:31Z</time>
      </trkpt>
      <trkpt lat="48.7077" lon="2.20817">
        <ele>105.88</ele>
        <time>2021-05-22T09:39:33Z</time>
      </trkpt>
      <trkpt lat="48.70767" lon="2.20778">
        <ele>108.77</ele>
        <time>2021-05-22T09:39:49Z</time>
      </trkpt>
      <trkpt lat="48.70771" lon="2.20747">
        <ele>109.25</ele>
        <time>2021-05-22T09:40:04Z</time>
      </trkpt>
      <trkpt lat="48.70775" lon="2.20724">
        <ele>109.25</ele>
        <time>2021-05-22T09:40:14Z</time>
      </trkpt>
      <trkpt lat="48.70773" lon="2.20702">
        <ele>109.73</ele>
        <time>2021-05-22T09:40:25Z</time>
      </trkpt>
      <trkpt lat="48.70772" lon="2.20699">
        <ele>109.73</ele>
        <time>2021-05-22T09:40:26Z</time>
      </trkpt>
      <trkpt lat="48.70772" lon="2.20669">
        <ele>110.21</ele>
        <time>2021-05-22T09:40:38Z</time>
      </trkpt>
      <trkpt lat="48.70773" lon="2.20646">
        <ele>109.25</ele>
        <time>2021-05-22T09:40:50Z</time>
      </trkpt>
      <trkpt lat="48.70774" lon="2.20616">
        <ele>108.77</ele>
        <time>2021-05-22T09:41:03Z</time>
      </trkpt>
      <trkpt lat="48.70771" lon="2.20585">
        <ele>109.73</ele>
        <time>2021-05-22T09:41:19Z</time>
      </trkpt>
      <trkpt lat="48.70769" lon="2.20546">
        <ele>110.69</ele>
        <time>2021-05-22T09:41:34Z</time>
      </trkpt>
      <trkpt lat="48.70779" lon="2.20519">
        <ele>110.69</ele>
        <time>2021-05-22T09:41:48Z</time>
      </trkpt>
      <trkpt lat="48.7078" lon="2.20499">
        <ele>111.17</ele>
        <time>2021-05-22T09:42:00Z</time>
      </trkpt>
      <trkpt lat="48.7078" lon="2.20497">
        <ele>112.13</ele>
        <time>2021-05-22T09:42:01Z</time>
      </trkpt>
      <trkpt lat="48.70776" lon="2.20453">
        <ele>113.09</ele>
        <time>2021-05-22T09:42:18Z</time>
      </trkpt>
      <trkpt lat="48.70777" lon="2.20432">
        <ele>113.09</ele>
        <time>2021-05-22T09:42:28Z</time>
      </trkpt>
      <trkpt lat="48.70788" lon="2.20392">
        <ele>114.53</ele>
        <time>2021-05-22T09:42:46Z</time>
      </trkpt>
      <trkpt lat="48.70788" lon="2.20358">
        <ele>116.94</ele>
        <time>2021-05-22T09:43:02Z</time>
      </trkpt>
      <trkpt lat="48.70785" lon="2.20349">
        <ele>116.94</ele>
        <time>2021-05-22T09:43:06Z</time>
      </trkpt>
      <trkpt lat="48.70784" lon="2.20347">
        <ele>116.94</ele>
        <time>2021-05-22T09:43:07Z</time>
      </trkpt>
      <trkpt lat="48.70771" lon="2.20329">
        <ele>113.09</ele>
        <time>2021-05-22T09:43:17Z</time>
      </trkpt>
      <trkpt lat="48.70772" lon="2.20329">
        <ele>113.57</ele>
        <time>2021-05-22T09:43:18Z</time>
      </trkpt>
      <trkpt lat="48.70761" lon="2.20312">
        <ele>110.69</ele>
        <time>2021-05-22T09:43:27Z</time>
      </trkpt>
      <trkpt lat="48.70759" lon="2.2031">
        <ele>110.21</ele>
        <time>2021-05-22T09:43:28Z</time>
      </trkpt>
      <trkpt lat="48.70758" lon="2.20308">
        <ele>109.73</ele>
        <time>2021-05-22T09:43:29Z</time>
      </trkpt>
      <trkpt lat="48.70746" lon="2.20303">
        <ele>106.36</ele>
        <time>2021-05-22T09:43:38Z</time>
      </trkpt>
      <trkpt lat="48.70734" lon="2.20301">
        <ele>103.96</ele>
        <time>2021-05-22T09:43:49Z</time>
      </trkpt>
      <trkpt lat="48.70731" lon="2.20296">
        <ele>100.6</ele>
        <time>2021-05-22T09:43:54Z</time>
      </trkpt>
      <trkpt lat="48.70734" lon="2.20267">
        <ele>98.67</ele>
        <time>2021-05-22T09:44:08Z</time>
      </trkpt>
      <trkpt lat="48.70737" lon="2.20256">
        <ele>98.67</ele>
        <time>2021-05-22T09:44:14Z</time>
      </trkpt>
      <trkpt lat="48.70738" lon="2.20254">
        <ele>98.67</ele>
        <time>2021-05-22T09:44:15Z</time>
      </trkpt>
      <trkpt lat="48.70738" lon="2.20228">
        <ele>100.11</ele>
        <time>2021-05-22T09:44:29Z</time>
      </trkpt>
      <trkpt lat="48.70739" lon="2.20196">
        <ele>100.6</ele>
        <time>2021-05-22T09:44:46Z</time>
      </trkpt>
      <trkpt lat="48.70738" lon="2.20186">
        <ele>100.11</ele>
        <time>2021-05-22T09:44:51Z</time>
      </trkpt>
      <trkpt lat="48.70746" lon="2.2017">
        <ele>103</ele>
        <time>2021-05-22T09:45:05Z</time>
      </trkpt>
      <trkpt lat="48.70755" lon="2.20171">
        <ele>106.36</ele>
        <time>2021-05-22T09:45:18Z</time>
      </trkpt>
      <trkpt lat="48.70765" lon="2.20174">
        <ele>109.25</ele>
        <time>2021-05-22T09:45:28Z</time>
      </trkpt>
      <trkpt lat="48.70784" lon="2.20156">
        <ele>111.17</ele>
        <time>2021-05-22T09:45:42Z</time>
      </trkpt>
      <trkpt lat="48.70799" lon="2.20137">
        <ele>111.65</ele>
        <time>2021-05-22T09:45:56Z</time>
      </trkpt>
      <trkpt lat="48.70805" lon="2.20128">
        <ele>110.69</ele>
        <time>2021-05-22T09:46:03Z</time>
      </trkpt>
      <trkpt lat="48.70814" lon="2.20102">
        <ele>108.29</ele>
        <time>2021-05-22T09:46:15Z</time>
      </trkpt>
      <trkpt lat="48.70813" lon="2.20066">
        <ele>108.29</ele>
        <time>2021-05-22T09:46:28Z</time>
      </trkpt>
      <trkpt lat="48.70807" lon="2.20038">
        <ele>108.77</ele>
        <time>2021-05-22T09:46:41Z</time>
      </trkpt>
      <trkpt lat="48.70804" lon="2.20025">
        <ele>106.84</ele>
        <time>2021-05-22T09:46:46Z</time>
      </trkpt>
      <trkpt lat="48.70804" lon="2.2001">
        <ele>106.36</ele>
        <time>2021-05-22T09:46:52Z</time>
      </trkpt>
      <trkpt lat="48.70804" lon="2.20009">
        <ele>106.84</ele>
        <time>2021-05-22T09:46:53Z</time>
      </trkpt>
      <trkpt lat="48.70805" lon="2.20008">
        <ele>106.36</ele>
        <time>2021-05-22T09:46:54Z</time>
      </trkpt>
      <trkpt lat="48.70814" lon="2.19996">
        <ele>108.77</ele>
        <time>2021-05-22T09:47:03Z</time>
      </trkpt>
      <trkpt lat="48.70815" lon="2.19994">
        <ele>108.77</ele>
        <time>2021-05-22T09:47:04Z</time>
      </trkpt>
      <trkpt lat="48.70816" lon="2.19992">
        <ele>109.25</ele>
        <time>2021-05-22T09:47:05Z</time>
      </trkpt>
      <trkpt lat="48.70816" lon="2.1999">
        <ele>109.25</ele>
        <time>2021-05-22T09:47:06Z</time>
      </trkpt>
      <trkpt lat="48.70817" lon="2.19989">
        <ele>108.77</ele>
        <time>2021-05-22T09:47:07Z</time>
      </trkpt>
      <trkpt lat="48.70825" lon="2.1997">
        <ele>110.69</ele>
        <time>2021-05-22T09:47:19Z</time>
      </trkpt>
      <trkpt lat="48.70826" lon="2.1997">
        <ele>110.69</ele>
        <time>2021-05-22T09:47:20Z</time>
      </trkpt>
      <trkpt lat="48.70827" lon="2.1997">
        <ele>111.17</ele>
        <time>2021-05-22T09:47:21Z</time>
      </trkpt>
      <trkpt lat="48.70833" lon="2.19975">
        <ele>113.09</ele>
        <time>2021-05-22T09:47:26Z</time>
      </trkpt>
      <trkpt lat="48.70837" lon="2.19976">
        <ele>112.61</ele>
        <time>2021-05-22T09:47:30Z</time>
      </trkpt>
      <trkpt lat="48.70838" lon="2.19974">
        <ele>113.09</ele>
        <time>2021-05-22T09:47:31Z</time>
      </trkpt>
      <trkpt lat="48.7084" lon="2.19972">
        <ele>113.57</ele>
        <time>2021-05-22T09:47:32Z</time>
      </trkpt>
      <trkpt lat="48.7084" lon="2.1997">
        <ele>114.05</ele>
        <time>2021-05-22T09:47:33Z</time>
      </trkpt>
      <trkpt lat="48.70841" lon="2.19968">
        <ele>114.05</ele>
        <time>2021-05-22T09:47:34Z</time>
      </trkpt>
      <trkpt lat="48.70842" lon="2.19967">
        <ele>115.01</ele>
        <time>2021-05-22T09:47:35Z</time>
      </trkpt>
      <trkpt lat="48.70843" lon="2.19965">
        <ele>115.01</ele>
        <time>2021-05-22T09:47:36Z</time>
      </trkpt>
      <trkpt lat="48.70844" lon="2.19965">
        <ele>115.01</ele>
        <time>2021-05-22T09:47:37Z</time>
      </trkpt>
      <trkpt lat="48.70845" lon="2.19965">
        <ele>115.5</ele>
        <time>2021-05-22T09:47:38Z</time>
      </trkpt>
      <trkpt lat="48.70845" lon="2.19965">
        <ele>115.5</ele>
        <time>2021-05-22T09:47:39Z</time>
      </trkpt>
      <trkpt lat="48.70845" lon="2.19964">
        <ele>115.98</ele>
        <time>2021-05-22T09:47:40Z</time>
      </trkpt>
      <trkpt lat="48.70846" lon="2.19959">
        <ele>117.9</ele>
        <time>2021-05-22T09:47:42Z</time>
      </trkpt>
      <trkpt lat="48.70847" lon="2.19957">
        <ele>117.9</ele>
        <time>2021-05-22T09:47:43Z</time>
      </trkpt>
      <trkpt lat="48.70848" lon="2.19955">
        <ele>117.9</ele>
        <time>2021-05-22T09:47:44Z</time>
      </trkpt>
      <trkpt lat="48.70848" lon="2.19953">
        <ele>117.9</ele>
        <time>2021-05-22T09:47:45Z</time>
      </trkpt>
      <trkpt lat="48.70849" lon="2.19951">
        <ele>117.9</ele>
        <time>2021-05-22T09:47:46Z</time>
      </trkpt>
      <trkpt lat="48.7085" lon="2.19949">
        <ele>117.9</ele>
        <time>2021-05-22T09:47:47Z</time>
      </trkpt>
      <trkpt lat="48.7085" lon="2.19948">
        <ele>117.9</ele>
        <time>2021-05-22T09:47:48Z</time>
      </trkpt>
      <trkpt lat="48.70853" lon="2.19947">
        <ele>120.3</ele>
        <time>2021-05-22T09:47:53Z</time>
      </trkpt>
      <trkpt lat="48.70855" lon="2.19947">
        <ele>120.78</ele>
        <time>2021-05-22T09:47:56Z</time>
      </trkpt>
      <trkpt lat="48.70857" lon="2.19946">
        <ele>121.74</ele>
        <time>2021-05-22T09:47:59Z</time>
      </trkpt>
      <trkpt lat="48.70857" lon="2.19945">
        <ele>122.22</ele>
        <time>2021-05-22T09:48:00Z</time>
      </trkpt>
      <trkpt lat="48.70861" lon="2.19942">
        <ele>124.63</ele>
        <time>2021-05-22T09:48:07Z</time>
      </trkpt>
      <trkpt lat="48.70866" lon="2.19944">
        <ele>127.51</ele>
        <time>2021-05-22T09:48:19Z</time>
      </trkpt>
      <trkpt lat="48.7087" lon="2.19937">
        <ele>130.88</ele>
        <time>2021-05-22T09:48:31Z</time>
      </trkpt>
      <trkpt lat="48.70871" lon="2.19935">
        <ele>130.88</ele>
        <time>2021-05-22T09:48:33Z</time>
      </trkpt>
      <trkpt lat="48.70877" lon="2.19928">
        <ele>134.24</ele>
        <time>2021-05-22T09:48:47Z</time>
      </trkpt>
      <trkpt lat="48.70883" lon="2.1992">
        <ele>137.13</ele>
        <time>2021-05-22T09:48:57Z</time>
      </trkpt>
      <trkpt lat="48.70889" lon="2.19911">
        <ele>140.01</ele>
        <time>2021-05-22T09:49:10Z</time>
      </trkpt>
      <trkpt lat="48.70892" lon="2.19907">
        <ele>143.37</ele>
        <time>2021-05-22T09:49:18Z</time>
      </trkpt>
      <trkpt lat="48.70899" lon="2.19903">
        <ele>142.89</ele>
        <time>2021-05-22T09:49:23Z</time>
      </trkpt>
      <trkpt lat="48.70904" lon="2.19896">
        <ele>144.82</ele>
        <time>2021-05-22T09:49:29Z</time>
      </trkpt>
      <trkpt lat="48.70906" lon="2.19893">
        <ele>144.82</ele>
        <time>2021-05-22T09:49:31Z</time>
      </trkpt>
      <trkpt lat="48.70911" lon="2.19883">
        <ele>144.82</ele>
        <time>2021-05-22T09:49:35Z</time>
      </trkpt>
      <trkpt lat="48.70919" lon="2.1986">
        <ele>146.26</ele>
        <time>2021-05-22T09:49:52Z</time>
      </trkpt>
      <trkpt lat="48.70921" lon="2.1986">
        <ele>146.74</ele>
        <time>2021-05-22T09:49:54Z</time>
      </trkpt>
      <trkpt lat="48.70923" lon="2.19857">
        <ele>146.26</ele>
        <time>2021-05-22T09:49:56Z</time>
      </trkpt>
      <trkpt lat="48.70926" lon="2.19855">
        <ele>146.74</ele>
        <time>2021-05-22T09:49:58Z</time>
      </trkpt>
      <trkpt lat="48.70935" lon="2.19845">
        <ele>148.18</ele>
        <time>2021-05-22T09:50:04Z</time>
      </trkpt>
      <trkpt lat="48.70935" lon="2.19843">
        <ele>147.7</ele>
        <time>2021-05-22T09:50:06Z</time>
      </trkpt>
      <trkpt lat="48.70942" lon="2.19812">
        <ele>147.22</ele>
        <time>2021-05-22T09:50:24Z</time>
      </trkpt>
      <trkpt lat="48.70942" lon="2.19808">
        <ele>147.22</ele>
        <time>2021-05-22T09:50:29Z</time>
      </trkpt>
      <trkpt lat="48.70962" lon="2.19792">
        <ele>147.7</ele>
        <time>2021-05-22T09:50:46Z</time>
      </trkpt>
      <trkpt lat="48.70963" lon="2.19792">
        <ele>148.18</ele>
        <time>2021-05-22T09:50:47Z</time>
      </trkpt>
      <trkpt lat="48.70977" lon="2.19784">
        <ele>147.7</ele>
        <time>2021-05-22T09:50:59Z</time>
      </trkpt>
      <trkpt lat="48.70981" lon="2.19775">
        <ele>147.7</ele>
        <time>2021-05-22T09:51:09Z</time>
      </trkpt>
      <trkpt lat="48.70978" lon="2.19764">
        <ele>150.1</ele>
        <time>2021-05-22T09:51:19Z</time>
      </trkpt>
      <trkpt lat="48.70979" lon="2.19749">
        <ele>152.03</ele>
        <time>2021-05-22T09:51:25Z</time>
      </trkpt>
      <trkpt lat="48.70982" lon="2.19749">
        <ele>152.51</ele>
        <time>2021-05-22T09:51:27Z</time>
      </trkpt>
      <trkpt lat="48.71002" lon="2.19751">
        <ele>155.87</ele>
        <time>2021-05-22T09:51:35Z</time>
      </trkpt>
      <trkpt lat="48.70999" lon="2.19756">
        <ele>158.75</ele>
        <time>2021-05-22T09:51:46Z</time>
      </trkpt>
      <trkpt lat="48.70999" lon="2.19753">
        <ele>159.24</ele>
        <time>2021-05-22T09:51:47Z</time>
      </trkpt>
      <trkpt lat="48.70999" lon="2.19745">
        <ele>160.2</ele>
        <time>2021-05-22T09:51:50Z</time>
      </trkpt>
      <trkpt lat="48.71002" lon="2.19714">
        <ele>160.68</ele>
        <time>2021-05-22T09:52:03Z</time>
      </trkpt>
      <trkpt lat="48.71" lon="2.19685">
        <ele>159.24</ele>
        <time>2021-05-22T09:52:13Z</time>
      </trkpt>
      <trkpt lat="48.71" lon="2.19684">
        <ele>159.24</ele>
        <time>2021-05-22T09:52:14Z</time>
      </trkpt>
      <trkpt lat="48.71002" lon="2.19657">
        <ele>157.79</ele>
        <time>2021-05-22T09:52:28Z</time>
      </trkpt>
      <trkpt lat="48.71001" lon="2.19647">
        <ele>157.79</ele>
        <time>2021-05-22T09:52:34Z</time>
      </trkpt>
      <trkpt lat="48.71002" lon="2.19641">
        <ele>157.31</ele>
        <time>2021-05-22T09:52:37Z</time>
      </trkpt>
      <trkpt lat="48.71004" lon="2.19593">
        <ele>156.35</ele>
        <time>2021-05-22T09:52:58Z</time>
      </trkpt>
      <trkpt lat="48.71003" lon="2.19563">
        <ele>156.83</ele>
        <time>2021-05-22T09:53:11Z</time>
      </trkpt>
      <trkpt lat="48.71004" lon="2.19551">
        <ele>156.83</ele>
        <time>2021-05-22T09:53:17Z</time>
      </trkpt>
      <trkpt lat="48.7101" lon="2.1953">
        <ele>156.83</ele>
        <time>2021-05-22T09:53:30Z</time>
      </trkpt>
      <trkpt lat="48.71015" lon="2.19507">
        <ele>156.83</ele>
        <time>2021-05-22T09:53:45Z</time>
      </trkpt>
      <trkpt lat="48.71028" lon="2.19464">
        <ele>156.83</ele>
        <time>2021-05-22T09:53:59Z</time>
      </trkpt>
      <trkpt lat="48.71029" lon="2.19462">
        <ele>156.83</ele>
        <time>2021-05-22T09:54:00Z</time>
      </trkpt>
      <trkpt lat="48.71033" lon="2.19453">
        <ele>156.35</ele>
        <time>2021-05-22T09:54:06Z</time>
      </trkpt>
      <trkpt lat="48.71035" lon="2.19444">
        <ele>156.35</ele>
        <time>2021-05-22T09:54:12Z</time>
      </trkpt>
      <trkpt lat="48.71035" lon="2.19441">
        <ele>156.35</ele>
        <time>2021-05-22T09:54:13Z</time>
      </trkpt>
      <trkpt lat="48.71036" lon="2.19439">
        <ele>155.87</ele>
        <time>2021-05-22T09:54:14Z</time>
      </trkpt>
      <trkpt lat="48.71037" lon="2.19436">
        <ele>155.87</ele>
        <time>2021-05-22T09:54:15Z</time>
      </trkpt>
      <trkpt lat="48.71038" lon="2.19433">
        <ele>155.87</ele>
        <time>2021-05-22T09:54:16Z</time>
      </trkpt>
      <trkpt lat="48.71043" lon="2.19398">
        <ele>155.39</ele>
        <time>2021-05-22T09:54:30Z</time>
      </trkpt>
      <trkpt lat="48.71043" lon="2.19392">
        <ele>156.83</ele>
        <time>2021-05-22T09:54:33Z</time>
      </trkpt>
      <trkpt lat="48.71044" lon="2.19388">
        <ele>157.79</ele>
        <time>2021-05-22T09:54:35Z</time>
      </trkpt>
      <trkpt lat="48.71043" lon="2.19385">
        <ele>157.31</ele>
        <time>2021-05-22T09:54:37Z</time>
      </trkpt>
      <trkpt lat="48.71042" lon="2.19383">
        <ele>158.27</ele>
        <time>2021-05-22T09:54:38Z</time>
      </trkpt>
      <trkpt lat="48.7104" lon="2.19382">
        <ele>157.79</ele>
        <time>2021-05-22T09:54:39Z</time>
      </trkpt>
      <trkpt lat="48.71038" lon="2.19381">
        <ele>158.27</ele>
        <time>2021-05-22T09:54:40Z</time>
      </trkpt>
      <trkpt lat="48.71036" lon="2.1938">
        <ele>158.27</ele>
        <time>2021-05-22T09:54:41Z</time>
      </trkpt>
      <trkpt lat="48.7101" lon="2.19371">
        <ele>156.35</ele>
        <time>2021-05-22T09:54:55Z</time>
      </trkpt>
      <trkpt lat="48.71" lon="2.19366">
        <ele>155.87</ele>
        <time>2021-05-22T09:55:07Z</time>
      </trkpt>
      <trkpt lat="48.70979" lon="2.19353">
        <ele>155.39</ele>
        <time>2021-05-22T09:55:22Z</time>
      </trkpt>
      <trkpt lat="48.70956" lon="2.19341">
        <ele>154.43</ele>
        <time>2021-05-22T09:55:38Z</time>
      </trkpt>
      <trkpt lat="48.70954" lon="2.19341">
        <ele>154.43</ele>
        <time>2021-05-22T09:55:39Z</time>
      </trkpt>
      <trkpt lat="48.70952" lon="2.19341">
        <ele>153.95</ele>
        <time>2021-05-22T09:55:40Z</time>
      </trkpt>
      <trkpt lat="48.7095" lon="2.1934">
        <ele>153.95</ele>
        <time>2021-05-22T09:55:41Z</time>
      </trkpt>
      <trkpt lat="48.70948" lon="2.19339">
        <ele>153.95</ele>
        <time>2021-05-22T09:55:42Z</time>
      </trkpt>
      <trkpt lat="48.70946" lon="2.19339">
        <ele>153.47</ele>
        <time>2021-05-22T09:55:43Z</time>
      </trkpt>
      <trkpt lat="48.70944" lon="2.19338">
        <ele>152.99</ele>
        <time>2021-05-22T09:55:44Z</time>
      </trkpt>
      <trkpt lat="48.70942" lon="2.19337">
        <ele>152.51</ele>
        <time>2021-05-22T09:55:45Z</time>
      </trkpt>
      <trkpt lat="48.7094" lon="2.19336">
        <ele>152.51</ele>
        <time>2021-05-22T09:55:46Z</time>
      </trkpt>
      <trkpt lat="48.70939" lon="2.19335">
        <ele>152.51</ele>
        <time>2021-05-22T09:55:47Z</time>
      </trkpt>
      <trkpt lat="48.70938" lon="2.19335">
        <ele>152.51</ele>
        <time>2021-05-22T09:55:48Z</time>
      </trkpt>
      <trkpt lat="48.70933" lon="2.19334">
        <ele>153.47</ele>
        <time>2021-05-22T09:55:51Z</time>
      </trkpt>
      <trkpt lat="48.70932" lon="2.19333">
        <ele>152.99</ele>
        <time>2021-05-22T09:55:52Z</time>
      </trkpt>
      <trkpt lat="48.70915" lon="2.19321">
        <ele>152.03</ele>
        <time>2021-05-22T09:56:05Z</time>
      </trkpt>
      <trkpt lat="48.70904" lon="2.19318">
        <ele>148.66</ele>
        <time>2021-05-22T09:56:16Z</time>
      </trkpt>
      <trkpt lat="48.70903" lon="2.19317">
        <ele>148.66</ele>
        <time>2021-05-22T09:56:17Z</time>
      </trkpt>
      <trkpt lat="48.70895" lon="2.19313">
        <ele>148.18</ele>
        <time>2021-05-22T09:56:24Z</time>
      </trkpt>
      <trkpt lat="48.70876" lon="2.19308">
        <ele>144.82</ele>
        <time>2021-05-22T09:56:36Z</time>
      </trkpt>
      <trkpt lat="48.70868" lon="2.19305">
        <ele>141.45</ele>
        <time>2021-05-22T09:56:45Z</time>
      </trkpt>
      <trkpt lat="48.70864" lon="2.19304">
        <ele>139.53</ele>
        <time>2021-05-22T09:56:49Z</time>
      </trkpt>
      <trkpt lat="48.70859" lon="2.193">
        <ele>137.13</ele>
        <time>2021-05-22T09:56:54Z</time>
      </trkpt>
      <trkpt lat="48.7085" lon="2.19294">
        <ele>133.76</ele>
        <time>2021-05-22T09:57:01Z</time>
      </trkpt>
      <trkpt lat="48.70849" lon="2.19293">
        <ele>133.76</ele>
        <time>2021-05-22T09:57:02Z</time>
      </trkpt>
      <trkpt lat="48.70845" lon="2.19293">
        <ele>131.36</ele>
        <time>2021-05-22T09:57:06Z</time>
      </trkpt>
      <trkpt lat="48.70842" lon="2.19288">
        <ele>127.99</ele>
        <time>2021-05-22T09:57:12Z</time>
      </trkpt>
      <trkpt lat="48.70842" lon="2.19289">
        <ele>127.99</ele>
        <time>2021-05-22T09:57:13Z</time>
      </trkpt>
      <trkpt lat="48.70839" lon="2.1929">
        <ele>126.07</ele>
        <time>2021-05-22T09:57:18Z</time>
      </trkpt>
      <trkpt lat="48.70838" lon="2.19292">
        <ele>125.59</ele>
        <time>2021-05-22T09:57:19Z</time>
      </trkpt>
      <trkpt lat="48.70838" lon="2.19294">
        <ele>125.11</ele>
        <time>2021-05-22T09:57:20Z</time>
      </trkpt>
      <trkpt lat="48.70836" lon="2.19296">
        <ele>125.59</ele>
        <time>2021-05-22T09:57:21Z</time>
      </trkpt>
      <trkpt lat="48.70835" lon="2.19298">
        <ele>126.07</ele>
        <time>2021-05-22T09:57:22Z</time>
      </trkpt>
      <trkpt lat="48.70834" lon="2.19299">
        <ele>125.11</ele>
        <time>2021-05-22T09:57:23Z</time>
      </trkpt>
      <trkpt lat="48.70833" lon="2.193">
        <ele>125.59</ele>
        <time>2021-05-22T09:57:24Z</time>
      </trkpt>
      <trkpt lat="48.70826" lon="2.19309">
        <ele>124.63</ele>
        <time>2021-05-22T09:57:33Z</time>
      </trkpt>
      <trkpt lat="48.70826" lon="2.19312">
        <ele>124.63</ele>
        <time>2021-05-22T09:57:34Z</time>
      </trkpt>
      <trkpt lat="48.70826" lon="2.19316">
        <ele>124.15</ele>
        <time>2021-05-22T09:57:35Z</time>
      </trkpt>
      <trkpt lat="48.7083" lon="2.1936">
        <ele>123.19</ele>
        <time>2021-05-22T09:57:48Z</time>
      </trkpt>
      <trkpt lat="48.70821" lon="2.19372">
        <ele>122.71</ele>
        <time>2021-05-22T09:57:59Z</time>
      </trkpt>
      <trkpt lat="48.70811" lon="2.19368">
        <ele>120.3</ele>
        <time>2021-05-22T09:58:05Z</time>
      </trkpt>
      <trkpt lat="48.70804" lon="2.19365">
        <ele>118.38</ele>
        <time>2021-05-22T09:58:09Z</time>
      </trkpt>
      <trkpt lat="48.70801" lon="2.1936">
        <ele>114.53</ele>
        <time>2021-05-22T09:58:14Z</time>
      </trkpt>
      <trkpt lat="48.70799" lon="2.19358">
        <ele>113.57</ele>
        <time>2021-05-22T09:58:16Z</time>
      </trkpt>
      <trkpt lat="48.70797" lon="2.19357">
        <ele>113.09</ele>
        <time>2021-05-22T09:58:17Z</time>
      </trkpt>
      <trkpt lat="48.70785" lon="2.19352">
        <ele>109.73</ele>
        <time>2021-05-22T09:58:23Z</time>
      </trkpt>
      <trkpt lat="48.70766" lon="2.19343">
        <ele>105.4</ele>
        <time>2021-05-22T09:58:33Z</time>
      </trkpt>
      <trkpt lat="48.70764" lon="2.19344">
        <ele>104.92</ele>
        <time>2021-05-22T09:58:34Z</time>
      </trkpt>
      <trkpt lat="48.70756" lon="2.19342">
        <ele>103</ele>
        <time>2021-05-22T09:58:38Z</time>
      </trkpt>
      <trkpt lat="48.70743" lon="2.19337">
        <ele>101.56</ele>
        <time>2021-05-22T09:58:44Z</time>
      </trkpt>
      <trkpt lat="48.70739" lon="2.19333">
        <ele>100.11</ele>
        <time>2021-05-22T09:58:47Z</time>
      </trkpt>
      <trkpt lat="48.70735" lon="2.19326">
        <ele>96.75</ele>
        <time>2021-05-22T09:58:53Z</time>
      </trkpt>
      <trkpt lat="48.70732" lon="2.19314">
        <ele>95.31</ele>
        <time>2021-05-22T09:58:59Z</time>
      </trkpt>
      <trkpt lat="48.70732" lon="2.19312">
        <ele>95.31</ele>
        <time>2021-05-22T09:59:00Z</time>
      </trkpt>
      <trkpt lat="48.70743" lon="2.19297">
        <ele>97.23</ele>
        <time>2021-05-22T09:59:09Z</time>
      </trkpt>
      <trkpt lat="48.70746" lon="2.19292">
        <ele>97.23</ele>
        <time>2021-05-22T09:59:12Z</time>
      </trkpt>
      <trkpt lat="48.70751" lon="2.19286">
        <ele>98.19</ele>
        <time>2021-05-22T09:59:18Z</time>
      </trkpt>
      <trkpt lat="48.70753" lon="2.19286">
        <ele>98.67</ele>
        <time>2021-05-22T09:59:19Z</time>
      </trkpt>
      <trkpt lat="48.70755" lon="2.19286">
        <ele>98.19</ele>
        <time>2021-05-22T09:59:20Z</time>
      </trkpt>
      <trkpt lat="48.7076" lon="2.19282">
        <ele>99.15</ele>
        <time>2021-05-22T09:59:25Z</time>
      </trkpt>
      <trkpt lat="48.70779" lon="2.19269">
        <ele>101.08</ele>
        <time>2021-05-22T09:59:37Z</time>
      </trkpt>
      <trkpt lat="48.70783" lon="2.19266">
        <ele>101.56</ele>
        <time>2021-05-22T09:59:44Z</time>
      </trkpt>
      <trkpt lat="48.70786" lon="2.19266">
        <ele>102.52</ele>
        <time>2021-05-22T09:59:46Z</time>
      </trkpt>
      <trkpt lat="48.70787" lon="2.19265">
        <ele>102.52</ele>
        <time>2021-05-22T09:59:47Z</time>
      </trkpt>
      <trkpt lat="48.70806" lon="2.19245">
        <ele>104.44</ele>
        <time>2021-05-22T10:00:01Z</time>
      </trkpt>
      <trkpt lat="48.70811" lon="2.19238">
        <ele>105.4</ele>
        <time>2021-05-22T10:00:05Z</time>
      </trkpt>
      <trkpt lat="48.70816" lon="2.19231">
        <ele>106.84</ele>
        <time>2021-05-22T10:00:13Z</time>
      </trkpt>
      <trkpt lat="48.70828" lon="2.19229">
        <ele>109.25</ele>
        <time>2021-05-22T10:00:27Z</time>
      </trkpt>
      <trkpt lat="48.70844" lon="2.19218">
        <ele>112.61</ele>
        <time>2021-05-22T10:00:40Z</time>
      </trkpt>
      <trkpt lat="48.70845" lon="2.19214">
        <ele>113.09</ele>
        <time>2021-05-22T10:00:42Z</time>
      </trkpt>
      <trkpt lat="48.70855" lon="2.19192">
        <ele>115.98</ele>
        <time>2021-05-22T10:00:57Z</time>
      </trkpt>
      <trkpt lat="48.70868" lon="2.19161">
        <ele>119.34</ele>
        <time>2021-05-22T10:01:13Z</time>
      </trkpt>
      <trkpt lat="48.70876" lon="2.19145">
        <ele>122.71</ele>
        <time>2021-05-22T10:01:29Z</time>
      </trkpt>
      <trkpt lat="48.70884" lon="2.19135">
        <ele>124.63</ele>
        <time>2021-05-22T10:01:42Z</time>
      </trkpt>
      <trkpt lat="48.70886" lon="2.19134">
        <ele>125.11</ele>
        <time>2021-05-22T10:01:43Z</time>
      </trkpt>
      <trkpt lat="48.70899" lon="2.19124">
        <ele>128.47</ele>
        <time>2021-05-22T10:01:58Z</time>
      </trkpt>
      <trkpt lat="48.70907" lon="2.19119">
        <ele>130.88</ele>
        <time>2021-05-22T10:02:06Z</time>
      </trkpt>
      <trkpt lat="48.70913" lon="2.19116">
        <ele>132.32</ele>
        <time>2021-05-22T10:02:12Z</time>
      </trkpt>
      <trkpt lat="48.70917" lon="2.19113">
        <ele>132.8</ele>
        <time>2021-05-22T10:02:16Z</time>
      </trkpt>
      <trkpt lat="48.70932" lon="2.19101">
        <ele>136.16</ele>
        <time>2021-05-22T10:02:28Z</time>
      </trkpt>
      <trkpt lat="48.70933" lon="2.19101">
        <ele>136.16</ele>
        <time>2021-05-22T10:02:30Z</time>
      </trkpt>
      <trkpt lat="48.70936" lon="2.191">
        <ele>136.64</ele>
        <time>2021-05-22T10:02:32Z</time>
      </trkpt>
      <trkpt lat="48.70941" lon="2.19096">
        <ele>140.01</ele>
        <time>2021-05-22T10:02:43Z</time>
      </trkpt>
      <trkpt lat="48.70951" lon="2.19095">
        <ele>142.89</ele>
        <time>2021-05-22T10:02:55Z</time>
      </trkpt>
      <trkpt lat="48.70972" lon="2.19094">
        <ele>145.78</ele>
        <time>2021-05-22T10:03:07Z</time>
      </trkpt>
      <trkpt lat="48.70988" lon="2.19086">
        <ele>148.18</ele>
        <time>2021-05-22T10:03:18Z</time>
      </trkpt>
      <trkpt lat="48.70991" lon="2.19083">
        <ele>149.14</ele>
        <time>2021-05-22T10:03:22Z</time>
      </trkpt>
      <trkpt lat="48.71002" lon="2.19078">
        <ele>152.51</ele>
        <time>2021-05-22T10:03:36Z</time>
      </trkpt>
      <trkpt lat="48.71004" lon="2.19073">
        <ele>152.03</ele>
        <time>2021-05-22T10:03:39Z</time>
      </trkpt>
      <trkpt lat="48.71008" lon="2.19054">
        <ele>148.66</ele>
        <time>2021-05-22T10:03:46Z</time>
      </trkpt>
      <trkpt lat="48.71009" lon="2.1905">
        <ele>148.66</ele>
        <time>2021-05-22T10:03:47Z</time>
      </trkpt>
      <trkpt lat="48.71015" lon="2.19032">
        <ele>146.26</ele>
        <time>2021-05-22T10:03:52Z</time>
      </trkpt>
      <trkpt lat="48.71025" lon="2.19001">
        <ele>146.74</ele>
        <time>2021-05-22T10:04:05Z</time>
      </trkpt>
      <trkpt lat="48.71042" lon="2.18974">
        <ele>144.34</ele>
        <time>2021-05-22T10:04:21Z</time>
      </trkpt>
      <trkpt lat="48.71065" lon="2.18964">
        <ele>146.26</ele>
        <time>2021-05-22T10:04:34Z</time>
      </trkpt>
      <trkpt lat="48.7109" lon="2.18937">
        <ele>147.22</ele>
        <time>2021-05-22T10:04:51Z</time>
      </trkpt>
      <trkpt lat="48.71092" lon="2.18927">
        <ele>144.82</ele>
        <time>2021-05-22T10:04:55Z</time>
      </trkpt>
      <trkpt lat="48.71095" lon="2.1892">
        <ele>142.89</ele>
        <time>2021-05-22T10:04:58Z</time>
      </trkpt>
      <trkpt lat="48.71096" lon="2.18917">
        <ele>142.89</ele>
        <time>2021-05-22T10:04:59Z</time>
      </trkpt>
      <trkpt lat="48.71096" lon="2.18915">
        <ele>141.93</ele>
        <time>2021-05-22T10:05:00Z</time>
      </trkpt>
      <trkpt lat="48.71097" lon="2.18912">
        <ele>141.93</ele>
        <time>2021-05-22T10:05:01Z</time>
      </trkpt>
      <trkpt lat="48.71098" lon="2.18908">
        <ele>140.97</ele>
        <time>2021-05-22T10:05:02Z</time>
      </trkpt>
      <trkpt lat="48.71099" lon="2.18905">
        <ele>140.49</ele>
        <time>2021-05-22T10:05:03Z</time>
      </trkpt>
      <trkpt lat="48.71104" lon="2.18894">
        <ele>137.13</ele>
        <time>2021-05-22T10:05:09Z</time>
      </trkpt>
      <trkpt lat="48.71104" lon="2.18892">
        <ele>137.13</ele>
        <time>2021-05-22T10:05:10Z</time>
      </trkpt>
      <trkpt lat="48.71105" lon="2.18887">
        <ele>135.2</ele>
        <time>2021-05-22T10:05:13Z</time>
      </trkpt>
      <trkpt lat="48.71105" lon="2.18883">
        <ele>134.24</ele>
        <time>2021-05-22T10:05:15Z</time>
      </trkpt>
      <trkpt lat="48.71106" lon="2.18877">
        <ele>132.32</ele>
        <time>2021-05-22T10:05:18Z</time>
      </trkpt>
      <trkpt lat="48.71103" lon="2.18869">
        <ele>129.43</ele>
        <time>2021-05-22T10:05:25Z</time>
      </trkpt>
      <trkpt lat="48.71101" lon="2.18868">
        <ele>128.47</ele>
        <time>2021-05-22T10:05:26Z</time>
      </trkpt>
      <trkpt lat="48.71088" lon="2.18861">
        <ele>126.07</ele>
        <time>2021-05-22T10:05:32Z</time>
      </trkpt>
      <trkpt lat="48.71062" lon="2.18847">
        <ele>122.71</ele>
        <time>2021-05-22T10:05:42Z</time>
      </trkpt>
      <trkpt lat="48.71054" lon="2.18846">
        <ele>120.78</ele>
        <time>2021-05-22T10:05:46Z</time>
      </trkpt>
      <trkpt lat="48.71039" lon="2.18853">
        <ele>117.9</ele>
        <time>2021-05-22T10:05:54Z</time>
      </trkpt>
      <trkpt lat="48.71036" lon="2.18853">
        <ele>117.42</ele>
        <time>2021-05-22T10:05:55Z</time>
      </trkpt>
      <trkpt lat="48.71026" lon="2.18856">
        <ele>115.01</ele>
        <time>2021-05-22T10:06:00Z</time>
      </trkpt>
      <trkpt lat="48.71018" lon="2.18857">
        <ele>113.57</ele>
        <time>2021-05-22T10:06:03Z</time>
      </trkpt>
      <trkpt lat="48.71" lon="2.1886">
        <ele>110.69</ele>
        <time>2021-05-22T10:06:10Z</time>
      </trkpt>
      <trkpt lat="48.70982" lon="2.18864">
        <ele>107.81</ele>
        <time>2021-05-22T10:06:17Z</time>
      </trkpt>
      <trkpt lat="48.70971" lon="2.18866">
        <ele>106.36</ele>
        <time>2021-05-22T10:06:23Z</time>
      </trkpt>
      <trkpt lat="48.7097" lon="2.18859">
        <ele>104.92</ele>
        <time>2021-05-22T10:06:25Z</time>
      </trkpt>
      <trkpt lat="48.70968" lon="2.18852">
        <ele>103.96</ele>
        <time>2021-05-22T10:06:28Z</time>
      </trkpt>
      <trkpt lat="48.70964" lon="2.1885">
        <ele>103.48</ele>
        <time>2021-05-22T10:06:30Z</time>
      </trkpt>
      <trkpt lat="48.70963" lon="2.18848">
        <ele>103.48</ele>
        <time>2021-05-22T10:06:31Z</time>
      </trkpt>
      <trkpt lat="48.70962" lon="2.18846">
        <ele>103</ele>
        <time>2021-05-22T10:06:32Z</time>
      </trkpt>
      <trkpt lat="48.70962" lon="2.18843">
        <ele>103</ele>
        <time>2021-05-22T10:06:33Z</time>
      </trkpt>
      <trkpt lat="48.70962" lon="2.1884">
        <ele>103.48</ele>
        <time>2021-05-22T10:06:34Z</time>
      </trkpt>
      <trkpt lat="48.70963" lon="2.18836">
        <ele>103</ele>
        <time>2021-05-22T10:06:35Z</time>
      </trkpt>
      <trkpt lat="48.70965" lon="2.18832">
        <ele>102.52</ele>
        <time>2021-05-22T10:06:36Z</time>
      </trkpt>
      <trkpt lat="48.70967" lon="2.18828">
        <ele>102.04</ele>
        <time>2021-05-22T10:06:37Z</time>
      </trkpt>
      <trkpt lat="48.70971" lon="2.18816">
        <ele>101.08</ele>
        <time>2021-05-22T10:06:41Z</time>
      </trkpt>
      <trkpt lat="48.70972" lon="2.18814">
        <ele>101.08</ele>
        <time>2021-05-22T10:06:42Z</time>
      </trkpt>
      <trkpt lat="48.70973" lon="2.18812">
        <ele>101.08</ele>
        <time>2021-05-22T10:06:43Z</time>
      </trkpt>
      <trkpt lat="48.70975" lon="2.18802">
        <ele>101.08</ele>
        <time>2021-05-22T10:06:48Z</time>
      </trkpt>
      <trkpt lat="48.70953" lon="2.18778">
        <ele>99.63</ele>
        <time>2021-05-22T10:07:04Z</time>
      </trkpt>
      <trkpt lat="48.70934" lon="2.18779">
        <ele>97.71</ele>
        <time>2021-05-22T10:07:14Z</time>
      </trkpt>
      <trkpt lat="48.70931" lon="2.18779">
        <ele>97.23</ele>
        <time>2021-05-22T10:07:19Z</time>
      </trkpt>
      <trkpt lat="48.70929" lon="2.1878">
        <ele>96.75</ele>
        <time>2021-05-22T10:07:20Z</time>
      </trkpt>
      <trkpt lat="48.70927" lon="2.18781">
        <ele>96.27</ele>
        <time>2021-05-22T10:07:21Z</time>
      </trkpt>
      <trkpt lat="48.70924" lon="2.18781">
        <ele>96.27</ele>
        <time>2021-05-22T10:07:22Z</time>
      </trkpt>
      <trkpt lat="48.70921" lon="2.18783">
        <ele>96.27</ele>
        <time>2021-05-22T10:07:23Z</time>
      </trkpt>
      <trkpt lat="48.70908" lon="2.18772">
        <ele>95.79</ele>
        <time>2021-05-22T10:07:32Z</time>
      </trkpt>
      <trkpt lat="48.70914" lon="2.18762">
        <ele>94.83</ele>
        <time>2021-05-22T10:07:38Z</time>
      </trkpt>
      <trkpt lat="48.70913" lon="2.1876">
        <ele>94.83</ele>
        <time>2021-05-22T10:07:39Z</time>
      </trkpt>
      <trkpt lat="48.70912" lon="2.18755">
        <ele>95.31</ele>
        <time>2021-05-22T10:07:43Z</time>
      </trkpt>
      <trkpt lat="48.70912" lon="2.18753">
        <ele>95.31</ele>
        <time>2021-05-22T10:07:44Z</time>
      </trkpt>
      <trkpt lat="48.70912" lon="2.18751">
        <ele>95.31</ele>
        <time>2021-05-22T10:07:45Z</time>
      </trkpt>
      <trkpt lat="48.70916" lon="2.18721">
        <ele>98.19</ele>
        <time>2021-05-22T10:08:01Z</time>
      </trkpt>
      <trkpt lat="48.70916" lon="2.18718">
        <ele>99.15</ele>
        <time>2021-05-22T10:08:03Z</time>
      </trkpt>
      <trkpt lat="48.70916" lon="2.18715">
        <ele>99.15</ele>
        <time>2021-05-22T10:08:04Z</time>
      </trkpt>
      <trkpt lat="48.70917" lon="2.18713">
        <ele>99.15</ele>
        <time>2021-05-22T10:08:05Z</time>
      </trkpt>
      <trkpt lat="48.70917" lon="2.1871">
        <ele>98.67</ele>
        <time>2021-05-22T10:08:06Z</time>
      </trkpt>
      <trkpt lat="48.70921" lon="2.18692">
        <ele>101.56</ele>
        <time>2021-05-22T10:08:19Z</time>
      </trkpt>
      <trkpt lat="48.70915" lon="2.18683">
        <ele>103.48</ele>
        <time>2021-05-22T10:08:28Z</time>
      </trkpt>
      <trkpt lat="48.70915" lon="2.18683">
        <ele>103.48</ele>
        <time>2021-05-22T10:08:29Z</time>
      </trkpt>
      <trkpt lat="48.70915" lon="2.18682">
        <ele>103.96</ele>
        <time>2021-05-22T10:08:30Z</time>
      </trkpt>
      <trkpt lat="48.70911" lon="2.18671">
        <ele>105.4</ele>
        <time>2021-05-22T10:08:37Z</time>
      </trkpt>
      <trkpt lat="48.70908" lon="2.18657">
        <ele>107.81</ele>
        <time>2021-05-22T10:08:45Z</time>
      </trkpt>
      <trkpt lat="48.70906" lon="2.18644">
        <ele>108.29</ele>
        <time>2021-05-22T10:08:50Z</time>
      </trkpt>
      <trkpt lat="48.70904" lon="2.18641">
        <ele>108.29</ele>
        <time>2021-05-22T10:08:52Z</time>
      </trkpt>
      <trkpt lat="48.70898" lon="2.18617">
        <ele>110.69</ele>
        <time>2021-05-22T10:09:03Z</time>
      </trkpt>
      <trkpt lat="48.70897" lon="2.18614">
        <ele>111.17</ele>
        <time>2021-05-22T10:09:04Z</time>
      </trkpt>
      <trkpt lat="48.70897" lon="2.18611">
        <ele>111.65</ele>
        <time>2021-05-22T10:09:05Z</time>
      </trkpt>
      <trkpt lat="48.70907" lon="2.18597">
        <ele>115.01</ele>
        <time>2021-05-22T10:09:18Z</time>
      </trkpt>
      <trkpt lat="48.70915" lon="2.18578">
        <ele>117.42</ele>
        <time>2021-05-22T10:09:29Z</time>
      </trkpt>
      <trkpt lat="48.70927" lon="2.18562">
        <ele>120.3</ele>
        <time>2021-05-22T10:09:45Z</time>
      </trkpt>
      <trkpt lat="48.70931" lon="2.1855">
        <ele>123.67</ele>
        <time>2021-05-22T10:09:59Z</time>
      </trkpt>
      <trkpt lat="48.7094" lon="2.18531">
        <ele>126.07</ele>
        <time>2021-05-22T10:10:13Z</time>
      </trkpt>
      <trkpt lat="48.70944" lon="2.1851">
        <ele>128.47</ele>
        <time>2021-05-22T10:10:27Z</time>
      </trkpt>
      <trkpt lat="48.70943" lon="2.18504">
        <ele>129.92</ele>
        <time>2021-05-22T10:10:30Z</time>
      </trkpt>
      <trkpt lat="48.70945" lon="2.18473">
        <ele>132.8</ele>
        <time>2021-05-22T10:10:41Z</time>
      </trkpt>
      <trkpt lat="48.70943" lon="2.18467">
        <ele>132.8</ele>
        <time>2021-05-22T10:10:44Z</time>
      </trkpt>
      <trkpt lat="48.70943" lon="2.18463">
        <ele>134.24</ele>
        <time>2021-05-22T10:10:46Z</time>
      </trkpt>
      <trkpt lat="48.70942" lon="2.18454">
        <ele>136.64</ele>
        <time>2021-05-22T10:10:58Z</time>
      </trkpt>
      <trkpt lat="48.70938" lon="2.18435">
        <ele>138.57</ele>
        <time>2021-05-22T10:11:09Z</time>
      </trkpt>
      <trkpt lat="48.70937" lon="2.18404">
        <ele>141.45</ele>
        <time>2021-05-22T10:11:21Z</time>
      </trkpt>
      <trkpt lat="48.70936" lon="2.18385">
        <ele>143.37</ele>
        <time>2021-05-22T10:11:32Z</time>
      </trkpt>
      <trkpt lat="48.70933" lon="2.18377">
        <ele>144.34</ele>
        <time>2021-05-22T10:11:35Z</time>
      </trkpt>
      <trkpt lat="48.70929" lon="2.18361">
        <ele>146.74</ele>
        <time>2021-05-22T10:11:47Z</time>
      </trkpt>
      <trkpt lat="48.70932" lon="2.18348">
        <ele>148.18</ele>
        <time>2021-05-22T10:11:59Z</time>
      </trkpt>
      <trkpt lat="48.70932" lon="2.18335">
        <ele>149.14</ele>
        <time>2021-05-22T10:12:07Z</time>
      </trkpt>
      <trkpt lat="48.7093" lon="2.18318">
        <ele>149.14</ele>
        <time>2021-05-22T10:12:14Z</time>
      </trkpt>
      <trkpt lat="48.70929" lon="2.18315">
        <ele>149.62</ele>
        <time>2021-05-22T10:12:15Z</time>
      </trkpt>
      <trkpt lat="48.70928" lon="2.18313">
        <ele>149.62</ele>
        <time>2021-05-22T10:12:16Z</time>
      </trkpt>
      <trkpt lat="48.70919" lon="2.18285">
        <ele>150.1</ele>
        <time>2021-05-22T10:12:27Z</time>
      </trkpt>
      <trkpt lat="48.70922" lon="2.18267">
        <ele>151.06</ele>
        <time>2021-05-22T10:12:37Z</time>
      </trkpt>
      <trkpt lat="48.7092" lon="2.18242">
        <ele>151.54</ele>
        <time>2021-05-22T10:12:47Z</time>
      </trkpt>
      <trkpt lat="48.70917" lon="2.18227">
        <ele>151.54</ele>
        <time>2021-05-22T10:12:53Z</time>
      </trkpt>
      <trkpt lat="48.70917" lon="2.18225">
        <ele>152.03</ele>
        <time>2021-05-22T10:12:54Z</time>
      </trkpt>
      <trkpt lat="48.70915" lon="2.18206">
        <ele>153.47</ele>
        <time>2021-05-22T10:13:08Z</time>
      </trkpt>
      <trkpt lat="48.70916" lon="2.18203">
        <ele>152.99</ele>
        <time>2021-05-22T10:13:09Z</time>
      </trkpt>
      <trkpt lat="48.70915" lon="2.182">
        <ele>152.99</ele>
        <time>2021-05-22T10:13:10Z</time>
      </trkpt>
      <trkpt lat="48.70915" lon="2.18197">
        <ele>152.99</ele>
        <time>2021-05-22T10:13:11Z</time>
      </trkpt>
      <trkpt lat="48.70914" lon="2.18193">
        <ele>152.51</ele>
        <time>2021-05-22T10:13:12Z</time>
      </trkpt>
      <trkpt lat="48.70915" lon="2.18163">
        <ele>154.43</ele>
        <time>2021-05-22T10:13:25Z</time>
      </trkpt>
      <trkpt lat="48.70916" lon="2.18159">
        <ele>153.47</ele>
        <time>2021-05-22T10:13:27Z</time>
      </trkpt>
      <trkpt lat="48.70917" lon="2.18157">
        <ele>153.95</ele>
        <time>2021-05-22T10:13:28Z</time>
      </trkpt>
      <trkpt lat="48.7092" lon="2.18131">
        <ele>154.91</ele>
        <time>2021-05-22T10:13:39Z</time>
      </trkpt>
      <trkpt lat="48.70923" lon="2.18126">
        <ele>154.91</ele>
        <time>2021-05-22T10:13:44Z</time>
      </trkpt>
      <trkpt lat="48.70924" lon="2.18124">
        <ele>154.91</ele>
        <time>2021-05-22T10:13:45Z</time>
      </trkpt>
      <trkpt lat="48.70925" lon="2.18123">
        <ele>155.39</ele>
        <time>2021-05-22T10:13:46Z</time>
      </trkpt>
      <trkpt lat="48.70931" lon="2.18104">
        <ele>155.87</ele>
        <time>2021-05-22T10:13:55Z</time>
      </trkpt>
      <trkpt lat="48.70932" lon="2.18095">
        <ele>155.87</ele>
        <time>2021-05-22T10:13:59Z</time>
      </trkpt>
      <trkpt lat="48.70932" lon="2.18093">
        <ele>155.87</ele>
        <time>2021-05-22T10:14:00Z</time>
      </trkpt>
      <trkpt lat="48.70932" lon="2.18091">
        <ele>155.87</ele>
        <time>2021-05-22T10:14:01Z</time>
      </trkpt>
      <trkpt lat="48.7094" lon="2.18064">
        <ele>155.87</ele>
        <time>2021-05-22T10:14:13Z</time>
      </trkpt>
      <trkpt lat="48.70945" lon="2.1804">
        <ele>156.35</ele>
        <time>2021-05-22T10:14:25Z</time>
      </trkpt>
      <trkpt lat="48.70945" lon="2.18032">
        <ele>156.35</ele>
        <time>2021-05-22T10:14:30Z</time>
      </trkpt>
      <trkpt lat="48.70944" lon="2.18031">
        <ele>156.35</ele>
        <time>2021-05-22T10:14:31Z</time>
      </trkpt>
      <trkpt lat="48.70926" lon="2.1802">
        <ele>155.39</ele>
        <time>2021-05-22T10:14:41Z</time>
      </trkpt>
      <trkpt lat="48.70924" lon="2.1802">
        <ele>156.35</ele>
        <time>2021-05-22T10:14:42Z</time>
      </trkpt>
      <trkpt lat="48.70922" lon="2.18019">
        <ele>155.87</ele>
        <time>2021-05-22T10:14:43Z</time>
      </trkpt>
      <trkpt lat="48.7092" lon="2.18018">
        <ele>155.87</ele>
        <time>2021-05-22T10:14:44Z</time>
      </trkpt>
      <trkpt lat="48.70919" lon="2.18018">
        <ele>155.39</ele>
        <time>2021-05-22T10:14:45Z</time>
      </trkpt>
      <trkpt lat="48.70918" lon="2.18017">
        <ele>155.87</ele>
        <time>2021-05-22T10:14:46Z</time>
      </trkpt>
      <trkpt lat="48.70916" lon="2.18017">
        <ele>155.39</ele>
        <time>2021-05-22T10:14:47Z</time>
      </trkpt>
      <trkpt lat="48.70903" lon="2.18009">
        <ele>155.87</ele>
        <time>2021-05-22T10:15:00Z</time>
      </trkpt>
      <trkpt lat="48.70901" lon="2.18007">
        <ele>156.35</ele>
        <time>2021-05-22T10:15:02Z</time>
      </trkpt>
      <trkpt lat="48.709" lon="2.18007">
        <ele>156.35</ele>
        <time>2021-05-22T10:15:03Z</time>
      </trkpt>
      <trkpt lat="48.7087" lon="2.17998">
        <ele>155.87</ele>
        <time>2021-05-22T10:15:19Z</time>
      </trkpt>
      <trkpt lat="48.70855" lon="2.17991">
        <ele>154.91</ele>
        <time>2021-05-22T10:15:30Z</time>
      </trkpt>
      <trkpt lat="48.70847" lon="2.17985">
        <ele>154.91</ele>
        <time>2021-05-22T10:15:43Z</time>
      </trkpt>
      <trkpt lat="48.70818" lon="2.17978">
        <ele>154.43</ele>
        <time>2021-05-22T10:15:58Z</time>
      </trkpt>
      <trkpt lat="48.70808" lon="2.17977">
        <ele>153.95</ele>
        <time>2021-05-22T10:16:04Z</time>
      </trkpt>
      <trkpt lat="48.70801" lon="2.17976">
        <ele>153.95</ele>
        <time>2021-05-22T10:16:12Z</time>
      </trkpt>
      <trkpt lat="48.708" lon="2.17977">
        <ele>153.95</ele>
        <time>2021-05-22T10:16:13Z</time>
      </trkpt>
      <trkpt lat="48.70785" lon="2.17996">
        <ele>153.95</ele>
        <time>2021-05-22T10:16:24Z</time>
      </trkpt>
      <trkpt lat="48.70776" lon="2.18011">
        <ele>152.99</ele>
        <time>2021-05-22T10:16:35Z</time>
      </trkpt>
      <trkpt lat="48.70776" lon="2.18014">
        <ele>152.51</ele>
        <time>2021-05-22T10:16:36Z</time>
      </trkpt>
      <trkpt lat="48.70776" lon="2.18018">
        <ele>152.51</ele>
        <time>2021-05-22T10:16:37Z</time>
      </trkpt>
      <trkpt lat="48.70776" lon="2.1802">
        <ele>151.54</ele>
        <time>2021-05-22T10:16:38Z</time>
      </trkpt>
      <trkpt lat="48.70777" lon="2.18023">
        <ele>151.54</ele>
        <time>2021-05-22T10:16:39Z</time>
      </trkpt>
      <trkpt lat="48.70778" lon="2.18048">
        <ele>148.66</ele>
        <time>2021-05-22T10:16:48Z</time>
      </trkpt>
      <trkpt lat="48.70778" lon="2.18054">
        <ele>147.7</ele>
        <time>2021-05-22T10:16:50Z</time>
      </trkpt>
      <trkpt lat="48.70777" lon="2.1808">
        <ele>144.34</ele>
        <time>2021-05-22T10:17:00Z</time>
      </trkpt>
      <trkpt lat="48.70774" lon="2.18102">
        <ele>141.45</ele>
        <time>2021-05-22T10:17:08Z</time>
      </trkpt>
      <trkpt lat="48.70773" lon="2.18105">
        <ele>140.97</ele>
        <time>2021-05-22T10:17:09Z</time>
      </trkpt>
      <trkpt lat="48.70774" lon="2.18139">
        <ele>137.61</ele>
        <time>2021-05-22T10:17:20Z</time>
      </trkpt>
      <trkpt lat="48.70771" lon="2.18156">
        <ele>136.16</ele>
        <time>2021-05-22T10:17:25Z</time>
      </trkpt>
      <trkpt lat="48.70772" lon="2.18182">
        <ele>133.28</ele>
        <time>2021-05-22T10:17:33Z</time>
      </trkpt>
      <trkpt lat="48.70774" lon="2.18217">
        <ele>129.92</ele>
        <time>2021-05-22T10:17:43Z</time>
      </trkpt>
      <trkpt lat="48.70775" lon="2.18225">
        <ele>129.43</ele>
        <time>2021-05-22T10:17:45Z</time>
      </trkpt>
      <trkpt lat="48.70776" lon="2.18271">
        <ele>127.03</ele>
        <time>2021-05-22T10:17:57Z</time>
      </trkpt>
      <trkpt lat="48.70774" lon="2.18301">
        <ele>123.67</ele>
        <time>2021-05-22T10:18:06Z</time>
      </trkpt>
      <trkpt lat="48.70769" lon="2.18327">
        <ele>120.78</ele>
        <time>2021-05-22T10:18:15Z</time>
      </trkpt>
      <trkpt lat="48.70761" lon="2.18377">
        <ele>119.34</ele>
        <time>2021-05-22T10:18:27Z</time>
      </trkpt>
      <trkpt lat="48.70761" lon="2.18427">
        <ele>116.46</ele>
        <time>2021-05-22T10:18:40Z</time>
      </trkpt>
      <trkpt lat="48.70766" lon="2.18468">
        <ele>114.05</ele>
        <time>2021-05-22T10:18:50Z</time>
      </trkpt>
      <trkpt lat="48.70767" lon="2.18521">
        <ele>112.13</ele>
        <time>2021-05-22T10:19:03Z</time>
      </trkpt>
      <trkpt lat="48.70768" lon="2.18546">
        <ele>111.65</ele>
        <time>2021-05-22T10:19:13Z</time>
      </trkpt>
      <trkpt lat="48.70764" lon="2.18547">
        <ele>112.61</ele>
        <time>2021-05-22T10:19:16Z</time>
      </trkpt>
      <trkpt lat="48.70763" lon="2.18547">
        <ele>112.13</ele>
        <time>2021-05-22T10:19:17Z</time>
      </trkpt>
      <trkpt lat="48.70762" lon="2.18547">
        <ele>112.13</ele>
        <time>2021-05-22T10:19:18Z</time>
      </trkpt>
      <trkpt lat="48.70761" lon="2.18547">
        <ele>112.61</ele>
        <time>2021-05-22T10:19:19Z</time>
      </trkpt>
      <trkpt lat="48.70759" lon="2.18547">
        <ele>113.09</ele>
        <time>2021-05-22T10:19:20Z</time>
      </trkpt>
      <trkpt lat="48.70757" lon="2.18546">
        <ele>113.09</ele>
        <time>2021-05-22T10:19:21Z</time>
      </trkpt>
      <trkpt lat="48.70755" lon="2.18546">
        <ele>113.09</ele>
        <time>2021-05-22T10:19:22Z</time>
      </trkpt>
      <trkpt lat="48.70754" lon="2.18546">
        <ele>114.05</ele>
        <time>2021-05-22T10:19:23Z</time>
      </trkpt>
      <trkpt lat="48.70753" lon="2.18546">
        <ele>114.53</ele>
        <time>2021-05-22T10:19:24Z</time>
      </trkpt>
      <trkpt lat="48.70748" lon="2.18546">
        <ele>116.46</ele>
        <time>2021-05-22T10:19:33Z</time>
      </trkpt>
      <trkpt lat="48.70744" lon="2.18544">
        <ele>116.94</ele>
        <time>2021-05-22T10:19:37Z</time>
      </trkpt>
      <trkpt lat="48.70735" lon="2.1854">
        <ele>119.34</ele>
        <time>2021-05-22T10:19:47Z</time>
      </trkpt>
      <trkpt lat="48.70723" lon="2.18539">
        <ele>121.74</ele>
        <time>2021-05-22T10:19:58Z</time>
      </trkpt>
      <trkpt lat="48.70716" lon="2.18533">
        <ele>124.15</ele>
        <time>2021-05-22T10:20:12Z</time>
      </trkpt>
      <trkpt lat="48.70699" lon="2.18537">
        <ele>125.59</ele>
        <time>2021-05-22T10:20:22Z</time>
      </trkpt>
      <trkpt lat="48.70695" lon="2.18538">
        <ele>125.11</ele>
        <time>2021-05-22T10:20:23Z</time>
      </trkpt>
      <trkpt lat="48.70692" lon="2.18539">
        <ele>125.59</ele>
        <time>2021-05-22T10:20:24Z</time>
      </trkpt>
      <trkpt lat="48.70686" lon="2.18539">
        <ele>126.55</ele>
        <time>2021-05-22T10:20:28Z</time>
      </trkpt>
      <trkpt lat="48.70672" lon="2.18549">
        <ele>126.55</ele>
        <time>2021-05-22T10:20:40Z</time>
      </trkpt>
      <trkpt lat="48.7067" lon="2.1855">
        <ele>126.55</ele>
        <time>2021-05-22T10:20:41Z</time>
      </trkpt>
      <trkpt lat="48.70649" lon="2.18557">
        <ele>125.11</ele>
        <time>2021-05-22T10:20:56Z</time>
      </trkpt>
      <trkpt lat="48.70649" lon="2.1856">
        <ele>124.63</ele>
        <time>2021-05-22T10:21:09Z</time>
      </trkpt>
      <trkpt lat="48.70648" lon="2.18561">
        <ele>124.63</ele>
        <time>2021-05-22T10:21:49Z</time>
      </trkpt>
      <trkpt lat="48.70647" lon="2.18558">
        <ele>125.59</ele>
        <time>2021-05-22T10:22:05Z</time>
      </trkpt>
      <trkpt lat="48.70644" lon="2.18558">
        <ele>126.07</ele>
        <time>2021-05-22T10:22:07Z</time>
      </trkpt>
      <trkpt lat="48.70629" lon="2.18563">
        <ele>124.15</ele>
        <time>2021-05-22T10:22:22Z</time>
      </trkpt>
      <trkpt lat="48.70626" lon="2.18564">
        <ele>123.19</ele>
        <time>2021-05-22T10:22:25Z</time>
      </trkpt>
      <trkpt lat="48.70612" lon="2.18566">
        <ele>122.22</ele>
        <time>2021-05-22T10:22:35Z</time>
      </trkpt>
      <trkpt lat="48.70609" lon="2.18566">
        <ele>121.26</ele>
        <time>2021-05-22T10:22:39Z</time>
      </trkpt>
      <trkpt lat="48.70606" lon="2.18565">
        <ele>120.78</ele>
        <time>2021-05-22T10:22:41Z</time>
      </trkpt>
      <trkpt lat="48.70604" lon="2.18565">
        <ele>120.3</ele>
        <time>2021-05-22T10:22:42Z</time>
      </trkpt>
      <trkpt lat="48.70601" lon="2.18564">
        <ele>119.82</ele>
        <time>2021-05-22T10:22:43Z</time>
      </trkpt>
      <trkpt lat="48.70597" lon="2.18563">
        <ele>119.34</ele>
        <time>2021-05-22T10:22:44Z</time>
      </trkpt>
      <trkpt lat="48.70594" lon="2.18562">
        <ele>119.34</ele>
        <time>2021-05-22T10:22:45Z</time>
      </trkpt>
      <trkpt lat="48.70592" lon="2.18562">
        <ele>119.34</ele>
        <time>2021-05-22T10:22:46Z</time>
      </trkpt>
      <trkpt lat="48.7059" lon="2.18564">
        <ele>119.34</ele>
        <time>2021-05-22T10:22:47Z</time>
      </trkpt>
      <trkpt lat="48.70584" lon="2.18567">
        <ele>117.9</ele>
        <time>2021-05-22T10:22:51Z</time>
      </trkpt>
      <trkpt lat="48.70583" lon="2.18568">
        <ele>117.9</ele>
        <time>2021-05-22T10:22:52Z</time>
      </trkpt>
      <trkpt lat="48.70583" lon="2.1857">
        <ele>116.94</ele>
        <time>2021-05-22T10:22:53Z</time>
      </trkpt>
      <trkpt lat="48.70582" lon="2.18572">
        <ele>116.46</ele>
        <time>2021-05-22T10:22:54Z</time>
      </trkpt>
      <trkpt lat="48.70582" lon="2.18575">
        <ele>115.5</ele>
        <time>2021-05-22T10:22:55Z</time>
      </trkpt>
      <trkpt lat="48.70586" lon="2.18591">
        <ele>114.05</ele>
        <time>2021-05-22T10:23:00Z</time>
      </trkpt>
      <trkpt lat="48.70587" lon="2.18594">
        <ele>113.09</ele>
        <time>2021-05-22T10:23:01Z</time>
      </trkpt>
      <trkpt lat="48.70588" lon="2.18598">
        <ele>113.09</ele>
        <time>2021-05-22T10:23:02Z</time>
      </trkpt>
      <trkpt lat="48.7059" lon="2.18602">
        <ele>112.13</ele>
        <time>2021-05-22T10:23:03Z</time>
      </trkpt>
      <trkpt lat="48.70592" lon="2.18606">
        <ele>112.13</ele>
        <time>2021-05-22T10:23:04Z</time>
      </trkpt>
      <trkpt lat="48.70599" lon="2.18635">
        <ele>109.25</ele>
        <time>2021-05-22T10:23:12Z</time>
      </trkpt>
      <trkpt lat="48.70599" lon="2.18639">
        <ele>108.77</ele>
        <time>2021-05-22T10:23:13Z</time>
      </trkpt>
      <trkpt lat="48.70604" lon="2.18671">
        <ele>105.4</ele>
        <time>2021-05-22T10:23:20Z</time>
      </trkpt>
      <trkpt lat="48.70605" lon="2.18712">
        <ele>102.52</ele>
        <time>2021-05-22T10:23:29Z</time>
      </trkpt>
      <trkpt lat="48.706" lon="2.18735">
        <ele>99.63</ele>
        <time>2021-05-22T10:23:38Z</time>
      </trkpt>
      <trkpt lat="48.70597" lon="2.18735">
        <ele>100.11</ele>
        <time>2021-05-22T10:23:41Z</time>
      </trkpt>
      <trkpt lat="48.70582" lon="2.1873">
        <ele>104.92</ele>
        <time>2021-05-22T10:23:54Z</time>
      </trkpt>
      <trkpt lat="48.7056" lon="2.18726">
        <ele>106.36</ele>
        <time>2021-05-22T10:24:11Z</time>
      </trkpt>
      <trkpt lat="48.70548" lon="2.18726">
        <ele>108.77</ele>
        <time>2021-05-22T10:24:24Z</time>
      </trkpt>
      <trkpt lat="48.70527" lon="2.18722">
        <ele>111.17</ele>
        <time>2021-05-22T10:24:36Z</time>
      </trkpt>
      <trkpt lat="48.70523" lon="2.1872">
        <ele>111.65</ele>
        <time>2021-05-22T10:24:39Z</time>
      </trkpt>
      <trkpt lat="48.70505" lon="2.18704">
        <ele>112.61</ele>
        <time>2021-05-22T10:24:53Z</time>
      </trkpt>
      <trkpt lat="48.70481" lon="2.18702">
        <ele>112.61</ele>
        <time>2021-05-22T10:25:10Z</time>
      </trkpt>
      <trkpt lat="48.70466" lon="2.18702">
        <ele>111.17</ele>
        <time>2021-05-22T10:25:20Z</time>
      </trkpt>
      <trkpt lat="48.70453" lon="2.18704">
        <ele>108.77</ele>
        <time>2021-05-22T10:25:29Z</time>
      </trkpt>
      <trkpt lat="48.70449" lon="2.18704">
        <ele>108.29</ele>
        <time>2021-05-22T10:25:33Z</time>
      </trkpt>
      <trkpt lat="48.70447" lon="2.18705">
        <ele>107.81</ele>
        <time>2021-05-22T10:25:34Z</time>
      </trkpt>
      <trkpt lat="48.70445" lon="2.18705">
        <ele>107.32</ele>
        <time>2021-05-22T10:25:35Z</time>
      </trkpt>
      <trkpt lat="48.70443" lon="2.18705">
        <ele>106.36</ele>
        <time>2021-05-22T10:25:36Z</time>
      </trkpt>
      <trkpt lat="48.7044" lon="2.18706">
        <ele>105.88</ele>
        <time>2021-05-22T10:25:37Z</time>
      </trkpt>
      <trkpt lat="48.70437" lon="2.18706">
        <ele>105.88</ele>
        <time>2021-05-22T10:25:38Z</time>
      </trkpt>
      <trkpt lat="48.70413" lon="2.18711">
        <ele>102.04</ele>
        <time>2021-05-22T10:25:47Z</time>
      </trkpt>
      <trkpt lat="48.70388" lon="2.18714">
        <ele>98.19</ele>
        <time>2021-05-22T10:25:55Z</time>
      </trkpt>
      <trkpt lat="48.70376" lon="2.18709">
        <ele>97.23</ele>
        <time>2021-05-22T10:25:59Z</time>
      </trkpt>
      <trkpt lat="48.70365" lon="2.18694">
        <ele>93.39</ele>
        <time>2021-05-22T10:26:06Z</time>
      </trkpt>
      <trkpt lat="48.70356" lon="2.18682">
        <ele>91.94</ele>
        <time>2021-05-22T10:26:10Z</time>
      </trkpt>
      <trkpt lat="48.70355" lon="2.18679">
        <ele>91.46</ele>
        <time>2021-05-22T10:26:11Z</time>
      </trkpt>
      <trkpt lat="48.70342" lon="2.18646">
        <ele>90.98</ele>
        <time>2021-05-22T10:26:21Z</time>
      </trkpt>
      <trkpt lat="48.70321" lon="2.18626">
        <ele>88.1</ele>
        <time>2021-05-22T10:26:31Z</time>
      </trkpt>
      <trkpt lat="48.70295" lon="2.18608">
        <ele>86.18</ele>
        <time>2021-05-22T10:26:43Z</time>
      </trkpt>
      <trkpt lat="48.70266" lon="2.18607">
        <ele>83.77</ele>
        <time>2021-05-22T10:26:53Z</time>
      </trkpt>
      <trkpt lat="48.70239" lon="2.18622">
        <ele>82.81</ele>
        <time>2021-05-22T10:27:05Z</time>
      </trkpt>
      <trkpt lat="48.70215" lon="2.1863">
        <ele>80.89</ele>
        <time>2021-05-22T10:27:17Z</time>
      </trkpt>
      <trkpt lat="48.70215" lon="2.18626">
        <ele>80.89</ele>
        <time>2021-05-22T10:27:19Z</time>
      </trkpt>
      <trkpt lat="48.70212" lon="2.18623">
        <ele>80.89</ele>
        <time>2021-05-22T10:27:23Z</time>
      </trkpt>
      <trkpt lat="48.70211" lon="2.18621">
        <ele>80.89</ele>
        <time>2021-05-22T10:27:24Z</time>
      </trkpt>
      <trkpt lat="48.70206" lon="2.18614">
        <ele>78.97</ele>
        <time>2021-05-22T10:27:27Z</time>
      </trkpt>
      <trkpt lat="48.70187" lon="2.18566">
        <ele>77.52</ele>
        <time>2021-05-22T10:27:39Z</time>
      </trkpt>
      <trkpt lat="48.70173" lon="2.1853">
        <ele>76.56</ele>
        <time>2021-05-22T10:27:49Z</time>
      </trkpt>
      <trkpt lat="48.70159" lon="2.18492">
        <ele>74.16</ele>
        <time>2021-05-22T10:28:00Z</time>
      </trkpt>
      <trkpt lat="48.70146" lon="2.18455">
        <ele>73.2</ele>
        <time>2021-05-22T10:28:11Z</time>
      </trkpt>
      <trkpt lat="48.70137" lon="2.18416">
        <ele>73.2</ele>
        <time>2021-05-22T10:28:23Z</time>
      </trkpt>
      <trkpt lat="48.70138" lon="2.18413">
        <ele>73.68</ele>
        <time>2021-05-22T10:28:24Z</time>
      </trkpt>
      <trkpt lat="48.70143" lon="2.18394">
        <ele>76.56</ele>
        <time>2021-05-22T10:28:37Z</time>
      </trkpt>
      <trkpt lat="48.70145" lon="2.18382">
        <ele>75.6</ele>
        <time>2021-05-22T10:28:44Z</time>
      </trkpt>
      <trkpt lat="48.70145" lon="2.18379">
        <ele>75.12</ele>
        <time>2021-05-22T10:28:45Z</time>
      </trkpt>
      <trkpt lat="48.70145" lon="2.18346">
        <ele>77.52</ele>
        <time>2021-05-22T10:28:57Z</time>
      </trkpt>
      <trkpt lat="48.7015" lon="2.18325">
        <ele>79.45</ele>
        <time>2021-05-22T10:29:10Z</time>
      </trkpt>
      <trkpt lat="48.7015" lon="2.18322">
        <ele>79.93</ele>
        <time>2021-05-22T10:29:12Z</time>
      </trkpt>
      <trkpt lat="48.7015" lon="2.18317">
        <ele>79.93</ele>
        <time>2021-05-22T10:29:15Z</time>
      </trkpt>
      <trkpt lat="48.70149" lon="2.18295">
        <ele>80.41</ele>
        <time>2021-05-22T10:29:26Z</time>
      </trkpt>
      <trkpt lat="48.70149" lon="2.18293">
        <ele>80.89</ele>
        <time>2021-05-22T10:29:27Z</time>
      </trkpt>
      <trkpt lat="48.70148" lon="2.18291">
        <ele>80.89</ele>
        <time>2021-05-22T10:29:28Z</time>
      </trkpt>
      <trkpt lat="48.70146" lon="2.18289">
        <ele>80.41</ele>
        <time>2021-05-22T10:29:29Z</time>
      </trkpt>
      <trkpt lat="48.70124" lon="2.18266">
        <ele>78</ele>
        <time>2021-05-22T10:29:39Z</time>
      </trkpt>
      <trkpt lat="48.70115" lon="2.18236">
        <ele>78</ele>
        <time>2021-05-22T10:29:48Z</time>
      </trkpt>
      <trkpt lat="48.70116" lon="2.18236">
        <ele>78.97</ele>
        <time>2021-05-22T10:29:54Z</time>
      </trkpt>
      <trkpt lat="48.70115" lon="2.18232">
        <ele>79.93</ele>
        <time>2021-05-22T10:29:56Z</time>
      </trkpt>
      <trkpt lat="48.70113" lon="2.18224">
        <ele>77.52</ele>
        <time>2021-05-22T10:30:00Z</time>
      </trkpt>
      <trkpt lat="48.70104" lon="2.18196">
        <ele>76.08</ele>
        <time>2021-05-22T10:30:12Z</time>
      </trkpt>
      <trkpt lat="48.70101" lon="2.18185">
        <ele>75.12</ele>
        <time>2021-05-22T10:30:20Z</time>
      </trkpt>
      <trkpt lat="48.70093" lon="2.18156">
        <ele>73.68</ele>
        <time>2021-05-22T10:30:36Z</time>
      </trkpt>
      <trkpt lat="48.70087" lon="2.18151">
        <ele>72.72</ele>
        <time>2021-05-22T10:30:49Z</time>
      </trkpt>
      <trkpt lat="48.70081" lon="2.1814">
        <ele>70.79</ele>
        <time>2021-05-22T10:31:03Z</time>
      </trkpt>
      <trkpt lat="48.70062" lon="2.18127">
        <ele>68.39</ele>
        <time>2021-05-22T10:31:15Z</time>
      </trkpt>
      <trkpt lat="48.70046" lon="2.18113">
        <ele>65.99</ele>
        <time>2021-05-22T10:31:23Z</time>
      </trkpt>
      <trkpt lat="48.70045" lon="2.18111">
        <ele>65.51</ele>
        <time>2021-05-22T10:31:24Z</time>
      </trkpt>
      <trkpt lat="48.70035" lon="2.18102">
        <ele>62.14</ele>
        <time>2021-05-22T10:31:30Z</time>
      </trkpt>
      <trkpt lat="48.70027" lon="2.18097">
        <ele>63.1</ele>
        <time>2021-05-22T10:31:33Z</time>
      </trkpt>
      <trkpt lat="48.70024" lon="2.18096">
        <ele>62.14</ele>
        <time>2021-05-22T10:31:34Z</time>
      </trkpt>
      <trkpt lat="48.70022" lon="2.18096">
        <ele>62.14</ele>
        <time>2021-05-22T10:31:35Z</time>
      </trkpt>
      <trkpt lat="48.7002" lon="2.18096">
        <ele>62.62</ele>
        <time>2021-05-22T10:31:36Z</time>
      </trkpt>
      <trkpt lat="48.70017" lon="2.18095">
        <ele>62.62</ele>
        <time>2021-05-22T10:31:37Z</time>
      </trkpt>
      <trkpt lat="48.70014" lon="2.18094">
        <ele>62.62</ele>
        <time>2021-05-22T10:31:38Z</time>
      </trkpt>
      <trkpt lat="48.70012" lon="2.18094">
        <ele>62.62</ele>
        <time>2021-05-22T10:31:39Z</time>
      </trkpt>
      <trkpt lat="48.7001" lon="2.18093">
        <ele>63.1</ele>
        <time>2021-05-22T10:31:40Z</time>
      </trkpt>
      <trkpt lat="48.69991" lon="2.18095">
        <ele>61.66</ele>
        <time>2021-05-22T10:31:53Z</time>
      </trkpt>
      <trkpt lat="48.69966" lon="2.18095">
        <ele>62.62</ele>
        <time>2021-05-22T10:32:07Z</time>
      </trkpt>
      <trkpt lat="48.69947" lon="2.18093">
        <ele>62.62</ele>
        <time>2021-05-22T10:32:23Z</time>
      </trkpt>
      <trkpt lat="48.69924" lon="2.18106">
        <ele>63.58</ele>
        <time>2021-05-22T10:32:40Z</time>
      </trkpt>
      <trkpt lat="48.69919" lon="2.18109">
        <ele>64.55</ele>
        <time>2021-05-22T10:32:46Z</time>
      </trkpt>
      <trkpt lat="48.69916" lon="2.18111">
        <ele>64.55</ele>
        <time>2021-05-22T10:32:48Z</time>
      </trkpt>
      <trkpt lat="48.69901" lon="2.18129">
        <ele>65.99</ele>
        <time>2021-05-22T10:33:02Z</time>
      </trkpt>
      <trkpt lat="48.69879" lon="2.18146">
        <ele>67.91</ele>
        <time>2021-05-22T10:33:18Z</time>
      </trkpt>
      <trkpt lat="48.69878" lon="2.18147">
        <ele>67.91</ele>
        <time>2021-05-22T10:33:19Z</time>
      </trkpt>
      <trkpt lat="48.69877" lon="2.18149">
        <ele>68.39</ele>
        <time>2021-05-22T10:33:20Z</time>
      </trkpt>
      <trkpt lat="48.69858" lon="2.18165">
        <ele>69.83</ele>
        <time>2021-05-22T10:33:36Z</time>
      </trkpt>
      <trkpt lat="48.69843" lon="2.18183">
        <ele>72.72</ele>
        <time>2021-05-22T10:33:51Z</time>
      </trkpt>
      <trkpt lat="48.69843" lon="2.18185">
        <ele>72.72</ele>
        <time>2021-05-22T10:33:52Z</time>
      </trkpt>
      <trkpt lat="48.69839" lon="2.18191">
        <ele>73.2</ele>
        <time>2021-05-22T10:33:58Z</time>
      </trkpt>
      <trkpt lat="48.69827" lon="2.18205">
        <ele>74.64</ele>
        <time>2021-05-22T10:34:12Z</time>
      </trkpt>
      <trkpt lat="48.69799" lon="2.18219">
        <ele>75.6</ele>
        <time>2021-05-22T10:34:30Z</time>
      </trkpt>
      <trkpt lat="48.698" lon="2.1822">
        <ele>76.08</ele>
        <time>2021-05-22T10:34:51Z</time>
      </trkpt>
      <trkpt lat="48.698" lon="2.1822">
        <ele>78</ele>
        <time>2021-05-22T10:35:05Z</time>
      </trkpt>
      <trkpt lat="48.6975" lon="2.1823">
        <ele>79.45</ele>
        <time>2021-05-22T10:35:12Z</time>
      </trkpt>
      <trkpt lat="48.69738" lon="2.18211">
        <ele>79.45</ele>
        <time>2021-05-22T10:35:24Z</time>
      </trkpt>
      <trkpt lat="48.69735" lon="2.18199">
        <ele>79.45</ele>
        <time>2021-05-22T10:35:31Z</time>
      </trkpt>
      <trkpt lat="48.69722" lon="2.18178">
        <ele>80.41</ele>
        <time>2021-05-22T10:35:45Z</time>
      </trkpt>
      <trkpt lat="48.69723" lon="2.18178">
        <ele>82.33</ele>
        <time>2021-05-22T10:35:50Z</time>
      </trkpt>
      <trkpt lat="48.69719" lon="2.1818">
        <ele>85.21</ele>
        <time>2021-05-22T10:35:58Z</time>
      </trkpt>
      <trkpt lat="48.69714" lon="2.18179">
        <ele>87.14</ele>
        <time>2021-05-22T10:36:02Z</time>
      </trkpt>
      <trkpt lat="48.69712" lon="2.18178">
        <ele>88.1</ele>
        <time>2021-05-22T10:36:03Z</time>
      </trkpt>
      <trkpt lat="48.6971" lon="2.18177">
        <ele>88.58</ele>
        <time>2021-05-22T10:36:04Z</time>
      </trkpt>
      <trkpt lat="48.69694" lon="2.1817">
        <ele>90.98</ele>
        <time>2021-05-22T10:36:14Z</time>
      </trkpt>
      <trkpt lat="48.69687" lon="2.18166">
        <ele>93.39</ele>
        <time>2021-05-22T10:36:27Z</time>
      </trkpt>
      <trkpt lat="48.69685" lon="2.18165">
        <ele>93.39</ele>
        <time>2021-05-22T10:36:28Z</time>
      </trkpt>
      <trkpt lat="48.69678" lon="2.18169">
        <ele>94.83</ele>
        <time>2021-05-22T10:36:33Z</time>
      </trkpt>
      <trkpt lat="48.69665" lon="2.18172">
        <ele>96.75</ele>
        <time>2021-05-22T10:36:45Z</time>
      </trkpt>
      <trkpt lat="48.69663" lon="2.18173">
        <ele>96.75</ele>
        <time>2021-05-22T10:36:47Z</time>
      </trkpt>
      <trkpt lat="48.69662" lon="2.18174">
        <ele>96.27</ele>
        <time>2021-05-22T10:36:48Z</time>
      </trkpt>
      <trkpt lat="48.69634" lon="2.18197">
        <ele>96.27</ele>
        <time>2021-05-22T10:37:01Z</time>
      </trkpt>
      <trkpt lat="48.69633" lon="2.18198">
        <ele>97.23</ele>
        <time>2021-05-22T10:37:04Z</time>
      </trkpt>
      <trkpt lat="48.69632" lon="2.18199">
        <ele>96.75</ele>
        <time>2021-05-22T10:37:05Z</time>
      </trkpt>
      <trkpt lat="48.69608" lon="2.18208">
        <ele>97.23</ele>
        <time>2021-05-22T10:37:19Z</time>
      </trkpt>
      <trkpt lat="48.69593" lon="2.18215">
        <ele>97.71</ele>
        <time>2021-05-22T10:37:31Z</time>
      </trkpt>
      <trkpt lat="48.69577" lon="2.18217">
        <ele>98.67</ele>
        <time>2021-05-22T10:37:44Z</time>
      </trkpt>
      <trkpt lat="48.69553" lon="2.18233">
        <ele>98.67</ele>
        <time>2021-05-22T10:37:57Z</time>
      </trkpt>
      <trkpt lat="48.69538" lon="2.18236">
        <ele>98.67</ele>
        <time>2021-05-22T10:38:12Z</time>
      </trkpt>
      <trkpt lat="48.69509" lon="2.18245">
        <ele>99.63</ele>
        <time>2021-05-22T10:38:26Z</time>
      </trkpt>
      <trkpt lat="48.69497" lon="2.18239">
        <ele>100.11</ele>
        <time>2021-05-22T10:38:39Z</time>
      </trkpt>
      <trkpt lat="48.69495" lon="2.18239">
        <ele>100.11</ele>
        <time>2021-05-22T10:38:40Z</time>
      </trkpt>
      <trkpt lat="48.69494" lon="2.1824">
        <ele>100.11</ele>
        <time>2021-05-22T10:38:41Z</time>
      </trkpt>
      <trkpt lat="48.69492" lon="2.1824">
        <ele>100.11</ele>
        <time>2021-05-22T10:38:42Z</time>
      </trkpt>
      <trkpt lat="48.6949" lon="2.1824">
        <ele>99.63</ele>
        <time>2021-05-22T10:38:43Z</time>
      </trkpt>
      <trkpt lat="48.69467" lon="2.18243">
        <ele>99.63</ele>
        <time>2021-05-22T10:38:56Z</time>
      </trkpt>
      <trkpt lat="48.69449" lon="2.18243">
        <ele>99.63</ele>
        <time>2021-05-22T10:39:07Z</time>
      </trkpt>
      <trkpt lat="48.69431" lon="2.18244">
        <ele>98.67</ele>
        <time>2021-05-22T10:39:17Z</time>
      </trkpt>
      <trkpt lat="48.6943" lon="2.18245">
        <ele>99.15</ele>
        <time>2021-05-22T10:39:18Z</time>
      </trkpt>
      <trkpt lat="48.69425" lon="2.18247">
        <ele>99.15</ele>
        <time>2021-05-22T10:39:25Z</time>
      </trkpt>
      <trkpt lat="48.69424" lon="2.18247">
        <ele>98.67</ele>
        <time>2021-05-22T10:39:26Z</time>
      </trkpt>
      <trkpt lat="48.69411" lon="2.18252">
        <ele>98.67</ele>
        <time>2021-05-22T10:39:35Z</time>
      </trkpt>
      <trkpt lat="48.69406" lon="2.18251">
        <ele>99.15</ele>
        <time>2021-05-22T10:39:38Z</time>
      </trkpt>
      <trkpt lat="48.69404" lon="2.18252">
        <ele>99.15</ele>
        <time>2021-05-22T10:39:39Z</time>
      </trkpt>
      <trkpt lat="48.69398" lon="2.18249">
        <ele>98.67</ele>
        <time>2021-05-22T10:39:45Z</time>
      </trkpt>
      <trkpt lat="48.69374" lon="2.1824">
        <ele>97.71</ele>
        <time>2021-05-22T10:39:57Z</time>
      </trkpt>
      <trkpt lat="48.69364" lon="2.18236">
        <ele>96.75</ele>
        <time>2021-05-22T10:40:09Z</time>
      </trkpt>
      <trkpt lat="48.69361" lon="2.18236">
        <ele>98.67</ele>
        <time>2021-05-22T10:40:11Z</time>
      </trkpt>
      <trkpt lat="48.6936" lon="2.18235">
        <ele>99.63</ele>
        <time>2021-05-22T10:40:12Z</time>
      </trkpt>
      <trkpt lat="48.69358" lon="2.18235">
        <ele>99.15</ele>
        <time>2021-05-22T10:40:13Z</time>
      </trkpt>
      <trkpt lat="48.69356" lon="2.18235">
        <ele>98.67</ele>
        <time>2021-05-22T10:40:14Z</time>
      </trkpt>
      <trkpt lat="48.69354" lon="2.18236">
        <ele>98.19</ele>
        <time>2021-05-22T10:40:15Z</time>
      </trkpt>
      <trkpt lat="48.6935" lon="2.18237">
        <ele>97.71</ele>
        <time>2021-05-22T10:40:17Z</time>
      </trkpt>
      <trkpt lat="48.69349" lon="2.18235">
        <ele>97.71</ele>
        <time>2021-05-22T10:40:18Z</time>
      </trkpt>
      <trkpt lat="48.69347" lon="2.18233">
        <ele>97.71</ele>
        <time>2021-05-22T10:40:19Z</time>
      </trkpt>
      <trkpt lat="48.69346" lon="2.18232">
        <ele>97.71</ele>
        <time>2021-05-22T10:40:20Z</time>
      </trkpt>
      <trkpt lat="48.69344" lon="2.18231">
        <ele>97.71</ele>
        <time>2021-05-22T10:40:21Z</time>
      </trkpt>
      <trkpt lat="48.69342" lon="2.1823">
        <ele>97.71</ele>
        <time>2021-05-22T10:40:22Z</time>
      </trkpt>
      <trkpt lat="48.6934" lon="2.18229">
        <ele>98.19</ele>
        <time>2021-05-22T10:40:23Z</time>
      </trkpt>
      <trkpt lat="48.69338" lon="2.18229">
        <ele>98.19</ele>
        <time>2021-05-22T10:40:24Z</time>
      </trkpt>
      <trkpt lat="48.69336" lon="2.18228">
        <ele>98.19</ele>
        <time>2021-05-22T10:40:25Z</time>
      </trkpt>
      <trkpt lat="48.69335" lon="2.18227">
        <ele>98.19</ele>
        <time>2021-05-22T10:40:26Z</time>
      </trkpt>
      <trkpt lat="48.69333" lon="2.18227">
        <ele>98.19</ele>
        <time>2021-05-22T10:40:27Z</time>
      </trkpt>
      <trkpt lat="48.69332" lon="2.18227">
        <ele>98.19</ele>
        <time>2021-05-22T10:40:28Z</time>
      </trkpt>
      <trkpt lat="48.6933" lon="2.18226">
        <ele>98.19</ele>
        <time>2021-05-22T10:40:29Z</time>
      </trkpt>
      <trkpt lat="48.69328" lon="2.18226">
        <ele>97.71</ele>
        <time>2021-05-22T10:40:30Z</time>
      </trkpt>
      <trkpt lat="48.69322" lon="2.18227">
        <ele>97.71</ele>
        <time>2021-05-22T10:40:34Z</time>
      </trkpt>
      <trkpt lat="48.69305" lon="2.18229">
        <ele>99.15</ele>
        <time>2021-05-22T10:40:48Z</time>
      </trkpt>
      <trkpt lat="48.693" lon="2.18231">
        <ele>98.67</ele>
        <time>2021-05-22T10:40:52Z</time>
      </trkpt>
      <trkpt lat="48.69298" lon="2.18232">
        <ele>98.67</ele>
        <time>2021-05-22T10:40:53Z</time>
      </trkpt>
      <trkpt lat="48.69297" lon="2.18232">
        <ele>98.67</ele>
        <time>2021-05-22T10:40:54Z</time>
      </trkpt>
      <trkpt lat="48.69296" lon="2.18233">
        <ele>98.67</ele>
        <time>2021-05-22T10:40:55Z</time>
      </trkpt>
      <trkpt lat="48.69294" lon="2.18233">
        <ele>98.67</ele>
        <time>2021-05-22T10:40:56Z</time>
      </trkpt>
      <trkpt lat="48.69263" lon="2.18234">
        <ele>99.63</ele>
        <time>2021-05-22T10:41:11Z</time>
      </trkpt>
      <trkpt lat="48.69259" lon="2.18221">
        <ele>99.63</ele>
        <time>2021-05-22T10:41:23Z</time>
      </trkpt>
      <trkpt lat="48.69244" lon="2.18196">
        <ele>99.15</ele>
        <time>2021-05-22T10:41:38Z</time>
      </trkpt>
      <trkpt lat="48.69223" lon="2.18178">
        <ele>99.63</ele>
        <time>2021-05-22T10:41:53Z</time>
      </trkpt>
      <trkpt lat="48.69215" lon="2.18152">
        <ele>101.56</ele>
        <time>2021-05-22T10:42:07Z</time>
      </trkpt>
      <trkpt lat="48.69215" lon="2.18133">
        <ele>103.48</ele>
        <time>2021-05-22T10:42:21Z</time>
      </trkpt>
      <trkpt lat="48.69214" lon="2.18128">
        <ele>103.48</ele>
        <time>2021-05-22T10:42:23Z</time>
      </trkpt>
      <trkpt lat="48.69208" lon="2.18114">
        <ele>104.92</ele>
        <time>2021-05-22T10:42:30Z</time>
      </trkpt>
      <trkpt lat="48.69191" lon="2.18107">
        <ele>106.84</ele>
        <time>2021-05-22T10:42:40Z</time>
      </trkpt>
      <trkpt lat="48.69186" lon="2.18108">
        <ele>107.32</ele>
        <time>2021-05-22T10:42:46Z</time>
      </trkpt>
      <trkpt lat="48.69183" lon="2.18098">
        <ele>107.32</ele>
        <time>2021-05-22T10:42:54Z</time>
      </trkpt>
      <trkpt lat="48.69183" lon="2.18096">
        <ele>107.32</ele>
        <time>2021-05-22T10:42:55Z</time>
      </trkpt>
      <trkpt lat="48.69181" lon="2.18091">
        <ele>107.32</ele>
        <time>2021-05-22T10:42:59Z</time>
      </trkpt>
      <trkpt lat="48.69181" lon="2.18089">
        <ele>107.32</ele>
        <time>2021-05-22T10:43:00Z</time>
      </trkpt>
      <trkpt lat="48.6918" lon="2.18085">
        <ele>107.32</ele>
        <time>2021-05-22T10:43:01Z</time>
      </trkpt>
      <trkpt lat="48.69174" lon="2.18054">
        <ele>109.25</ele>
        <time>2021-05-22T10:43:13Z</time>
      </trkpt>
      <trkpt lat="48.6917" lon="2.18024">
        <ele>111.17</ele>
        <time>2021-05-22T10:43:29Z</time>
      </trkpt>
      <trkpt lat="48.69166" lon="2.18006">
        <ele>114.05</ele>
        <time>2021-05-22T10:43:44Z</time>
      </trkpt>
      <trkpt lat="48.69166" lon="2.18004">
        <ele>114.05</ele>
        <time>2021-05-22T10:43:46Z</time>
      </trkpt>
      <trkpt lat="48.69163" lon="2.18">
        <ele>114.53</ele>
        <time>2021-05-22T10:43:49Z</time>
      </trkpt>
      <trkpt lat="48.69146" lon="2.17984">
        <ele>116.94</ele>
        <time>2021-05-22T10:44:02Z</time>
      </trkpt>
      <trkpt lat="48.69137" lon="2.17978">
        <ele>118.86</ele>
        <time>2021-05-22T10:44:13Z</time>
      </trkpt>
      <trkpt lat="48.69131" lon="2.17977">
        <ele>118.86</ele>
        <time>2021-05-22T10:44:16Z</time>
      </trkpt>
      <trkpt lat="48.69114" lon="2.17973">
        <ele>121.26</ele>
        <time>2021-05-22T10:44:29Z</time>
      </trkpt>
      <trkpt lat="48.69106" lon="2.17973">
        <ele>122.71</ele>
        <time>2021-05-22T10:44:37Z</time>
      </trkpt>
      <trkpt lat="48.69086" lon="2.17977">
        <ele>124.15</ele>
        <time>2021-05-22T10:44:49Z</time>
      </trkpt>
      <trkpt lat="48.69068" lon="2.1799">
        <ele>124.63</ele>
        <time>2021-05-22T10:45:02Z</time>
      </trkpt>
      <trkpt lat="48.69049" lon="2.17995">
        <ele>124.63</ele>
        <time>2021-05-22T10:45:15Z</time>
      </trkpt>
      <trkpt lat="48.69035" lon="2.18008">
        <ele>126.07</ele>
        <time>2021-05-22T10:45:28Z</time>
      </trkpt>
      <trkpt lat="48.69028" lon="2.18014">
        <ele>126.55</ele>
        <time>2021-05-22T10:45:35Z</time>
      </trkpt>
      <trkpt lat="48.69006" lon="2.18025">
        <ele>127.99</ele>
        <time>2021-05-22T10:45:52Z</time>
      </trkpt>
      <trkpt lat="48.6898" lon="2.18035">
        <ele>129.43</ele>
        <time>2021-05-22T10:46:11Z</time>
      </trkpt>
      <trkpt lat="48.68962" lon="2.18042">
        <ele>129.92</ele>
        <time>2021-05-22T10:46:25Z</time>
      </trkpt>
      <trkpt lat="48.68937" lon="2.1805">
        <ele>130.4</ele>
        <time>2021-05-22T10:46:44Z</time>
      </trkpt>
      <trkpt lat="48.6891" lon="2.18053">
        <ele>131.36</ele>
        <time>2021-05-22T10:47:03Z</time>
      </trkpt>
      <trkpt lat="48.68891" lon="2.18056">
        <ele>132.8</ele>
        <time>2021-05-22T10:47:17Z</time>
      </trkpt>
      <trkpt lat="48.68879" lon="2.18056">
        <ele>133.28</ele>
        <time>2021-05-22T10:47:26Z</time>
      </trkpt>
      <trkpt lat="48.68878" lon="2.18058">
        <ele>133.28</ele>
        <time>2021-05-22T10:47:27Z</time>
      </trkpt>
      <trkpt lat="48.68877" lon="2.18059">
        <ele>133.28</ele>
        <time>2021-05-22T10:47:28Z</time>
      </trkpt>
      <trkpt lat="48.68868" lon="2.18069">
        <ele>134.72</ele>
        <time>2021-05-22T10:47:38Z</time>
      </trkpt>
      <trkpt lat="48.68867" lon="2.1807">
        <ele>135.2</ele>
        <time>2021-05-22T10:47:39Z</time>
      </trkpt>
      <trkpt lat="48.68865" lon="2.18071">
        <ele>135.2</ele>
        <time>2021-05-22T10:47:40Z</time>
      </trkpt>
      <trkpt lat="48.68864" lon="2.18072">
        <ele>135.2</ele>
        <time>2021-05-22T10:47:41Z</time>
      </trkpt>
      <trkpt lat="48.68863" lon="2.18072">
        <ele>135.2</ele>
        <time>2021-05-22T10:47:42Z</time>
      </trkpt>
      <trkpt lat="48.68862" lon="2.18072">
        <ele>135.68</ele>
        <time>2021-05-22T10:47:43Z</time>
      </trkpt>
      <trkpt lat="48.68861" lon="2.18072">
        <ele>135.68</ele>
        <time>2021-05-22T10:47:44Z</time>
      </trkpt>
      <trkpt lat="48.68856" lon="2.18076">
        <ele>136.64</ele>
        <time>2021-05-22T10:47:50Z</time>
      </trkpt>
      <trkpt lat="48.68855" lon="2.18078">
        <ele>136.64</ele>
        <time>2021-05-22T10:47:51Z</time>
      </trkpt>
      <trkpt lat="48.68854" lon="2.18079">
        <ele>137.13</ele>
        <time>2021-05-22T10:47:52Z</time>
      </trkpt>
      <trkpt lat="48.68835" lon="2.181">
        <ele>140.01</ele>
        <time>2021-05-22T10:48:11Z</time>
      </trkpt>
      <trkpt lat="48.68825" lon="2.18119">
        <ele>141.45</ele>
        <time>2021-05-22T10:48:25Z</time>
      </trkpt>
      <trkpt lat="48.68823" lon="2.18122">
        <ele>141.93</ele>
        <time>2021-05-22T10:48:27Z</time>
      </trkpt>
      <trkpt lat="48.6881" lon="2.18138">
        <ele>143.85</ele>
        <time>2021-05-22T10:48:41Z</time>
      </trkpt>
      <trkpt lat="48.68795" lon="2.18164">
        <ele>143.85</ele>
        <time>2021-05-22T10:48:59Z</time>
      </trkpt>
      <trkpt lat="48.68792" lon="2.18174">
        <ele>142.89</ele>
        <time>2021-05-22T10:49:05Z</time>
      </trkpt>
      <trkpt lat="48.68791" lon="2.18175">
        <ele>142.89</ele>
        <time>2021-05-22T10:49:06Z</time>
      </trkpt>
      <trkpt lat="48.68786" lon="2.18193">
        <ele>140</ele>
      </trkpt>
      <trkpt lat="48.68786" lon="2.18208">
        <ele>139.3</ele>
      </trkpt>
      <trkpt lat="48.68787" lon="2.18226">
        <ele>138.3</ele>
      </trkpt>
      <trkpt lat="48.68786" lon="2.18236">
        <ele>138.1</ele>
      </trkpt>
      <trkpt lat="48.68787" lon="2.18253">
        <ele>137.2</ele>
      </trkpt>
      <trkpt lat="48.68787" lon="2.18273">
        <ele>136.4</ele>
      </trkpt>
      <trkpt lat="48.68793" lon="2.18288">
        <ele>134.9</ele>
      </trkpt>
      <trkpt lat="48.68798" lon="2.18302">
        <ele>133.6</ele>
      </trkpt>
      <trkpt lat="48.68803" lon="2.18316">
        <ele>132.4</ele>
        <time>2021-05-22T10:49:26Z</time>
      </trkpt>
    </trkseg>
  </trk>
</gpx>